<?xml version="1.0" encoding="UTF-8" standalone="yes"?>
<gpx
 xmlns="http://www.topografix.com/GPX/1/1"
 creator="OziExplorer Version 3956f - http://www.oziexplorer.com"
 version="1.1"
 xmlns:xsi="http://www.w3.org/2001/XMLSchema-instance"
 xsi:schemaLocation="http://www.topografix.com/GPX/1/1 http://www.topografix.com/GPX/1/1/gpx.xsd">
<metadata>
 <time>2023-01-18T14:00:53Z</time>
 <bounds minlat="31.362430" minlon="34.583270" maxlat="31.403120" maxlon="34.680490"/>
</metadata>
<wpt lat="31.3805200" lon="34.6129500">
 <time>2023-01-18T15:57:50.183Z</time>
 <name>Stoliki</name>
 <sym>Picnic Area</sym>
</wpt>
<wpt lat="31.3765600" lon="34.6165100">
 <time>2023-01-18T15:57:50.218Z</time>
 <name>St\Fin</name>
 <sym>Bike Trail</sym>
</wpt>
<wpt lat="31.3765300" lon="34.6161700">
 <time>2023-01-18T15:57:50.220Z</time>
 <name>Vlevo</name>
 <sym>Flag, Red</sym>
</wpt>
<wpt lat="31.3810200" lon="34.6168800">
 <time>2023-01-18T15:57:50.224Z</time>
 <name>Vlevo</name>
 <sym>Flag, Red</sym>
</wpt>
<wpt lat="31.3801100" lon="34.6158000">
 <time>2023-01-18T15:57:50.226Z</time>
 <name>Vlevo</name>
 <sym>Flag, Red</sym>
</wpt>
<wpt lat="31.3977800" lon="34.6433100">
 <time>2023-01-18T15:57:50.227Z</time>
 <name>Otv_Jipovka</name>
 <sym>Flag, Red</sym>
</wpt>
<wpt lat="31.3977800" lon="34.6433100">
 <time>2023-01-18T15:57:50.228Z</time>
 <name>Otv_Jipovka</name>
 <sym>Flag, Red</sym>
</wpt>
<wpt lat="31.3928700" lon="34.6783400">
 <time>2023-01-18T15:57:50.230Z</time>
 <name>NaTatspit</name>
 <sym>Flag, Red</sym>
</wpt>
<wpt lat="31.3910900" lon="34.6802300">
 <time>2023-01-18T15:57:50.233Z</time>
 <name>Tatspit</name>
 <sym>Flag, Red</sym>
</wpt>
<wpt lat="31.3910900" lon="34.6802300">
 <time>2023-01-18T15:57:50.234Z</time>
 <name>Tatspit</name>
 <sym>Flag, Red</sym>
</wpt>
<wpt lat="31.3918300" lon="34.6751800">
 <time>2023-01-18T15:57:50.235Z</time>
 <name>Jipovka</name>
 <sym>Flag, Red</sym>
</wpt>
<wpt lat="31.3987300" lon="34.6391200">
 <time>2023-01-18T15:57:50.236Z</time>
 <name>NaSingl</name>
 <sym>Flag, Red</sym>
</wpt>
<wpt lat="31.3990300" lon="34.6388000">
 <time>2023-01-18T15:57:50.237Z</time>
 <name>Singl</name>
 <sym>Flag, Red</sym>
</wpt>
<trk>
 <name>Grar+Sharsheret_Sin,43km.316m</name>
 <desc>Grar+Sharsheret_Sin,43km.316m</desc>
<trkseg>
<trkpt lat="31.3765100" lon="34.6165300">
<ele>100.110001</ele>
<time>2023-01-18T15:57:50.237Z</time>
</trkpt>
<trkpt lat="31.3764500" lon="34.6165800">
<ele>99.970001</ele>
<time>2023-01-18T15:57:50.237Z</time>
</trkpt>
<trkpt lat="31.3763700" lon="34.6163600">
<ele>102.900002</ele>
<time>2023-01-18T15:57:50.237Z</time>
</trkpt>
<trkpt lat="31.3765300" lon="34.6161700">
<ele>100.980003</ele>
<time>2023-01-18T15:57:50.237Z</time>
</trkpt>
<trkpt lat="31.3765300" lon="34.6161700">
<ele>100.980003</ele>
<time>2023-01-18T15:57:50.237Z</time>
</trkpt>
<trkpt lat="31.3764800" lon="34.6160800">
<ele>101.229996</ele>
<time>2023-01-18T15:57:50.237Z</time>
</trkpt>
<trkpt lat="31.3765200" lon="34.6159300">
<ele>100.680000</ele>
<time>2023-01-18T15:57:50.237Z</time>
</trkpt>
<trkpt lat="31.3766000" lon="34.6158200">
<ele>100.769997</ele>
<time>2023-01-18T15:57:50.237Z</time>
</trkpt>
<trkpt lat="31.3766000" lon="34.6158200">
<ele>100.769997</ele>
<time>2023-01-18T15:57:50.237Z</time>
</trkpt>
<trkpt lat="31.3767100" lon="34.6156800">
<ele>101.089996</ele>
<time>2023-01-18T15:57:50.237Z</time>
</trkpt>
<trkpt lat="31.3768100" lon="34.6154100">
<ele>100.990005</ele>
<time>2023-01-18T15:57:50.237Z</time>
</trkpt>
<trkpt lat="31.3767900" lon="34.6152000">
<ele>99.010002</ele>
<time>2023-01-18T15:57:50.237Z</time>
</trkpt>
<trkpt lat="31.3766600" lon="34.6149800">
<ele>93.769997</ele>
<time>2023-01-18T15:57:50.237Z</time>
</trkpt>
<trkpt lat="31.3764100" lon="34.6150000">
<ele>93.080002</ele>
<time>2023-01-18T15:57:50.237Z</time>
</trkpt>
<trkpt lat="31.3762800" lon="34.6150300">
<ele>92.340004</ele>
<time>2023-01-18T15:57:50.237Z</time>
</trkpt>
<trkpt lat="31.3759100" lon="34.6148600">
<ele>92.239998</ele>
<time>2023-01-18T15:57:50.237Z</time>
</trkpt>
<trkpt lat="31.3754800" lon="34.6148800">
<ele>97.439995</ele>
<time>2023-01-18T15:57:50.237Z</time>
</trkpt>
<trkpt lat="31.3750900" lon="34.6146300">
<ele>96.940002</ele>
<time>2023-01-18T15:57:50.237Z</time>
</trkpt>
<trkpt lat="31.3755300" lon="34.6143500">
<ele>91.520004</ele>
<time>2023-01-18T15:57:50.237Z</time>
</trkpt>
<trkpt lat="31.3761800" lon="34.6142300">
<ele>93.960007</ele>
<time>2023-01-18T15:57:50.237Z</time>
</trkpt>
<trkpt lat="31.3762400" lon="34.6140800">
<ele>94.169998</ele>
<time>2023-01-18T15:57:50.237Z</time>
</trkpt>
<trkpt lat="31.3762400" lon="34.6140100">
<ele>93.939995</ele>
<time>2023-01-18T15:57:50.237Z</time>
</trkpt>
<trkpt lat="31.3762400" lon="34.6140100">
<ele>93.939995</ele>
<time>2023-01-18T15:57:50.237Z</time>
</trkpt>
<trkpt lat="31.3762500" lon="34.6139000">
<ele>93.540001</ele>
<time>2023-01-18T15:57:50.237Z</time>
</trkpt>
<trkpt lat="31.3765100" lon="34.6138000">
<ele>92.820000</ele>
<time>2023-01-18T15:57:50.237Z</time>
</trkpt>
<trkpt lat="31.3765800" lon="34.6135800">
<ele>92.910004</ele>
<time>2023-01-18T15:57:50.237Z</time>
</trkpt>
<trkpt lat="31.3766100" lon="34.6134200">
<ele>94.169998</ele>
<time>2023-01-18T15:57:50.237Z</time>
</trkpt>
<trkpt lat="31.3768200" lon="34.6132100">
<ele>97.439995</ele>
<time>2023-01-18T15:57:50.237Z</time>
</trkpt>
<trkpt lat="31.3767800" lon="34.6129800">
<ele>98.649994</ele>
<time>2023-01-18T15:57:50.237Z</time>
</trkpt>
<trkpt lat="31.3767500" lon="34.6127300">
<ele>97.830002</ele>
<time>2023-01-18T15:57:50.237Z</time>
</trkpt>
<trkpt lat="31.3765800" lon="34.6125800">
<ele>94.730003</ele>
<time>2023-01-18T15:57:50.237Z</time>
</trkpt>
<trkpt lat="31.3766400" lon="34.6124800">
<ele>95.739998</ele>
<time>2023-01-18T15:57:50.237Z</time>
</trkpt>
<trkpt lat="31.3768200" lon="34.6123200">
<ele>98.560005</ele>
<time>2023-01-18T15:57:50.237Z</time>
</trkpt>
<trkpt lat="31.3768500" lon="34.6121000">
<ele>99.500000</ele>
<time>2023-01-18T15:57:50.237Z</time>
</trkpt>
<trkpt lat="31.3767900" lon="34.6120200">
<ele>99.849998</ele>
<time>2023-01-18T15:57:50.237Z</time>
</trkpt>
<trkpt lat="31.3766900" lon="34.6117000">
<ele>99.250000</ele>
<time>2023-01-18T15:57:50.237Z</time>
</trkpt>
<trkpt lat="31.3766600" lon="34.6116600">
<ele>98.930000</ele>
<time>2023-01-18T15:57:50.237Z</time>
</trkpt>
<trkpt lat="31.3766600" lon="34.6116600">
<ele>98.930000</ele>
<time>2023-01-18T15:57:50.237Z</time>
</trkpt>
<trkpt lat="31.3766000" lon="34.6115800">
<ele>98.209999</ele>
<time>2023-01-18T15:57:50.237Z</time>
</trkpt>
<trkpt lat="31.3767600" lon="34.6115000">
<ele>99.409996</ele>
<time>2023-01-18T15:57:50.237Z</time>
</trkpt>
<trkpt lat="31.3769500" lon="34.6116000">
<ele>101.610001</ele>
<time>2023-01-18T15:57:50.237Z</time>
</trkpt>
<trkpt lat="31.3772200" lon="34.6116500">
<ele>94.120003</ele>
<time>2023-01-18T15:57:50.237Z</time>
</trkpt>
<trkpt lat="31.3773900" lon="34.6114700">
<ele>95.060005</ele>
<time>2023-01-18T15:57:50.237Z</time>
</trkpt>
<trkpt lat="31.3774500" lon="34.6113400">
<ele>94.600006</ele>
<time>2023-01-18T15:57:50.237Z</time>
</trkpt>
<trkpt lat="31.3774500" lon="34.6113400">
<ele>94.600006</ele>
<time>2023-01-18T15:57:50.237Z</time>
</trkpt>
<trkpt lat="31.3775000" lon="34.6112200">
<ele>93.179993</ele>
<time>2023-01-18T15:57:50.237Z</time>
</trkpt>
<trkpt lat="31.3775300" lon="34.6110900">
<ele>91.840004</ele>
<time>2023-01-18T15:57:50.237Z</time>
</trkpt>
<trkpt lat="31.3776300" lon="34.6109500">
<ele>91.769997</ele>
<time>2023-01-18T15:57:50.237Z</time>
</trkpt>
<trkpt lat="31.3777100" lon="34.6107900">
<ele>91.610001</ele>
<time>2023-01-18T15:57:50.237Z</time>
</trkpt>
<trkpt lat="31.3775300" lon="34.6102700">
<ele>83.690002</ele>
<time>2023-01-18T15:57:50.237Z</time>
</trkpt>
<trkpt lat="31.3776000" lon="34.6097500">
<ele>89.430000</ele>
<time>2023-01-18T15:57:50.237Z</time>
</trkpt>
<trkpt lat="31.3776800" lon="34.6095600">
<ele>89.059998</ele>
<time>2023-01-18T15:57:50.237Z</time>
</trkpt>
<trkpt lat="31.3778700" lon="34.6094500">
<ele>85.040001</ele>
<time>2023-01-18T15:57:50.237Z</time>
</trkpt>
<trkpt lat="31.3778700" lon="34.6092900">
<ele>88.159996</ele>
<time>2023-01-18T15:57:50.237Z</time>
</trkpt>
<trkpt lat="31.3778300" lon="34.6091100">
<ele>91.580002</ele>
<time>2023-01-18T15:57:50.237Z</time>
</trkpt>
<trkpt lat="31.3778300" lon="34.6088600">
<ele>93.269997</ele>
<time>2023-01-18T15:57:50.237Z</time>
</trkpt>
<trkpt lat="31.3779300" lon="34.6086600">
<ele>93.559998</ele>
<time>2023-01-18T15:57:50.237Z</time>
</trkpt>
<trkpt lat="31.3780300" lon="34.6085700">
<ele>91.680000</ele>
<time>2023-01-18T15:57:50.237Z</time>
</trkpt>
<trkpt lat="31.3780200" lon="34.6083900">
<ele>92.199997</ele>
<time>2023-01-18T15:57:50.237Z</time>
</trkpt>
<trkpt lat="31.3779600" lon="34.6081700">
<ele>94.040001</ele>
<time>2023-01-18T15:57:50.237Z</time>
</trkpt>
<trkpt lat="31.3779000" lon="34.6079100">
<ele>94.139999</ele>
<time>2023-01-18T15:57:50.237Z</time>
</trkpt>
<trkpt lat="31.3778400" lon="34.6077200">
<ele>94.059998</ele>
<time>2023-01-18T15:57:50.237Z</time>
</trkpt>
<trkpt lat="31.3777900" lon="34.6075400">
<ele>94.020004</ele>
<time>2023-01-18T15:57:50.237Z</time>
</trkpt>
<trkpt lat="31.3776900" lon="34.6070800">
<ele>97.139999</ele>
<time>2023-01-18T15:57:50.237Z</time>
</trkpt>
<trkpt lat="31.3776700" lon="34.6067300">
<ele>98.380005</ele>
<time>2023-01-18T15:57:50.237Z</time>
</trkpt>
<trkpt lat="31.3776700" lon="34.6067300">
<ele>98.380005</ele>
<time>2023-01-18T15:57:50.237Z</time>
</trkpt>
<trkpt lat="31.3776600" lon="34.6064100">
<ele>98.159996</ele>
<time>2023-01-18T15:57:50.237Z</time>
</trkpt>
<trkpt lat="31.3776000" lon="34.6059800">
<ele>96.620003</ele>
<time>2023-01-18T15:57:50.237Z</time>
</trkpt>
<trkpt lat="31.3772700" lon="34.6055400">
<ele>101.630005</ele>
<time>2023-01-18T15:57:50.237Z</time>
</trkpt>
<trkpt lat="31.3769900" lon="34.6054400">
<ele>106.770004</ele>
<time>2023-01-18T15:57:50.237Z</time>
</trkpt>
<trkpt lat="31.3768300" lon="34.6051300">
<ele>103.509995</ele>
<time>2023-01-18T15:57:50.237Z</time>
</trkpt>
<trkpt lat="31.3768800" lon="34.6049600">
<ele>99.229996</ele>
<time>2023-01-18T15:57:50.237Z</time>
</trkpt>
<trkpt lat="31.3771300" lon="34.6049800">
<ele>96.679993</ele>
<time>2023-01-18T15:57:50.237Z</time>
</trkpt>
<trkpt lat="31.3772600" lon="34.6047500">
<ele>91.189995</ele>
<time>2023-01-18T15:57:50.237Z</time>
</trkpt>
<trkpt lat="31.3771300" lon="34.6045600">
<ele>91.690002</ele>
<time>2023-01-18T15:57:50.237Z</time>
</trkpt>
<trkpt lat="31.3769200" lon="34.6043700">
<ele>95.299995</ele>
<time>2023-01-18T15:57:50.237Z</time>
</trkpt>
<trkpt lat="31.3766700" lon="34.6041800">
<ele>97.070000</ele>
<time>2023-01-18T15:57:50.237Z</time>
</trkpt>
<trkpt lat="31.3766400" lon="34.6041100">
<ele>97.559998</ele>
<time>2023-01-18T15:57:50.237Z</time>
</trkpt>
<trkpt lat="31.3766400" lon="34.6041100">
<ele>97.559998</ele>
<time>2023-01-18T15:57:50.237Z</time>
</trkpt>
<trkpt lat="31.3765900" lon="34.6039900">
<ele>98.470001</ele>
<time>2023-01-18T15:57:50.237Z</time>
</trkpt>
<trkpt lat="31.3766500" lon="34.6039000">
<ele>98.919998</ele>
<time>2023-01-18T15:57:50.237Z</time>
</trkpt>
<trkpt lat="31.3766800" lon="34.6038600">
<ele>99.259995</ele>
<time>2023-01-18T15:57:50.237Z</time>
</trkpt>
<trkpt lat="31.3768900" lon="34.6038300">
<ele>100.230003</ele>
<time>2023-01-18T15:57:50.237Z</time>
</trkpt>
<trkpt lat="31.3770800" lon="34.6038400">
<ele>99.690002</ele>
<time>2023-01-18T15:57:50.237Z</time>
</trkpt>
<trkpt lat="31.3772100" lon="34.6037500">
<ele>99.089996</ele>
<time>2023-01-18T15:57:50.237Z</time>
</trkpt>
<trkpt lat="31.3772500" lon="34.6034600">
<ele>98.400002</ele>
<time>2023-01-18T15:57:50.237Z</time>
</trkpt>
<trkpt lat="31.3771100" lon="34.6031800">
<ele>99.879997</ele>
<time>2023-01-18T15:57:50.237Z</time>
</trkpt>
<trkpt lat="31.3770400" lon="34.6029700">
<ele>99.400002</ele>
<time>2023-01-18T15:57:50.237Z</time>
</trkpt>
<trkpt lat="31.3768800" lon="34.6029900">
<ele>101.220001</ele>
<time>2023-01-18T15:57:50.237Z</time>
</trkpt>
<trkpt lat="31.3766800" lon="34.6029700">
<ele>102.290001</ele>
<time>2023-01-18T15:57:50.237Z</time>
</trkpt>
<trkpt lat="31.3766800" lon="34.6029600">
<ele>102.210007</ele>
<time>2023-01-18T15:57:50.237Z</time>
</trkpt>
<trkpt lat="31.3766200" lon="34.6028000">
<ele>100.619995</ele>
<time>2023-01-18T15:57:50.237Z</time>
</trkpt>
<trkpt lat="31.3766100" lon="34.6026800">
<ele>101.369995</ele>
<time>2023-01-18T15:57:50.237Z</time>
</trkpt>
<trkpt lat="31.3767500" lon="34.6025000">
<ele>101.000000</ele>
<time>2023-01-18T15:57:50.237Z</time>
</trkpt>
<trkpt lat="31.3764600" lon="34.6019500">
<ele>102.919998</ele>
<time>2023-01-18T15:57:50.237Z</time>
</trkpt>
<trkpt lat="31.3761200" lon="34.6017200">
<ele>106.279999</ele>
<time>2023-01-18T15:57:50.237Z</time>
</trkpt>
<trkpt lat="31.3758400" lon="34.6017300">
<ele>110.669998</ele>
<time>2023-01-18T15:57:50.237Z</time>
</trkpt>
<trkpt lat="31.3756400" lon="34.6018300">
<ele>105.379997</ele>
<time>2023-01-18T15:57:50.237Z</time>
</trkpt>
<trkpt lat="31.3754000" lon="34.6017200">
<ele>99.480003</ele>
<time>2023-01-18T15:57:50.237Z</time>
</trkpt>
<trkpt lat="31.3752100" lon="34.6013000">
<ele>98.779999</ele>
<time>2023-01-18T15:57:50.237Z</time>
</trkpt>
<trkpt lat="31.3751000" lon="34.6008700">
<ele>103.919998</ele>
<time>2023-01-18T15:57:50.237Z</time>
</trkpt>
<trkpt lat="31.3745900" lon="34.6005900">
<ele>103.239998</ele>
<time>2023-01-18T15:57:50.237Z</time>
</trkpt>
<trkpt lat="31.3742600" lon="34.6006500">
<ele>105.669998</ele>
<time>2023-01-18T15:57:50.237Z</time>
</trkpt>
<trkpt lat="31.3740200" lon="34.6007900">
<ele>104.899994</ele>
<time>2023-01-18T15:57:50.237Z</time>
</trkpt>
<trkpt lat="31.3738800" lon="34.6008300">
<ele>102.980003</ele>
<time>2023-01-18T15:57:50.237Z</time>
</trkpt>
<trkpt lat="31.3738400" lon="34.6005500">
<ele>103.459999</ele>
<time>2023-01-18T15:57:50.237Z</time>
</trkpt>
<trkpt lat="31.3738400" lon="34.6003900">
<ele>103.089996</ele>
<time>2023-01-18T15:57:50.237Z</time>
</trkpt>
<trkpt lat="31.3737200" lon="34.6002500">
<ele>102.009995</ele>
<time>2023-01-18T15:57:50.237Z</time>
</trkpt>
<trkpt lat="31.3734700" lon="34.6002500">
<ele>102.260002</ele>
<time>2023-01-18T15:57:50.237Z</time>
</trkpt>
<trkpt lat="31.3733700" lon="34.6001200">
<ele>102.490005</ele>
<time>2023-01-18T15:57:50.237Z</time>
</trkpt>
<trkpt lat="31.3733800" lon="34.5998400">
<ele>102.860001</ele>
<time>2023-01-18T15:57:50.237Z</time>
</trkpt>
<trkpt lat="31.3733200" lon="34.5997700">
<ele>103.610001</ele>
<time>2023-01-18T15:57:50.237Z</time>
</trkpt>
<trkpt lat="31.3733200" lon="34.5997700">
<ele>103.610001</ele>
<time>2023-01-18T15:57:50.237Z</time>
</trkpt>
<trkpt lat="31.3732500" lon="34.5997000">
<ele>102.320000</ele>
<time>2023-01-18T15:57:50.237Z</time>
</trkpt>
<trkpt lat="31.3730800" lon="34.5993400">
<ele>100.879997</ele>
<time>2023-01-18T15:57:50.237Z</time>
</trkpt>
<trkpt lat="31.3728900" lon="34.5992800">
<ele>96.829994</ele>
<time>2023-01-18T15:57:50.237Z</time>
</trkpt>
<trkpt lat="31.3726100" lon="34.5992000">
<ele>94.139999</ele>
<time>2023-01-18T15:57:50.237Z</time>
</trkpt>
<trkpt lat="31.3724200" lon="34.5990900">
<ele>93.789993</ele>
<time>2023-01-18T15:57:50.237Z</time>
</trkpt>
<trkpt lat="31.3721000" lon="34.5991100">
<ele>93.019997</ele>
<time>2023-01-18T15:57:50.237Z</time>
</trkpt>
<trkpt lat="31.3720500" lon="34.5990400">
<ele>92.890007</ele>
<time>2023-01-18T15:57:50.237Z</time>
</trkpt>
<trkpt lat="31.3720500" lon="34.5987900">
<ele>92.669998</ele>
<time>2023-01-18T15:57:50.237Z</time>
</trkpt>
<trkpt lat="31.3720500" lon="34.5987900">
<ele>92.669998</ele>
<time>2023-01-18T15:57:50.237Z</time>
</trkpt>
<trkpt lat="31.3720500" lon="34.5987900">
<ele>92.669998</ele>
<time>2023-01-18T15:57:50.237Z</time>
</trkpt>
<trkpt lat="31.3720500" lon="34.5984500">
<ele>91.279999</ele>
<time>2023-01-18T15:57:50.237Z</time>
</trkpt>
<trkpt lat="31.3721700" lon="34.5983400">
<ele>90.889999</ele>
<time>2023-01-18T15:57:50.237Z</time>
</trkpt>
<trkpt lat="31.3722300" lon="34.5982000">
<ele>89.519997</ele>
<time>2023-01-18T15:57:50.237Z</time>
</trkpt>
<trkpt lat="31.3721200" lon="34.5979600">
<ele>87.779999</ele>
<time>2023-01-18T15:57:50.237Z</time>
</trkpt>
<trkpt lat="31.3720900" lon="34.5978000">
<ele>87.519997</ele>
<time>2023-01-18T15:57:50.237Z</time>
</trkpt>
<trkpt lat="31.3720900" lon="34.5978000">
<ele>87.519997</ele>
<time>2023-01-18T15:57:50.237Z</time>
</trkpt>
<trkpt lat="31.3720700" lon="34.5977900">
<ele>87.570007</ele>
<time>2023-01-18T15:57:50.237Z</time>
</trkpt>
<trkpt lat="31.3718700" lon="34.5976500">
<ele>87.900002</ele>
<time>2023-01-18T15:57:50.237Z</time>
</trkpt>
<trkpt lat="31.3717800" lon="34.5976200">
<ele>87.459999</ele>
<time>2023-01-18T15:57:50.237Z</time>
</trkpt>
<trkpt lat="31.3717400" lon="34.5976300">
<ele>87.110001</ele>
<time>2023-01-18T15:57:50.237Z</time>
</trkpt>
<trkpt lat="31.3716700" lon="34.5976400">
<ele>86.510002</ele>
<time>2023-01-18T15:57:50.237Z</time>
</trkpt>
<trkpt lat="31.3716000" lon="34.5976700">
<ele>85.880005</ele>
<time>2023-01-18T15:57:50.237Z</time>
</trkpt>
<trkpt lat="31.3715200" lon="34.5975400">
<ele>86.210007</ele>
<time>2023-01-18T15:57:50.237Z</time>
</trkpt>
<trkpt lat="31.3715200" lon="34.5975300">
<ele>86.260002</ele>
<time>2023-01-18T15:57:50.237Z</time>
</trkpt>
<trkpt lat="31.3715200" lon="34.5975300">
<ele>86.260002</ele>
<time>2023-01-18T15:57:50.237Z</time>
</trkpt>
<trkpt lat="31.3714800" lon="34.5974700">
<ele>86.159996</ele>
<time>2023-01-18T15:57:50.237Z</time>
</trkpt>
<trkpt lat="31.3714600" lon="34.5973500">
<ele>86.709999</ele>
<time>2023-01-18T15:57:50.237Z</time>
</trkpt>
<trkpt lat="31.3714600" lon="34.5973500">
<ele>86.709999</ele>
<time>2023-01-18T15:57:50.237Z</time>
</trkpt>
<trkpt lat="31.3714200" lon="34.5970200">
<ele>86.900002</ele>
<time>2023-01-18T15:57:50.237Z</time>
</trkpt>
<trkpt lat="31.3712600" lon="34.5966700">
<ele>87.459999</ele>
<time>2023-01-18T15:57:50.237Z</time>
</trkpt>
<trkpt lat="31.3713700" lon="34.5962300">
<ele>85.000000</ele>
<time>2023-01-18T15:57:50.237Z</time>
</trkpt>
<trkpt lat="31.3714000" lon="34.5959500">
<ele>82.750000</ele>
<time>2023-01-18T15:57:50.237Z</time>
</trkpt>
<trkpt lat="31.3712800" lon="34.5957900">
<ele>83.020004</ele>
<time>2023-01-18T15:57:50.237Z</time>
</trkpt>
<trkpt lat="31.3711800" lon="34.5957300">
<ele>83.879997</ele>
<time>2023-01-18T15:57:50.237Z</time>
</trkpt>
<trkpt lat="31.3710100" lon="34.5955800">
<ele>85.669998</ele>
<time>2023-01-18T15:57:50.237Z</time>
</trkpt>
<trkpt lat="31.3709400" lon="34.5955500">
<ele>86.340004</ele>
<time>2023-01-18T15:57:50.237Z</time>
</trkpt>
<trkpt lat="31.3708000" lon="34.5955300">
<ele>87.730003</ele>
<time>2023-01-18T15:57:50.237Z</time>
</trkpt>
<trkpt lat="31.3703500" lon="34.5955500">
<ele>91.180000</ele>
<time>2023-01-18T15:57:50.237Z</time>
</trkpt>
<trkpt lat="31.3699800" lon="34.5954800">
<ele>90.070000</ele>
<time>2023-01-18T15:57:50.237Z</time>
</trkpt>
<trkpt lat="31.3697200" lon="34.5954200">
<ele>93.860001</ele>
<time>2023-01-18T15:57:50.237Z</time>
</trkpt>
<trkpt lat="31.3695100" lon="34.5952700">
<ele>94.320000</ele>
<time>2023-01-18T15:57:50.237Z</time>
</trkpt>
<trkpt lat="31.3691500" lon="34.5947600">
<ele>94.779999</ele>
<time>2023-01-18T15:57:50.237Z</time>
</trkpt>
<trkpt lat="31.3690400" lon="34.5946600">
<ele>96.989998</ele>
<time>2023-01-18T15:57:50.237Z</time>
</trkpt>
<trkpt lat="31.3688000" lon="34.5944500">
<ele>101.010002</ele>
<time>2023-01-18T15:57:50.237Z</time>
</trkpt>
<trkpt lat="31.3686100" lon="34.5942800">
<ele>97.589996</ele>
<time>2023-01-18T15:57:50.237Z</time>
</trkpt>
<trkpt lat="31.3683200" lon="34.5937800">
<ele>86.400002</ele>
<time>2023-01-18T15:57:50.237Z</time>
</trkpt>
<trkpt lat="31.3682900" lon="34.5934100">
<ele>80.610001</ele>
<time>2023-01-18T15:57:50.237Z</time>
</trkpt>
<trkpt lat="31.3683100" lon="34.5933400">
<ele>79.279999</ele>
<time>2023-01-18T15:57:50.237Z</time>
</trkpt>
<trkpt lat="31.3685600" lon="34.5928600">
<ele>75.830002</ele>
<time>2023-01-18T15:57:50.237Z</time>
</trkpt>
<trkpt lat="31.3686500" lon="34.5926900">
<ele>77.180000</ele>
<time>2023-01-18T15:57:50.237Z</time>
</trkpt>
<trkpt lat="31.3686600" lon="34.5926600">
<ele>77.550003</ele>
<time>2023-01-18T15:57:50.237Z</time>
</trkpt>
<trkpt lat="31.3686600" lon="34.5926600">
<ele>77.550003</ele>
<time>2023-01-18T15:57:50.237Z</time>
</trkpt>
<trkpt lat="31.3686600" lon="34.5926300">
<ele>77.849998</ele>
<time>2023-01-18T15:57:50.237Z</time>
</trkpt>
<trkpt lat="31.3686200" lon="34.5925200">
<ele>78.820000</ele>
<time>2023-01-18T15:57:50.237Z</time>
</trkpt>
<trkpt lat="31.3686400" lon="34.5924300">
<ele>79.759995</ele>
<time>2023-01-18T15:57:50.237Z</time>
</trkpt>
<trkpt lat="31.3687300" lon="34.5922100">
<ele>80.720001</ele>
<time>2023-01-18T15:57:50.237Z</time>
</trkpt>
<trkpt lat="31.3688200" lon="34.5920400">
<ele>79.409996</ele>
<time>2023-01-18T15:57:50.237Z</time>
</trkpt>
<trkpt lat="31.3688400" lon="34.5920200">
<ele>79.060005</ele>
<time>2023-01-18T15:57:50.237Z</time>
</trkpt>
<trkpt lat="31.3689500" lon="34.5918900">
<ele>78.659996</ele>
<time>2023-01-18T15:57:50.237Z</time>
</trkpt>
<trkpt lat="31.3689400" lon="34.5917700">
<ele>79.559998</ele>
<time>2023-01-18T15:57:50.237Z</time>
</trkpt>
<trkpt lat="31.3689200" lon="34.5916700">
<ele>80.199997</ele>
<time>2023-01-18T15:57:50.237Z</time>
</trkpt>
<trkpt lat="31.3688900" lon="34.5915800">
<ele>80.320000</ele>
<time>2023-01-18T15:57:50.237Z</time>
</trkpt>
<trkpt lat="31.3688000" lon="34.5915400">
<ele>81.790001</ele>
<time>2023-01-18T15:57:50.237Z</time>
</trkpt>
<trkpt lat="31.3686900" lon="34.5915600">
<ele>83.579994</ele>
<time>2023-01-18T15:57:50.237Z</time>
</trkpt>
<trkpt lat="31.3686500" lon="34.5915700">
<ele>84.309998</ele>
<time>2023-01-18T15:57:50.237Z</time>
</trkpt>
<trkpt lat="31.3685600" lon="34.5914600">
<ele>85.369995</ele>
<time>2023-01-18T15:57:50.237Z</time>
</trkpt>
<trkpt lat="31.3683500" lon="34.5913900">
<ele>92.389999</ele>
<time>2023-01-18T15:57:50.237Z</time>
</trkpt>
<trkpt lat="31.3680400" lon="34.5913500">
<ele>94.440002</ele>
<time>2023-01-18T15:57:50.237Z</time>
</trkpt>
<trkpt lat="31.3678800" lon="34.5913200">
<ele>92.830002</ele>
<time>2023-01-18T15:57:50.237Z</time>
</trkpt>
<trkpt lat="31.3677200" lon="34.5912300">
<ele>92.000000</ele>
<time>2023-01-18T15:57:50.237Z</time>
</trkpt>
<trkpt lat="31.3676100" lon="34.5911500">
<ele>92.000000</ele>
<time>2023-01-18T15:57:50.237Z</time>
</trkpt>
<trkpt lat="31.3675000" lon="34.5909200">
<ele>92.689995</ele>
<time>2023-01-18T15:57:50.237Z</time>
</trkpt>
<trkpt lat="31.3674300" lon="34.5907300">
<ele>94.150002</ele>
<time>2023-01-18T15:57:50.237Z</time>
</trkpt>
<trkpt lat="31.3673000" lon="34.5905500">
<ele>95.729996</ele>
<time>2023-01-18T15:57:50.237Z</time>
</trkpt>
<trkpt lat="31.3671500" lon="34.5903400">
<ele>97.639999</ele>
<time>2023-01-18T15:57:50.237Z</time>
</trkpt>
<trkpt lat="31.3670500" lon="34.5903000">
<ele>99.250000</ele>
<time>2023-01-18T15:57:50.237Z</time>
</trkpt>
<trkpt lat="31.3668900" lon="34.5902400">
<ele>100.139999</ele>
<time>2023-01-18T15:57:50.237Z</time>
</trkpt>
<trkpt lat="31.3666300" lon="34.5901400">
<ele>98.530006</ele>
<time>2023-01-18T15:57:50.237Z</time>
</trkpt>
<trkpt lat="31.3665200" lon="34.5902100">
<ele>97.050003</ele>
<time>2023-01-18T15:57:50.237Z</time>
</trkpt>
<trkpt lat="31.3664600" lon="34.5902700">
<ele>96.509995</ele>
<time>2023-01-18T15:57:50.237Z</time>
</trkpt>
<trkpt lat="31.3664400" lon="34.5904000">
<ele>96.919998</ele>
<time>2023-01-18T15:57:50.237Z</time>
</trkpt>
<trkpt lat="31.3664100" lon="34.5908600">
<ele>99.180000</ele>
<time>2023-01-18T15:57:50.237Z</time>
</trkpt>
<trkpt lat="31.3663700" lon="34.5917200">
<ele>95.419998</ele>
<time>2023-01-18T15:57:50.237Z</time>
</trkpt>
<trkpt lat="31.3663700" lon="34.5917200">
<ele>95.419998</ele>
<time>2023-01-18T15:57:50.237Z</time>
</trkpt>
<trkpt lat="31.3663700" lon="34.5918000">
<ele>94.249992</ele>
<time>2023-01-18T15:57:50.237Z</time>
</trkpt>
<trkpt lat="31.3663300" lon="34.5919600">
<ele>92.310005</ele>
<time>2023-01-18T15:57:50.237Z</time>
</trkpt>
<trkpt lat="31.3662800" lon="34.5920900">
<ele>91.739998</ele>
<time>2023-01-18T15:57:50.237Z</time>
</trkpt>
<trkpt lat="31.3662300" lon="34.5924500">
<ele>92.429993</ele>
<time>2023-01-18T15:57:50.237Z</time>
</trkpt>
<trkpt lat="31.3660700" lon="34.5926700">
<ele>96.120003</ele>
<time>2023-01-18T15:57:50.237Z</time>
</trkpt>
<trkpt lat="31.3660400" lon="34.5927800">
<ele>97.220001</ele>
<time>2023-01-18T15:57:50.237Z</time>
</trkpt>
<trkpt lat="31.3660500" lon="34.5928800">
<ele>96.849998</ele>
<time>2023-01-18T15:57:50.237Z</time>
</trkpt>
<trkpt lat="31.3661400" lon="34.5929800">
<ele>95.950005</ele>
<time>2023-01-18T15:57:50.237Z</time>
</trkpt>
<trkpt lat="31.3661800" lon="34.5931000">
<ele>93.789993</ele>
<time>2023-01-18T15:57:50.237Z</time>
</trkpt>
<trkpt lat="31.3661800" lon="34.5932500">
<ele>91.359993</ele>
<time>2023-01-18T15:57:50.237Z</time>
</trkpt>
<trkpt lat="31.3661400" lon="34.5936500">
<ele>89.229996</ele>
<time>2023-01-18T15:57:50.237Z</time>
</trkpt>
<trkpt lat="31.3661200" lon="34.5938600">
<ele>91.649994</ele>
<time>2023-01-18T15:57:50.237Z</time>
</trkpt>
<trkpt lat="31.3660500" lon="34.5939400">
<ele>92.510002</ele>
<time>2023-01-18T15:57:50.237Z</time>
</trkpt>
<trkpt lat="31.3659500" lon="34.5939200">
<ele>92.669998</ele>
<time>2023-01-18T15:57:50.237Z</time>
</trkpt>
<trkpt lat="31.3657500" lon="34.5938600">
<ele>96.829994</ele>
<time>2023-01-18T15:57:50.237Z</time>
</trkpt>
<trkpt lat="31.3655700" lon="34.5936000">
<ele>102.570000</ele>
<time>2023-01-18T15:57:50.237Z</time>
</trkpt>
<trkpt lat="31.3655100" lon="34.5935600">
<ele>102.810005</ele>
<time>2023-01-18T15:57:50.237Z</time>
</trkpt>
<trkpt lat="31.3654500" lon="34.5936200">
<ele>103.809998</ele>
<time>2023-01-18T15:57:50.237Z</time>
</trkpt>
<trkpt lat="31.3654100" lon="34.5936400">
<ele>104.200005</ele>
<time>2023-01-18T15:57:50.237Z</time>
</trkpt>
<trkpt lat="31.3653300" lon="34.5935800">
<ele>104.379997</ele>
<time>2023-01-18T15:57:50.237Z</time>
</trkpt>
<trkpt lat="31.3651500" lon="34.5933600">
<ele>101.859993</ele>
<time>2023-01-18T15:57:50.237Z</time>
</trkpt>
<trkpt lat="31.3650100" lon="34.5931900">
<ele>98.519997</ele>
<time>2023-01-18T15:57:50.237Z</time>
</trkpt>
<trkpt lat="31.3649200" lon="34.5931000">
<ele>97.149994</ele>
<time>2023-01-18T15:57:50.237Z</time>
</trkpt>
<trkpt lat="31.3648600" lon="34.5931800">
<ele>97.609993</ele>
<time>2023-01-18T15:57:50.237Z</time>
</trkpt>
<trkpt lat="31.3649100" lon="34.5933100">
<ele>99.129997</ele>
<time>2023-01-18T15:57:50.237Z</time>
</trkpt>
<trkpt lat="31.3648900" lon="34.5934200">
<ele>99.770004</ele>
<time>2023-01-18T15:57:50.237Z</time>
</trkpt>
<trkpt lat="31.3647900" lon="34.5935100">
<ele>98.949997</ele>
<time>2023-01-18T15:57:50.237Z</time>
</trkpt>
<trkpt lat="31.3645600" lon="34.5935500">
<ele>93.660004</ele>
<time>2023-01-18T15:57:50.237Z</time>
</trkpt>
<trkpt lat="31.3643800" lon="34.5935300">
<ele>88.490005</ele>
<time>2023-01-18T15:57:50.237Z</time>
</trkpt>
<trkpt lat="31.3643600" lon="34.5936500">
<ele>89.209999</ele>
<time>2023-01-18T15:57:50.237Z</time>
</trkpt>
<trkpt lat="31.3644400" lon="34.5938600">
<ele>94.480003</ele>
<time>2023-01-18T15:57:50.237Z</time>
</trkpt>
<trkpt lat="31.3645800" lon="34.5939600">
<ele>95.090004</ele>
<time>2023-01-18T15:57:50.237Z</time>
</trkpt>
<trkpt lat="31.3647500" lon="34.5940500">
<ele>94.280006</ele>
<time>2023-01-18T15:57:50.237Z</time>
</trkpt>
<trkpt lat="31.3648400" lon="34.5941400">
<ele>92.989998</ele>
<time>2023-01-18T15:57:50.237Z</time>
</trkpt>
<trkpt lat="31.3648200" lon="34.5942800">
<ele>91.540001</ele>
<time>2023-01-18T15:57:50.237Z</time>
</trkpt>
<trkpt lat="31.3647900" lon="34.5944500">
<ele>90.259995</ele>
<time>2023-01-18T15:57:50.237Z</time>
</trkpt>
<trkpt lat="31.3648700" lon="34.5948100">
<ele>91.969994</ele>
<time>2023-01-18T15:57:50.237Z</time>
</trkpt>
<trkpt lat="31.3649300" lon="34.5949500">
<ele>93.870003</ele>
<time>2023-01-18T15:57:50.237Z</time>
</trkpt>
<trkpt lat="31.3650300" lon="34.5950700">
<ele>94.680000</ele>
<time>2023-01-18T15:57:50.237Z</time>
</trkpt>
<trkpt lat="31.3651300" lon="34.5951000">
<ele>94.010002</ele>
<time>2023-01-18T15:57:50.237Z</time>
</trkpt>
<trkpt lat="31.3651700" lon="34.5952200">
<ele>95.820000</ele>
<time>2023-01-18T15:57:50.237Z</time>
</trkpt>
<trkpt lat="31.3651300" lon="34.5953300">
<ele>96.500000</ele>
<time>2023-01-18T15:57:50.237Z</time>
</trkpt>
<trkpt lat="31.3650800" lon="34.5954100">
<ele>96.199997</ele>
<time>2023-01-18T15:57:50.237Z</time>
</trkpt>
<trkpt lat="31.3650900" lon="34.5955000">
<ele>96.509995</ele>
<time>2023-01-18T15:57:50.237Z</time>
</trkpt>
<trkpt lat="31.3651300" lon="34.5956100">
<ele>96.750000</ele>
<time>2023-01-18T15:57:50.237Z</time>
</trkpt>
<trkpt lat="31.3651100" lon="34.5957700">
<ele>96.180000</ele>
<time>2023-01-18T15:57:50.237Z</time>
</trkpt>
<trkpt lat="31.3651300" lon="34.5958800">
<ele>95.929993</ele>
<time>2023-01-18T15:57:50.237Z</time>
</trkpt>
<trkpt lat="31.3651500" lon="34.5959800">
<ele>95.670006</ele>
<time>2023-01-18T15:57:50.237Z</time>
</trkpt>
<trkpt lat="31.3650600" lon="34.5961100">
<ele>96.349998</ele>
<time>2023-01-18T15:57:50.237Z</time>
</trkpt>
<trkpt lat="31.3648800" lon="34.5963200">
<ele>93.019997</ele>
<time>2023-01-18T15:57:50.237Z</time>
</trkpt>
<trkpt lat="31.3648900" lon="34.5966000">
<ele>91.260002</ele>
<time>2023-01-18T15:57:50.237Z</time>
</trkpt>
<trkpt lat="31.3648200" lon="34.5968700">
<ele>87.610001</ele>
<time>2023-01-18T15:57:50.237Z</time>
</trkpt>
<trkpt lat="31.3646000" lon="34.5968000">
<ele>86.550003</ele>
<time>2023-01-18T15:57:50.237Z</time>
</trkpt>
<trkpt lat="31.3642200" lon="34.5966000">
<ele>87.470001</ele>
<time>2023-01-18T15:57:50.237Z</time>
</trkpt>
<trkpt lat="31.3641000" lon="34.5966400">
<ele>88.840004</ele>
<time>2023-01-18T15:57:50.237Z</time>
</trkpt>
<trkpt lat="31.3640300" lon="34.5966900">
<ele>90.470001</ele>
<time>2023-01-18T15:57:50.237Z</time>
</trkpt>
<trkpt lat="31.3640400" lon="34.5967300">
<ele>91.209999</ele>
<time>2023-01-18T15:57:50.237Z</time>
</trkpt>
<trkpt lat="31.3641000" lon="34.5968600">
<ele>93.500008</ele>
<time>2023-01-18T15:57:50.237Z</time>
</trkpt>
<trkpt lat="31.3641900" lon="34.5970100">
<ele>95.090004</ele>
<time>2023-01-18T15:57:50.237Z</time>
</trkpt>
<trkpt lat="31.3641300" lon="34.5972500">
<ele>98.129997</ele>
<time>2023-01-18T15:57:50.237Z</time>
</trkpt>
<trkpt lat="31.3638400" lon="34.5973300">
<ele>95.849998</ele>
<time>2023-01-18T15:57:50.237Z</time>
</trkpt>
<trkpt lat="31.3635500" lon="34.5971500">
<ele>93.789993</ele>
<time>2023-01-18T15:57:50.237Z</time>
</trkpt>
<trkpt lat="31.3631300" lon="34.5970500">
<ele>92.650002</ele>
<time>2023-01-18T15:57:50.237Z</time>
</trkpt>
<trkpt lat="31.3629900" lon="34.5968500">
<ele>90.709999</ele>
<time>2023-01-18T15:57:50.237Z</time>
</trkpt>
<trkpt lat="31.3630100" lon="34.5966500">
<ele>90.800003</ele>
<time>2023-01-18T15:57:50.237Z</time>
</trkpt>
<trkpt lat="31.3629500" lon="34.5965800">
<ele>91.659996</ele>
<time>2023-01-18T15:57:50.237Z</time>
</trkpt>
<trkpt lat="31.3628800" lon="34.5964300">
<ele>92.080002</ele>
<time>2023-01-18T15:57:50.237Z</time>
</trkpt>
<trkpt lat="31.3627600" lon="34.5962300">
<ele>86.340004</ele>
<time>2023-01-18T15:57:50.237Z</time>
</trkpt>
<trkpt lat="31.3625600" lon="34.5960700">
<ele>85.989998</ele>
<time>2023-01-18T15:57:50.237Z</time>
</trkpt>
<trkpt lat="31.3624300" lon="34.5959200">
<ele>85.849998</ele>
<time>2023-01-18T15:57:50.237Z</time>
</trkpt>
<trkpt lat="31.3624300" lon="34.5958000">
<ele>84.730003</ele>
<time>2023-01-18T15:57:50.237Z</time>
</trkpt>
<trkpt lat="31.3625600" lon="34.5956100">
<ele>82.220001</ele>
<time>2023-01-18T15:57:50.237Z</time>
</trkpt>
<trkpt lat="31.3626400" lon="34.5954500">
<ele>82.760002</ele>
<time>2023-01-18T15:57:50.237Z</time>
</trkpt>
<trkpt lat="31.3626400" lon="34.5954100">
<ele>83.050003</ele>
<time>2023-01-18T15:57:50.237Z</time>
</trkpt>
<trkpt lat="31.3627700" lon="34.5951800">
<ele>84.349998</ele>
<time>2023-01-18T15:57:50.237Z</time>
</trkpt>
<trkpt lat="31.3627600" lon="34.5950100">
<ele>84.959999</ele>
<time>2023-01-18T15:57:50.237Z</time>
</trkpt>
<trkpt lat="31.3629100" lon="34.5947500">
<ele>82.720001</ele>
<time>2023-01-18T15:57:50.237Z</time>
</trkpt>
<trkpt lat="31.3629900" lon="34.5947400">
<ele>81.820000</ele>
<time>2023-01-18T15:57:50.237Z</time>
</trkpt>
<trkpt lat="31.3631500" lon="34.5947600">
<ele>81.800003</ele>
<time>2023-01-18T15:57:50.237Z</time>
</trkpt>
<trkpt lat="31.3632400" lon="34.5947100">
<ele>81.559998</ele>
<time>2023-01-18T15:57:50.237Z</time>
</trkpt>
<trkpt lat="31.3633000" lon="34.5944500">
<ele>78.549995</ele>
<time>2023-01-18T15:57:50.237Z</time>
</trkpt>
<trkpt lat="31.3633600" lon="34.5940800">
<ele>79.299995</ele>
<time>2023-01-18T15:57:50.237Z</time>
</trkpt>
<trkpt lat="31.3633700" lon="34.5939400">
<ele>80.489998</ele>
<time>2023-01-18T15:57:50.237Z</time>
</trkpt>
<trkpt lat="31.3636600" lon="34.5937800">
<ele>81.320007</ele>
<time>2023-01-18T15:57:50.237Z</time>
</trkpt>
<trkpt lat="31.3640000" lon="34.5933200">
<ele>78.839996</ele>
<time>2023-01-18T15:57:50.237Z</time>
</trkpt>
<trkpt lat="31.3640400" lon="34.5931500">
<ele>79.330002</ele>
<time>2023-01-18T15:57:50.237Z</time>
</trkpt>
<trkpt lat="31.3640600" lon="34.5930700">
<ele>79.380005</ele>
<time>2023-01-18T15:57:50.237Z</time>
</trkpt>
<trkpt lat="31.3639800" lon="34.5930400">
<ele>79.820000</ele>
<time>2023-01-18T15:57:50.237Z</time>
</trkpt>
<trkpt lat="31.3638400" lon="34.5931600">
<ele>80.479996</ele>
<time>2023-01-18T15:57:50.237Z</time>
</trkpt>
<trkpt lat="31.3637700" lon="34.5931900">
<ele>82.029999</ele>
<time>2023-01-18T15:57:50.237Z</time>
</trkpt>
<trkpt lat="31.3636700" lon="34.5931000">
<ele>85.199997</ele>
<time>2023-01-18T15:57:50.237Z</time>
</trkpt>
<trkpt lat="31.3636800" lon="34.5929800">
<ele>85.669998</ele>
<time>2023-01-18T15:57:50.237Z</time>
</trkpt>
<trkpt lat="31.3637200" lon="34.5928500">
<ele>85.580002</ele>
<time>2023-01-18T15:57:50.237Z</time>
</trkpt>
<trkpt lat="31.3637100" lon="34.5927800">
<ele>86.210007</ele>
<time>2023-01-18T15:57:50.237Z</time>
</trkpt>
<trkpt lat="31.3637200" lon="34.5924400">
<ele>88.780006</ele>
<time>2023-01-18T15:57:50.237Z</time>
</trkpt>
<trkpt lat="31.3639500" lon="34.5922300">
<ele>86.009995</ele>
<time>2023-01-18T15:57:50.237Z</time>
</trkpt>
<trkpt lat="31.3639500" lon="34.5922300">
<ele>86.009995</ele>
<time>2023-01-18T15:57:50.237Z</time>
</trkpt>
<trkpt lat="31.3640100" lon="34.5921800">
<ele>84.210007</ele>
<time>2023-01-18T15:57:50.237Z</time>
</trkpt>
<trkpt lat="31.3640800" lon="34.5920300">
<ele>82.760002</ele>
<time>2023-01-18T15:57:50.237Z</time>
</trkpt>
<trkpt lat="31.3640700" lon="34.5918200">
<ele>83.419998</ele>
<time>2023-01-18T15:57:50.237Z</time>
</trkpt>
<trkpt lat="31.3641100" lon="34.5915900">
<ele>82.979996</ele>
<time>2023-01-18T15:57:50.237Z</time>
</trkpt>
<trkpt lat="31.3643100" lon="34.5916200">
<ele>80.450005</ele>
<time>2023-01-18T15:57:50.237Z</time>
</trkpt>
<trkpt lat="31.3644200" lon="34.5914100">
<ele>78.500000</ele>
<time>2023-01-18T15:57:50.237Z</time>
</trkpt>
<trkpt lat="31.3645700" lon="34.5914700">
<ele>80.570000</ele>
<time>2023-01-18T15:57:50.237Z</time>
</trkpt>
<trkpt lat="31.3646100" lon="34.5914300">
<ele>80.550003</ele>
<time>2023-01-18T15:57:50.237Z</time>
</trkpt>
<trkpt lat="31.3646300" lon="34.5913400">
<ele>79.940002</ele>
<time>2023-01-18T15:57:50.237Z</time>
</trkpt>
<trkpt lat="31.3646900" lon="34.5909800">
<ele>79.989998</ele>
<time>2023-01-18T15:57:50.237Z</time>
</trkpt>
<trkpt lat="31.3647200" lon="34.5906300">
<ele>81.470001</ele>
<time>2023-01-18T15:57:50.237Z</time>
</trkpt>
<trkpt lat="31.3647200" lon="34.5904900">
<ele>82.010002</ele>
<time>2023-01-18T15:57:50.237Z</time>
</trkpt>
<trkpt lat="31.3647900" lon="34.5904700">
<ele>82.080002</ele>
<time>2023-01-18T15:57:50.237Z</time>
</trkpt>
<trkpt lat="31.3650600" lon="34.5900200">
<ele>83.409996</ele>
<time>2023-01-18T15:57:50.237Z</time>
</trkpt>
<trkpt lat="31.3651500" lon="34.5897500">
<ele>83.440002</ele>
<time>2023-01-18T15:57:50.237Z</time>
</trkpt>
<trkpt lat="31.3651800" lon="34.5895700">
<ele>82.270004</ele>
<time>2023-01-18T15:57:50.237Z</time>
</trkpt>
<trkpt lat="31.3651500" lon="34.5894900">
<ele>81.050003</ele>
<time>2023-01-18T15:57:50.237Z</time>
</trkpt>
<trkpt lat="31.3651900" lon="34.5892500">
<ele>78.919998</ele>
<time>2023-01-18T15:57:50.237Z</time>
</trkpt>
<trkpt lat="31.3651400" lon="34.5890200">
<ele>78.260002</ele>
<time>2023-01-18T15:57:50.237Z</time>
</trkpt>
<trkpt lat="31.3647800" lon="34.5889600">
<ele>85.820000</ele>
<time>2023-01-18T15:57:50.237Z</time>
</trkpt>
<trkpt lat="31.3646500" lon="34.5889400">
<ele>87.799995</ele>
<time>2023-01-18T15:57:50.237Z</time>
</trkpt>
<trkpt lat="31.3644600" lon="34.5885300">
<ele>90.529999</ele>
<time>2023-01-18T15:57:50.237Z</time>
</trkpt>
<trkpt lat="31.3645500" lon="34.5884600">
<ele>90.470001</ele>
<time>2023-01-18T15:57:50.237Z</time>
</trkpt>
<trkpt lat="31.3647100" lon="34.5885700">
<ele>89.870003</ele>
<time>2023-01-18T15:57:50.237Z</time>
</trkpt>
<trkpt lat="31.3649300" lon="34.5886800">
<ele>84.639999</ele>
<time>2023-01-18T15:57:50.237Z</time>
</trkpt>
<trkpt lat="31.3650100" lon="34.5883000">
<ele>86.380005</ele>
<time>2023-01-18T15:57:50.237Z</time>
</trkpt>
<trkpt lat="31.3651100" lon="34.5879400">
<ele>89.250000</ele>
<time>2023-01-18T15:57:50.237Z</time>
</trkpt>
<trkpt lat="31.3652200" lon="34.5877500">
<ele>89.029999</ele>
<time>2023-01-18T15:57:50.237Z</time>
</trkpt>
<trkpt lat="31.3651800" lon="34.5876100">
<ele>86.099998</ele>
<time>2023-01-18T15:57:50.237Z</time>
</trkpt>
<trkpt lat="31.3650700" lon="34.5874500">
<ele>83.549995</ele>
<time>2023-01-18T15:57:50.237Z</time>
</trkpt>
<trkpt lat="31.3649200" lon="34.5869100">
<ele>80.450005</ele>
<time>2023-01-18T15:57:50.237Z</time>
</trkpt>
<trkpt lat="31.3649000" lon="34.5868200">
<ele>79.779999</ele>
<time>2023-01-18T15:57:50.237Z</time>
</trkpt>
<trkpt lat="31.3649000" lon="34.5868200">
<ele>79.779999</ele>
<time>2023-01-18T15:57:50.237Z</time>
</trkpt>
<trkpt lat="31.3648300" lon="34.5863800">
<ele>78.239998</ele>
<time>2023-01-18T15:57:50.237Z</time>
</trkpt>
<trkpt lat="31.3648600" lon="34.5861100">
<ele>78.500000</ele>
<time>2023-01-18T15:57:50.237Z</time>
</trkpt>
<trkpt lat="31.3649000" lon="34.5858600">
<ele>77.709999</ele>
<time>2023-01-18T15:57:50.237Z</time>
</trkpt>
<trkpt lat="31.3648600" lon="34.5857600">
<ele>77.630005</ele>
<time>2023-01-18T15:57:50.237Z</time>
</trkpt>
<trkpt lat="31.3647400" lon="34.5856700">
<ele>77.099998</ele>
<time>2023-01-18T15:57:50.237Z</time>
</trkpt>
<trkpt lat="31.3643600" lon="34.5853800">
<ele>88.790001</ele>
<time>2023-01-18T15:57:50.237Z</time>
</trkpt>
<trkpt lat="31.3641800" lon="34.5851400">
<ele>93.700005</ele>
<time>2023-01-18T15:57:50.237Z</time>
</trkpt>
<trkpt lat="31.3639500" lon="34.5850800">
<ele>93.380005</ele>
<time>2023-01-18T15:57:50.237Z</time>
</trkpt>
<trkpt lat="31.3638900" lon="34.5849000">
<ele>89.840004</ele>
<time>2023-01-18T15:57:50.237Z</time>
</trkpt>
<trkpt lat="31.3639600" lon="34.5847100">
<ele>86.389999</ele>
<time>2023-01-18T15:57:50.237Z</time>
</trkpt>
<trkpt lat="31.3639000" lon="34.5846500">
<ele>85.310005</ele>
<time>2023-01-18T15:57:50.237Z</time>
</trkpt>
<trkpt lat="31.3637300" lon="34.5845300">
<ele>82.959999</ele>
<time>2023-01-18T15:57:50.237Z</time>
</trkpt>
<trkpt lat="31.3637300" lon="34.5844500">
<ele>81.930000</ele>
<time>2023-01-18T15:57:50.237Z</time>
</trkpt>
<trkpt lat="31.3637800" lon="34.5842900">
<ele>79.889999</ele>
<time>2023-01-18T15:57:50.237Z</time>
</trkpt>
<trkpt lat="31.3638100" lon="34.5842500">
<ele>79.739998</ele>
<time>2023-01-18T15:57:50.237Z</time>
</trkpt>
<trkpt lat="31.3638900" lon="34.5841900">
<ele>80.250008</ele>
<time>2023-01-18T15:57:50.237Z</time>
</trkpt>
<trkpt lat="31.3639000" lon="34.5841100">
<ele>78.979996</ele>
<time>2023-01-18T15:57:50.237Z</time>
</trkpt>
<trkpt lat="31.3639500" lon="34.5840300">
<ele>77.540001</ele>
<time>2023-01-18T15:57:50.237Z</time>
</trkpt>
<trkpt lat="31.3640300" lon="34.5839900">
<ele>76.820000</ele>
<time>2023-01-18T15:57:50.237Z</time>
</trkpt>
<trkpt lat="31.3641200" lon="34.5839700">
<ele>76.459999</ele>
<time>2023-01-18T15:57:50.237Z</time>
</trkpt>
<trkpt lat="31.3641700" lon="34.5841500">
<ele>79.699997</ele>
<time>2023-01-18T15:57:50.237Z</time>
</trkpt>
<trkpt lat="31.3642500" lon="34.5841900">
<ele>80.479996</ele>
<time>2023-01-18T15:57:50.237Z</time>
</trkpt>
<trkpt lat="31.3645900" lon="34.5840200">
<ele>77.110001</ele>
<time>2023-01-18T15:57:50.237Z</time>
</trkpt>
<trkpt lat="31.3644700" lon="34.5838600">
<ele>74.479996</ele>
<time>2023-01-18T15:57:50.237Z</time>
</trkpt>
<trkpt lat="31.3644500" lon="34.5837800">
<ele>75.560005</ele>
<time>2023-01-18T15:57:50.237Z</time>
</trkpt>
<trkpt lat="31.3644400" lon="34.5837500">
<ele>76.020004</ele>
<time>2023-01-18T15:57:50.237Z</time>
</trkpt>
<trkpt lat="31.3645000" lon="34.5836400">
<ele>77.250000</ele>
<time>2023-01-18T15:57:50.237Z</time>
</trkpt>
<trkpt lat="31.3645800" lon="34.5835600">
<ele>77.029999</ele>
<time>2023-01-18T15:57:50.237Z</time>
</trkpt>
<trkpt lat="31.3646100" lon="34.5833600">
<ele>76.630005</ele>
<time>2023-01-18T15:57:50.237Z</time>
</trkpt>
<trkpt lat="31.3646200" lon="34.5833400">
<ele>76.480003</ele>
<time>2023-01-18T15:57:50.237Z</time>
</trkpt>
<trkpt lat="31.3646400" lon="34.5833000">
<ele>76.489998</ele>
<time>2023-01-18T15:57:50.237Z</time>
</trkpt>
<trkpt lat="31.3647100" lon="34.5832700">
<ele>76.040001</ele>
<time>2023-01-18T15:57:50.237Z</time>
</trkpt>
<trkpt lat="31.3649300" lon="34.5834200">
<ele>72.220001</ele>
<time>2023-01-18T15:57:50.237Z</time>
</trkpt>
<trkpt lat="31.3650400" lon="34.5833900">
<ele>70.680000</ele>
<time>2023-01-18T15:57:50.237Z</time>
</trkpt>
<trkpt lat="31.3654900" lon="34.5837500">
<ele>76.849998</ele>
<time>2023-01-18T15:57:50.237Z</time>
</trkpt>
<trkpt lat="31.3654300" lon="34.5839200">
<ele>73.150002</ele>
<time>2023-01-18T15:57:50.237Z</time>
</trkpt>
<trkpt lat="31.3653900" lon="34.5839800">
<ele>72.220001</ele>
<time>2023-01-18T15:57:50.237Z</time>
</trkpt>
<trkpt lat="31.3654400" lon="34.5840700">
<ele>72.629997</ele>
<time>2023-01-18T15:57:50.237Z</time>
</trkpt>
<trkpt lat="31.3656400" lon="34.5841700">
<ele>75.449997</ele>
<time>2023-01-18T15:57:50.237Z</time>
</trkpt>
<trkpt lat="31.3657300" lon="34.5843600">
<ele>78.099998</ele>
<time>2023-01-18T15:57:50.237Z</time>
</trkpt>
<trkpt lat="31.3658900" lon="34.5843800">
<ele>80.330002</ele>
<time>2023-01-18T15:57:50.237Z</time>
</trkpt>
<trkpt lat="31.3663700" lon="34.5842800">
<ele>80.330002</ele>
<time>2023-01-18T15:57:50.237Z</time>
</trkpt>
<trkpt lat="31.3664300" lon="34.5843600">
<ele>81.040001</ele>
<time>2023-01-18T15:57:50.237Z</time>
</trkpt>
<trkpt lat="31.3664300" lon="34.5843600">
<ele>81.040001</ele>
<time>2023-01-18T15:57:50.237Z</time>
</trkpt>
<trkpt lat="31.3664300" lon="34.5843600">
<ele>81.040001</ele>
<time>2023-01-18T15:57:50.237Z</time>
</trkpt>
<trkpt lat="31.3664600" lon="34.5843900">
<ele>81.360001</ele>
<time>2023-01-18T15:57:50.237Z</time>
</trkpt>
<trkpt lat="31.3664500" lon="34.5846600">
<ele>81.739998</ele>
<time>2023-01-18T15:57:50.237Z</time>
</trkpt>
<trkpt lat="31.3663100" lon="34.5847500">
<ele>80.790001</ele>
<time>2023-01-18T15:57:50.237Z</time>
</trkpt>
<trkpt lat="31.3663200" lon="34.5849200">
<ele>81.289993</ele>
<time>2023-01-18T15:57:50.237Z</time>
</trkpt>
<trkpt lat="31.3662800" lon="34.5849800">
<ele>81.170006</ele>
<time>2023-01-18T15:57:50.237Z</time>
</trkpt>
<trkpt lat="31.3662600" lon="34.5851800">
<ele>80.820000</ele>
<time>2023-01-18T15:57:50.237Z</time>
</trkpt>
<trkpt lat="31.3660900" lon="34.5855500">
<ele>78.680000</ele>
<time>2023-01-18T15:57:50.237Z</time>
</trkpt>
<trkpt lat="31.3660700" lon="34.5857700">
<ele>79.070000</ele>
<time>2023-01-18T15:57:50.237Z</time>
</trkpt>
<trkpt lat="31.3662600" lon="34.5859500">
<ele>79.419998</ele>
<time>2023-01-18T15:57:50.237Z</time>
</trkpt>
<trkpt lat="31.3661800" lon="34.5861400">
<ele>77.669998</ele>
<time>2023-01-18T15:57:50.237Z</time>
</trkpt>
<trkpt lat="31.3661800" lon="34.5864200">
<ele>77.080002</ele>
<time>2023-01-18T15:57:50.237Z</time>
</trkpt>
<trkpt lat="31.3661800" lon="34.5864200">
<ele>77.080002</ele>
<time>2023-01-18T15:57:50.237Z</time>
</trkpt>
<trkpt lat="31.3662900" lon="34.5866700">
<ele>78.959999</ele>
<time>2023-01-18T15:57:50.237Z</time>
</trkpt>
<trkpt lat="31.3666300" lon="34.5869100">
<ele>84.459999</ele>
<time>2023-01-18T15:57:50.237Z</time>
</trkpt>
<trkpt lat="31.3666400" lon="34.5874300">
<ele>84.400002</ele>
<time>2023-01-18T15:57:50.237Z</time>
</trkpt>
<trkpt lat="31.3666600" lon="34.5876100">
<ele>81.940002</ele>
<time>2023-01-18T15:57:50.237Z</time>
</trkpt>
<trkpt lat="31.3666700" lon="34.5877600">
<ele>79.340004</ele>
<time>2023-01-18T15:57:50.237Z</time>
</trkpt>
<trkpt lat="31.3667200" lon="34.5878900">
<ele>78.650002</ele>
<time>2023-01-18T15:57:50.237Z</time>
</trkpt>
<trkpt lat="31.3668600" lon="34.5878600">
<ele>80.010002</ele>
<time>2023-01-18T15:57:50.237Z</time>
</trkpt>
<trkpt lat="31.3669200" lon="34.5878600">
<ele>80.500000</ele>
<time>2023-01-18T15:57:50.237Z</time>
</trkpt>
<trkpt lat="31.3671700" lon="34.5878800">
<ele>82.260002</ele>
<time>2023-01-18T15:57:50.237Z</time>
</trkpt>
<trkpt lat="31.3672500" lon="34.5876300">
<ele>82.300003</ele>
<time>2023-01-18T15:57:50.237Z</time>
</trkpt>
<trkpt lat="31.3673100" lon="34.5874300">
<ele>80.659996</ele>
<time>2023-01-18T15:57:50.237Z</time>
</trkpt>
<trkpt lat="31.3674100" lon="34.5873000">
<ele>80.079994</ele>
<time>2023-01-18T15:57:50.237Z</time>
</trkpt>
<trkpt lat="31.3676900" lon="34.5871800">
<ele>79.330002</ele>
<time>2023-01-18T15:57:50.237Z</time>
</trkpt>
<trkpt lat="31.3679200" lon="34.5871500">
<ele>80.349998</ele>
<time>2023-01-18T15:57:50.237Z</time>
</trkpt>
<trkpt lat="31.3684600" lon="34.5872800">
<ele>86.879997</ele>
<time>2023-01-18T15:57:50.237Z</time>
</trkpt>
<trkpt lat="31.3687300" lon="34.5871700">
<ele>87.740005</ele>
<time>2023-01-18T15:57:50.237Z</time>
</trkpt>
<trkpt lat="31.3691400" lon="34.5872400">
<ele>92.000000</ele>
<time>2023-01-18T15:57:50.237Z</time>
</trkpt>
<trkpt lat="31.3696800" lon="34.5880000">
<ele>92.849998</ele>
<time>2023-01-18T15:57:50.237Z</time>
</trkpt>
<trkpt lat="31.3701700" lon="34.5891400">
<ele>80.689995</ele>
<time>2023-01-18T15:57:50.237Z</time>
</trkpt>
<trkpt lat="31.3701600" lon="34.5893800">
<ele>82.110001</ele>
<time>2023-01-18T15:57:50.237Z</time>
</trkpt>
<trkpt lat="31.3703200" lon="34.5899200">
<ele>85.510002</ele>
<time>2023-01-18T15:57:50.237Z</time>
</trkpt>
<trkpt lat="31.3705300" lon="34.5901100">
<ele>87.209999</ele>
<time>2023-01-18T15:57:50.237Z</time>
</trkpt>
<trkpt lat="31.3708300" lon="34.5899800">
<ele>88.070000</ele>
<time>2023-01-18T15:57:50.237Z</time>
</trkpt>
<trkpt lat="31.3709300" lon="34.5901200">
<ele>87.300003</ele>
<time>2023-01-18T15:57:50.237Z</time>
</trkpt>
<trkpt lat="31.3708800" lon="34.5902800">
<ele>87.639999</ele>
<time>2023-01-18T15:57:50.237Z</time>
</trkpt>
<trkpt lat="31.3708900" lon="34.5903600">
<ele>86.709999</ele>
<time>2023-01-18T15:57:50.237Z</time>
</trkpt>
<trkpt lat="31.3710900" lon="34.5905600">
<ele>86.739998</ele>
<time>2023-01-18T15:57:50.237Z</time>
</trkpt>
<trkpt lat="31.3710900" lon="34.5906000">
<ele>86.479996</ele>
<time>2023-01-18T15:57:50.237Z</time>
</trkpt>
<trkpt lat="31.3711300" lon="34.5909100">
<ele>86.019997</ele>
<time>2023-01-18T15:57:50.237Z</time>
</trkpt>
<trkpt lat="31.3712000" lon="34.5912200">
<ele>89.730003</ele>
<time>2023-01-18T15:57:50.237Z</time>
</trkpt>
<trkpt lat="31.3711700" lon="34.5914000">
<ele>89.150002</ele>
<time>2023-01-18T15:57:50.237Z</time>
</trkpt>
<trkpt lat="31.3712100" lon="34.5915200">
<ele>88.720001</ele>
<time>2023-01-18T15:57:50.237Z</time>
</trkpt>
<trkpt lat="31.3710600" lon="34.5916800">
<ele>85.229996</ele>
<time>2023-01-18T15:57:50.237Z</time>
</trkpt>
<trkpt lat="31.3708800" lon="34.5917100">
<ele>86.820000</ele>
<time>2023-01-18T15:57:50.237Z</time>
</trkpt>
<trkpt lat="31.3707300" lon="34.5916400">
<ele>86.479996</ele>
<time>2023-01-18T15:57:50.237Z</time>
</trkpt>
<trkpt lat="31.3705800" lon="34.5915200">
<ele>86.709999</ele>
<time>2023-01-18T15:57:50.237Z</time>
</trkpt>
<trkpt lat="31.3702600" lon="34.5913600">
<ele>85.059998</ele>
<time>2023-01-18T15:57:50.237Z</time>
</trkpt>
<trkpt lat="31.3701200" lon="34.5914100">
<ele>81.129997</ele>
<time>2023-01-18T15:57:50.237Z</time>
</trkpt>
<trkpt lat="31.3701100" lon="34.5914700">
<ele>81.250000</ele>
<time>2023-01-18T15:57:50.237Z</time>
</trkpt>
<trkpt lat="31.3701100" lon="34.5914700">
<ele>81.250000</ele>
<time>2023-01-18T15:57:50.237Z</time>
</trkpt>
<trkpt lat="31.3700700" lon="34.5916500">
<ele>82.100006</ele>
<time>2023-01-18T15:57:50.237Z</time>
</trkpt>
<trkpt lat="31.3702200" lon="34.5918200">
<ele>84.559998</ele>
<time>2023-01-18T15:57:50.237Z</time>
</trkpt>
<trkpt lat="31.3702500" lon="34.5919400">
<ele>85.949997</ele>
<time>2023-01-18T15:57:50.237Z</time>
</trkpt>
<trkpt lat="31.3702100" lon="34.5920200">
<ele>87.089996</ele>
<time>2023-01-18T15:57:50.237Z</time>
</trkpt>
<trkpt lat="31.3701100" lon="34.5920900">
<ele>88.099998</ele>
<time>2023-01-18T15:57:50.237Z</time>
</trkpt>
<trkpt lat="31.3700800" lon="34.5922000">
<ele>89.679993</ele>
<time>2023-01-18T15:57:50.237Z</time>
</trkpt>
<trkpt lat="31.3701700" lon="34.5925600">
<ele>90.269997</ele>
<time>2023-01-18T15:57:50.237Z</time>
</trkpt>
<trkpt lat="31.3701300" lon="34.5927600">
<ele>90.860001</ele>
<time>2023-01-18T15:57:50.237Z</time>
</trkpt>
<trkpt lat="31.3702200" lon="34.5929400">
<ele>92.070000</ele>
<time>2023-01-18T15:57:50.237Z</time>
</trkpt>
<trkpt lat="31.3702400" lon="34.5931300">
<ele>92.070000</ele>
<time>2023-01-18T15:57:50.237Z</time>
</trkpt>
<trkpt lat="31.3703000" lon="34.5932100">
<ele>91.709999</ele>
<time>2023-01-18T15:57:50.237Z</time>
</trkpt>
<trkpt lat="31.3705300" lon="34.5933200">
<ele>87.590004</ele>
<time>2023-01-18T15:57:50.237Z</time>
</trkpt>
<trkpt lat="31.3706400" lon="34.5935100">
<ele>84.949997</ele>
<time>2023-01-18T15:57:50.237Z</time>
</trkpt>
<trkpt lat="31.3707400" lon="34.5936000">
<ele>82.750000</ele>
<time>2023-01-18T15:57:50.237Z</time>
</trkpt>
<trkpt lat="31.3713000" lon="34.5941100">
<ele>77.410004</ele>
<time>2023-01-18T15:57:50.237Z</time>
</trkpt>
<trkpt lat="31.3715400" lon="34.5948200">
<ele>87.349998</ele>
<time>2023-01-18T15:57:50.237Z</time>
</trkpt>
<trkpt lat="31.3716300" lon="34.5951600">
<ele>87.019997</ele>
<time>2023-01-18T15:57:50.237Z</time>
</trkpt>
<trkpt lat="31.3717300" lon="34.5952800">
<ele>85.290001</ele>
<time>2023-01-18T15:57:50.237Z</time>
</trkpt>
<trkpt lat="31.3720000" lon="34.5955800">
<ele>84.349998</ele>
<time>2023-01-18T15:57:50.237Z</time>
</trkpt>
<trkpt lat="31.3721100" lon="34.5957900">
<ele>88.970001</ele>
<time>2023-01-18T15:57:50.237Z</time>
</trkpt>
<trkpt lat="31.3722300" lon="34.5960800">
<ele>88.909996</ele>
<time>2023-01-18T15:57:50.237Z</time>
</trkpt>
<trkpt lat="31.3723700" lon="34.5962300">
<ele>85.300003</ele>
<time>2023-01-18T15:57:50.237Z</time>
</trkpt>
<trkpt lat="31.3724800" lon="34.5967300">
<ele>86.520004</ele>
<time>2023-01-18T15:57:50.237Z</time>
</trkpt>
<trkpt lat="31.3725500" lon="34.5970000">
<ele>85.740005</ele>
<time>2023-01-18T15:57:50.237Z</time>
</trkpt>
<trkpt lat="31.3727500" lon="34.5974200">
<ele>79.699997</ele>
<time>2023-01-18T15:57:50.237Z</time>
</trkpt>
<trkpt lat="31.3727500" lon="34.5974200">
<ele>79.699997</ele>
<time>2023-01-18T15:57:50.237Z</time>
</trkpt>
<trkpt lat="31.3727700" lon="34.5974500">
<ele>79.279999</ele>
<time>2023-01-18T15:57:50.237Z</time>
</trkpt>
<trkpt lat="31.3729200" lon="34.5977100">
<ele>79.630005</ele>
<time>2023-01-18T15:57:50.237Z</time>
</trkpt>
<trkpt lat="31.3730200" lon="34.5977300">
<ele>79.680000</ele>
<time>2023-01-18T15:57:50.237Z</time>
</trkpt>
<trkpt lat="31.3731600" lon="34.5977200">
<ele>81.460007</ele>
<time>2023-01-18T15:57:50.237Z</time>
</trkpt>
<trkpt lat="31.3731800" lon="34.5976900">
<ele>81.609993</ele>
<time>2023-01-18T15:57:50.237Z</time>
</trkpt>
<trkpt lat="31.3734400" lon="34.5977300">
<ele>86.439995</ele>
<time>2023-01-18T15:57:50.237Z</time>
</trkpt>
<trkpt lat="31.3737400" lon="34.5980100">
<ele>96.189995</ele>
<time>2023-01-18T15:57:50.237Z</time>
</trkpt>
<trkpt lat="31.3740600" lon="34.5983200">
<ele>105.690002</ele>
<time>2023-01-18T15:57:50.237Z</time>
</trkpt>
<trkpt lat="31.3741700" lon="34.5985000">
<ele>103.000000</ele>
<time>2023-01-18T15:57:50.237Z</time>
</trkpt>
<trkpt lat="31.3742800" lon="34.5987100">
<ele>101.389999</ele>
<time>2023-01-18T15:57:50.237Z</time>
</trkpt>
<trkpt lat="31.3744400" lon="34.5988800">
<ele>102.939995</ele>
<time>2023-01-18T15:57:50.237Z</time>
</trkpt>
<trkpt lat="31.3746800" lon="34.5990100">
<ele>106.279999</ele>
<time>2023-01-18T15:57:50.237Z</time>
</trkpt>
<trkpt lat="31.3749300" lon="34.5991900">
<ele>108.620003</ele>
<time>2023-01-18T15:57:50.237Z</time>
</trkpt>
<trkpt lat="31.3753900" lon="34.5995400">
<ele>101.680000</ele>
<time>2023-01-18T15:57:50.237Z</time>
</trkpt>
<trkpt lat="31.3755600" lon="34.5998100">
<ele>96.849998</ele>
<time>2023-01-18T15:57:50.237Z</time>
</trkpt>
<trkpt lat="31.3757900" lon="34.5999000">
<ele>100.230003</ele>
<time>2023-01-18T15:57:50.237Z</time>
</trkpt>
<trkpt lat="31.3759900" lon="34.5998200">
<ele>101.900002</ele>
<time>2023-01-18T15:57:50.237Z</time>
</trkpt>
<trkpt lat="31.3761400" lon="34.5997700">
<ele>101.910004</ele>
<time>2023-01-18T15:57:50.237Z</time>
</trkpt>
<trkpt lat="31.3761800" lon="34.5997500">
<ele>102.260002</ele>
<time>2023-01-18T15:57:50.237Z</time>
</trkpt>
<trkpt lat="31.3762700" lon="34.5998000">
<ele>104.480003</ele>
<time>2023-01-18T15:57:50.237Z</time>
</trkpt>
<trkpt lat="31.3763300" lon="34.6001000">
<ele>105.470001</ele>
<time>2023-01-18T15:57:50.237Z</time>
</trkpt>
<trkpt lat="31.3762600" lon="34.6002100">
<ele>106.020004</ele>
<time>2023-01-18T15:57:50.237Z</time>
</trkpt>
<trkpt lat="31.3763000" lon="34.6003100">
<ele>105.969994</ele>
<time>2023-01-18T15:57:50.237Z</time>
</trkpt>
<trkpt lat="31.3764800" lon="34.6004200">
<ele>106.940002</ele>
<time>2023-01-18T15:57:50.237Z</time>
</trkpt>
<trkpt lat="31.3765400" lon="34.6004900">
<ele>107.010002</ele>
<time>2023-01-18T15:57:50.237Z</time>
</trkpt>
<trkpt lat="31.3765400" lon="34.6004900">
<ele>107.010002</ele>
<time>2023-01-18T15:57:50.237Z</time>
</trkpt>
<trkpt lat="31.3768100" lon="34.6008700">
<ele>103.019997</ele>
<time>2023-01-18T15:57:50.237Z</time>
</trkpt>
<trkpt lat="31.3773400" lon="34.6012800">
<ele>106.749992</ele>
<time>2023-01-18T15:57:50.237Z</time>
</trkpt>
<trkpt lat="31.3776100" lon="34.6015900">
<ele>107.189995</ele>
<time>2023-01-18T15:57:50.237Z</time>
</trkpt>
<trkpt lat="31.3778900" lon="34.6020500">
<ele>107.059998</ele>
<time>2023-01-18T15:57:50.237Z</time>
</trkpt>
<trkpt lat="31.3779200" lon="34.6022800">
<ele>106.460007</ele>
<time>2023-01-18T15:57:50.237Z</time>
</trkpt>
<trkpt lat="31.3780100" lon="34.6023100">
<ele>105.860001</ele>
<time>2023-01-18T15:57:50.237Z</time>
</trkpt>
<trkpt lat="31.3781500" lon="34.6024200">
<ele>104.989998</ele>
<time>2023-01-18T15:57:50.237Z</time>
</trkpt>
<trkpt lat="31.3783800" lon="34.6026700">
<ele>104.030006</ele>
<time>2023-01-18T15:57:50.237Z</time>
</trkpt>
<trkpt lat="31.3785700" lon="34.6029500">
<ele>101.610001</ele>
<time>2023-01-18T15:57:50.237Z</time>
</trkpt>
<trkpt lat="31.3787300" lon="34.6030800">
<ele>99.269997</ele>
<time>2023-01-18T15:57:50.237Z</time>
</trkpt>
<trkpt lat="31.3788800" lon="34.6029800">
<ele>95.119995</ele>
<time>2023-01-18T15:57:50.237Z</time>
</trkpt>
<trkpt lat="31.3791100" lon="34.6026400">
<ele>94.800003</ele>
<time>2023-01-18T15:57:50.237Z</time>
</trkpt>
<trkpt lat="31.3792200" lon="34.6023500">
<ele>97.449997</ele>
<time>2023-01-18T15:57:50.237Z</time>
</trkpt>
<trkpt lat="31.3792700" lon="34.6021100">
<ele>99.559998</ele>
<time>2023-01-18T15:57:50.237Z</time>
</trkpt>
<trkpt lat="31.3793700" lon="34.6020400">
<ele>101.900002</ele>
<time>2023-01-18T15:57:50.237Z</time>
</trkpt>
<trkpt lat="31.3794500" lon="34.6020500">
<ele>104.430000</ele>
<time>2023-01-18T15:57:50.237Z</time>
</trkpt>
<trkpt lat="31.3795100" lon="34.6021300">
<ele>107.739998</ele>
<time>2023-01-18T15:57:50.237Z</time>
</trkpt>
<trkpt lat="31.3797200" lon="34.6025700">
<ele>116.199997</ele>
<time>2023-01-18T15:57:50.237Z</time>
</trkpt>
<trkpt lat="31.3799900" lon="34.6030500">
<ele>116.840004</ele>
<time>2023-01-18T15:57:50.237Z</time>
</trkpt>
<trkpt lat="31.3799900" lon="34.6033000">
<ele>117.669998</ele>
<time>2023-01-18T15:57:50.237Z</time>
</trkpt>
<trkpt lat="31.3800800" lon="34.6036400">
<ele>118.129997</ele>
<time>2023-01-18T15:57:50.237Z</time>
</trkpt>
<trkpt lat="31.3801000" lon="34.6038900">
<ele>119.360001</ele>
<time>2023-01-18T15:57:50.237Z</time>
</trkpt>
<trkpt lat="31.3800700" lon="34.6040800">
<ele>119.079994</ele>
<time>2023-01-18T15:57:50.237Z</time>
</trkpt>
<trkpt lat="31.3800900" lon="34.6043700">
<ele>114.629997</ele>
<time>2023-01-18T15:57:50.237Z</time>
</trkpt>
<trkpt lat="31.3802600" lon="34.6045300">
<ele>107.560005</ele>
<time>2023-01-18T15:57:50.237Z</time>
</trkpt>
<trkpt lat="31.3802500" lon="34.6046400">
<ele>103.059998</ele>
<time>2023-01-18T15:57:50.237Z</time>
</trkpt>
<trkpt lat="31.3800800" lon="34.6046900">
<ele>104.419998</ele>
<time>2023-01-18T15:57:50.237Z</time>
</trkpt>
<trkpt lat="31.3797500" lon="34.6046100">
<ele>110.949997</ele>
<time>2023-01-18T15:57:50.237Z</time>
</trkpt>
<trkpt lat="31.3795500" lon="34.6044600">
<ele>112.320000</ele>
<time>2023-01-18T15:57:50.237Z</time>
</trkpt>
<trkpt lat="31.3795300" lon="34.6045000">
<ele>112.120003</ele>
<time>2023-01-18T15:57:50.237Z</time>
</trkpt>
<trkpt lat="31.3795300" lon="34.6045000">
<ele>112.120003</ele>
<time>2023-01-18T15:57:50.237Z</time>
</trkpt>
<trkpt lat="31.3795700" lon="34.6046500">
<ele>111.449997</ele>
<time>2023-01-18T15:57:50.237Z</time>
</trkpt>
<trkpt lat="31.3795000" lon="34.6047000">
<ele>111.650002</ele>
<time>2023-01-18T15:57:50.237Z</time>
</trkpt>
<trkpt lat="31.3793600" lon="34.6046500">
<ele>110.639999</ele>
<time>2023-01-18T15:57:50.237Z</time>
</trkpt>
<trkpt lat="31.3791700" lon="34.6048100">
<ele>106.089996</ele>
<time>2023-01-18T15:57:50.237Z</time>
</trkpt>
<trkpt lat="31.3792600" lon="34.6048700">
<ele>106.190002</ele>
<time>2023-01-18T15:57:50.237Z</time>
</trkpt>
<trkpt lat="31.3792700" lon="34.6049800">
<ele>104.350006</ele>
<time>2023-01-18T15:57:50.237Z</time>
</trkpt>
<trkpt lat="31.3790800" lon="34.6050700">
<ele>103.410004</ele>
<time>2023-01-18T15:57:50.237Z</time>
</trkpt>
<trkpt lat="31.3788800" lon="34.6051800">
<ele>100.670006</ele>
<time>2023-01-18T15:57:50.237Z</time>
</trkpt>
<trkpt lat="31.3787300" lon="34.6053300">
<ele>94.440002</ele>
<time>2023-01-18T15:57:50.237Z</time>
</trkpt>
<trkpt lat="31.3787300" lon="34.6054400">
<ele>93.870003</ele>
<time>2023-01-18T15:57:50.237Z</time>
</trkpt>
<trkpt lat="31.3788500" lon="34.6054800">
<ele>98.110001</ele>
<time>2023-01-18T15:57:50.237Z</time>
</trkpt>
<trkpt lat="31.3790100" lon="34.6054800">
<ele>102.360001</ele>
<time>2023-01-18T15:57:50.237Z</time>
</trkpt>
<trkpt lat="31.3789700" lon="34.6057700">
<ele>100.820007</ele>
<time>2023-01-18T15:57:50.237Z</time>
</trkpt>
<trkpt lat="31.3789500" lon="34.6059800">
<ele>100.499992</ele>
<time>2023-01-18T15:57:50.237Z</time>
</trkpt>
<trkpt lat="31.3789500" lon="34.6060300">
<ele>100.560005</ele>
<time>2023-01-18T15:57:50.237Z</time>
</trkpt>
<trkpt lat="31.3788600" lon="34.6062200">
<ele>98.820000</ele>
<time>2023-01-18T15:57:50.237Z</time>
</trkpt>
<trkpt lat="31.3788500" lon="34.6063500">
<ele>98.139999</ele>
<time>2023-01-18T15:57:50.237Z</time>
</trkpt>
<trkpt lat="31.3788700" lon="34.6064700">
<ele>97.419998</ele>
<time>2023-01-18T15:57:50.237Z</time>
</trkpt>
<trkpt lat="31.3789400" lon="34.6065400">
<ele>96.570000</ele>
<time>2023-01-18T15:57:50.237Z</time>
</trkpt>
<trkpt lat="31.3791800" lon="34.6065800">
<ele>95.360001</ele>
<time>2023-01-18T15:57:50.237Z</time>
</trkpt>
<trkpt lat="31.3793400" lon="34.6067000">
<ele>95.650002</ele>
<time>2023-01-18T15:57:50.237Z</time>
</trkpt>
<trkpt lat="31.3794900" lon="34.6066700">
<ele>96.180000</ele>
<time>2023-01-18T15:57:50.237Z</time>
</trkpt>
<trkpt lat="31.3798000" lon="34.6064100">
<ele>95.750000</ele>
<time>2023-01-18T15:57:50.237Z</time>
</trkpt>
<trkpt lat="31.3799200" lon="34.6064700">
<ele>94.900002</ele>
<time>2023-01-18T15:57:50.237Z</time>
</trkpt>
<trkpt lat="31.3799400" lon="34.6066200">
<ele>97.650002</ele>
<time>2023-01-18T15:57:50.237Z</time>
</trkpt>
<trkpt lat="31.3798800" lon="34.6069500">
<ele>101.199997</ele>
<time>2023-01-18T15:57:50.237Z</time>
</trkpt>
<trkpt lat="31.3801000" lon="34.6069500">
<ele>103.130005</ele>
<time>2023-01-18T15:57:50.237Z</time>
</trkpt>
<trkpt lat="31.3801900" lon="34.6071400">
<ele>105.679993</ele>
<time>2023-01-18T15:57:50.237Z</time>
</trkpt>
<trkpt lat="31.3802900" lon="34.6070700">
<ele>106.020004</ele>
<time>2023-01-18T15:57:50.237Z</time>
</trkpt>
<trkpt lat="31.3803100" lon="34.6072000">
<ele>107.080002</ele>
<time>2023-01-18T15:57:50.237Z</time>
</trkpt>
<trkpt lat="31.3802000" lon="34.6073200">
<ele>105.379997</ele>
<time>2023-01-18T15:57:50.237Z</time>
</trkpt>
<trkpt lat="31.3800600" lon="34.6073400">
<ele>104.159996</ele>
<time>2023-01-18T15:57:50.237Z</time>
</trkpt>
<trkpt lat="31.3800600" lon="34.6073400">
<ele>104.159996</ele>
<time>2023-01-18T15:57:50.237Z</time>
</trkpt>
<trkpt lat="31.3799400" lon="34.6073500">
<ele>103.590004</ele>
<time>2023-01-18T15:57:50.237Z</time>
</trkpt>
<trkpt lat="31.3798100" lon="34.6075000">
<ele>103.369995</ele>
<time>2023-01-18T15:57:50.237Z</time>
</trkpt>
<trkpt lat="31.3798100" lon="34.6075000">
<ele>103.369995</ele>
<time>2023-01-18T15:57:50.237Z</time>
</trkpt>
<trkpt lat="31.3798100" lon="34.6075000">
<ele>103.369995</ele>
<time>2023-01-18T15:57:50.237Z</time>
</trkpt>
<trkpt lat="31.3797800" lon="34.6076000">
<ele>102.729996</ele>
<time>2023-01-18T15:57:50.237Z</time>
</trkpt>
<trkpt lat="31.3797800" lon="34.6080400">
<ele>100.820007</ele>
<time>2023-01-18T15:57:50.237Z</time>
</trkpt>
<trkpt lat="31.3798100" lon="34.6082500">
<ele>99.059998</ele>
<time>2023-01-18T15:57:50.237Z</time>
</trkpt>
<trkpt lat="31.3799100" lon="34.6083100">
<ele>97.869995</ele>
<time>2023-01-18T15:57:50.237Z</time>
</trkpt>
<trkpt lat="31.3800100" lon="34.6081800">
<ele>98.709999</ele>
<time>2023-01-18T15:57:50.237Z</time>
</trkpt>
<trkpt lat="31.3801500" lon="34.6081800">
<ele>99.439995</ele>
<time>2023-01-18T15:57:50.237Z</time>
</trkpt>
<trkpt lat="31.3802400" lon="34.6082100">
<ele>99.680000</ele>
<time>2023-01-18T15:57:50.237Z</time>
</trkpt>
<trkpt lat="31.3802900" lon="34.6083600">
<ele>99.140007</ele>
<time>2023-01-18T15:57:50.237Z</time>
</trkpt>
<trkpt lat="31.3802700" lon="34.6084800">
<ele>98.900002</ele>
<time>2023-01-18T15:57:50.237Z</time>
</trkpt>
<trkpt lat="31.3801000" lon="34.6086300">
<ele>95.980003</ele>
<time>2023-01-18T15:57:50.237Z</time>
</trkpt>
<trkpt lat="31.3799400" lon="34.6086700">
<ele>94.669998</ele>
<time>2023-01-18T15:57:50.237Z</time>
</trkpt>
<trkpt lat="31.3799000" lon="34.6087200">
<ele>94.970001</ele>
<time>2023-01-18T15:57:50.237Z</time>
</trkpt>
<trkpt lat="31.3798100" lon="34.6088700">
<ele>94.930000</ele>
<time>2023-01-18T15:57:50.237Z</time>
</trkpt>
<trkpt lat="31.3797800" lon="34.6089800">
<ele>95.080002</ele>
<time>2023-01-18T15:57:50.237Z</time>
</trkpt>
<trkpt lat="31.3798400" lon="34.6090300">
<ele>95.640007</ele>
<time>2023-01-18T15:57:50.237Z</time>
</trkpt>
<trkpt lat="31.3798900" lon="34.6090300">
<ele>95.909996</ele>
<time>2023-01-18T15:57:50.237Z</time>
</trkpt>
<trkpt lat="31.3798900" lon="34.6090300">
<ele>95.909996</ele>
<time>2023-01-18T15:57:50.237Z</time>
</trkpt>
<trkpt lat="31.3799400" lon="34.6090300">
<ele>96.169998</ele>
<time>2023-01-18T15:57:50.237Z</time>
</trkpt>
<trkpt lat="31.3804200" lon="34.6088500">
<ele>101.959999</ele>
<time>2023-01-18T15:57:50.237Z</time>
</trkpt>
<trkpt lat="31.3806600" lon="34.6086200">
<ele>105.049995</ele>
<time>2023-01-18T15:57:50.237Z</time>
</trkpt>
<trkpt lat="31.3809200" lon="34.6084900">
<ele>109.320000</ele>
<time>2023-01-18T15:57:50.237Z</time>
</trkpt>
<trkpt lat="31.3810400" lon="34.6084000">
<ele>111.370003</ele>
<time>2023-01-18T15:57:50.237Z</time>
</trkpt>
<trkpt lat="31.3813300" lon="34.6082700">
<ele>107.750000</ele>
<time>2023-01-18T15:57:50.237Z</time>
</trkpt>
<trkpt lat="31.3814800" lon="34.6082000">
<ele>106.899994</ele>
<time>2023-01-18T15:57:50.237Z</time>
</trkpt>
<trkpt lat="31.3821300" lon="34.6079300">
<ele>112.779999</ele>
<time>2023-01-18T15:57:50.237Z</time>
</trkpt>
<trkpt lat="31.3822600" lon="34.6080600">
<ele>110.910004</ele>
<time>2023-01-18T15:57:50.237Z</time>
</trkpt>
<trkpt lat="31.3821900" lon="34.6081800">
<ele>108.349998</ele>
<time>2023-01-18T15:57:50.237Z</time>
</trkpt>
<trkpt lat="31.3820600" lon="34.6082900">
<ele>106.830002</ele>
<time>2023-01-18T15:57:50.237Z</time>
</trkpt>
<trkpt lat="31.3819800" lon="34.6083900">
<ele>106.620003</ele>
<time>2023-01-18T15:57:50.237Z</time>
</trkpt>
<trkpt lat="31.3818800" lon="34.6088100">
<ele>102.239998</ele>
<time>2023-01-18T15:57:50.237Z</time>
</trkpt>
<trkpt lat="31.3815800" lon="34.6088600">
<ele>100.479996</ele>
<time>2023-01-18T15:57:50.237Z</time>
</trkpt>
<trkpt lat="31.3813200" lon="34.6088200">
<ele>103.989998</ele>
<time>2023-01-18T15:57:50.237Z</time>
</trkpt>
<trkpt lat="31.3811400" lon="34.6090400">
<ele>98.840004</ele>
<time>2023-01-18T15:57:50.237Z</time>
</trkpt>
<trkpt lat="31.3811100" lon="34.6091400">
<ele>96.580002</ele>
<time>2023-01-18T15:57:50.237Z</time>
</trkpt>
<trkpt lat="31.3811400" lon="34.6091600">
<ele>96.250008</ele>
<time>2023-01-18T15:57:50.237Z</time>
</trkpt>
<trkpt lat="31.3811400" lon="34.6091600">
<ele>96.250008</ele>
<time>2023-01-18T15:57:50.237Z</time>
</trkpt>
<trkpt lat="31.3811400" lon="34.6091600">
<ele>96.250008</ele>
<time>2023-01-18T15:57:50.237Z</time>
</trkpt>
<trkpt lat="31.3811400" lon="34.6091600">
<ele>96.250008</ele>
<time>2023-01-18T15:57:50.237Z</time>
</trkpt>
<trkpt lat="31.3812500" lon="34.6092500">
<ele>97.400002</ele>
<time>2023-01-18T15:57:50.237Z</time>
</trkpt>
<trkpt lat="31.3813800" lon="34.6095000">
<ele>102.629997</ele>
<time>2023-01-18T15:57:50.237Z</time>
</trkpt>
<trkpt lat="31.3813500" lon="34.6097400">
<ele>104.919998</ele>
<time>2023-01-18T15:57:50.237Z</time>
</trkpt>
<trkpt lat="31.3812800" lon="34.6099300">
<ele>102.639992</ele>
<time>2023-01-18T15:57:50.237Z</time>
</trkpt>
<trkpt lat="31.3812700" lon="34.6101000">
<ele>101.099998</ele>
<time>2023-01-18T15:57:50.237Z</time>
</trkpt>
<trkpt lat="31.3813900" lon="34.6102200">
<ele>100.049995</ele>
<time>2023-01-18T15:57:50.237Z</time>
</trkpt>
<trkpt lat="31.3814800" lon="34.6101600">
<ele>101.549995</ele>
<time>2023-01-18T15:57:50.237Z</time>
</trkpt>
<trkpt lat="31.3817900" lon="34.6097600">
<ele>104.309998</ele>
<time>2023-01-18T15:57:50.237Z</time>
</trkpt>
<trkpt lat="31.3819600" lon="34.6097100">
<ele>105.169998</ele>
<time>2023-01-18T15:57:50.237Z</time>
</trkpt>
<trkpt lat="31.3820100" lon="34.6098100">
<ele>105.390007</ele>
<time>2023-01-18T15:57:50.237Z</time>
</trkpt>
<trkpt lat="31.3821600" lon="34.6101000">
<ele>105.610001</ele>
<time>2023-01-18T15:57:50.237Z</time>
</trkpt>
<trkpt lat="31.3822700" lon="34.6102400">
<ele>104.609993</ele>
<time>2023-01-18T15:57:50.237Z</time>
</trkpt>
<trkpt lat="31.3822700" lon="34.6104200">
<ele>102.950005</ele>
<time>2023-01-18T15:57:50.237Z</time>
</trkpt>
<trkpt lat="31.3824300" lon="34.6106100">
<ele>101.140007</ele>
<time>2023-01-18T15:57:50.237Z</time>
</trkpt>
<trkpt lat="31.3827900" lon="34.6103100">
<ele>99.349998</ele>
<time>2023-01-18T15:57:50.237Z</time>
</trkpt>
<trkpt lat="31.3829700" lon="34.6102800">
<ele>102.479996</ele>
<time>2023-01-18T15:57:50.237Z</time>
</trkpt>
<trkpt lat="31.3830200" lon="34.6104000">
<ele>104.570000</ele>
<time>2023-01-18T15:57:50.237Z</time>
</trkpt>
<trkpt lat="31.3825700" lon="34.6107200">
<ele>102.660004</ele>
<time>2023-01-18T15:57:50.237Z</time>
</trkpt>
<trkpt lat="31.3819000" lon="34.6111900">
<ele>103.229996</ele>
<time>2023-01-18T15:57:50.237Z</time>
</trkpt>
<trkpt lat="31.3817800" lon="34.6113000">
<ele>102.870003</ele>
<time>2023-01-18T15:57:50.237Z</time>
</trkpt>
<trkpt lat="31.3817000" lon="34.6114100">
<ele>102.769997</ele>
<time>2023-01-18T15:57:50.237Z</time>
</trkpt>
<trkpt lat="31.3816300" lon="34.6115200">
<ele>104.419998</ele>
<time>2023-01-18T15:57:50.237Z</time>
</trkpt>
<trkpt lat="31.3813900" lon="34.6121300">
<ele>101.349998</ele>
<time>2023-01-18T15:57:50.237Z</time>
</trkpt>
<trkpt lat="31.3813900" lon="34.6121300">
<ele>101.349998</ele>
<time>2023-01-18T15:57:50.237Z</time>
</trkpt>
<trkpt lat="31.3813900" lon="34.6121300">
<ele>101.349998</ele>
<time>2023-01-18T15:57:50.237Z</time>
</trkpt>
<trkpt lat="31.3813600" lon="34.6122100">
<ele>100.820007</ele>
<time>2023-01-18T15:57:50.237Z</time>
</trkpt>
<trkpt lat="31.3812400" lon="34.6123600">
<ele>101.719994</ele>
<time>2023-01-18T15:57:50.237Z</time>
</trkpt>
<trkpt lat="31.3810900" lon="34.6125500">
<ele>103.360001</ele>
<time>2023-01-18T15:57:50.237Z</time>
</trkpt>
<trkpt lat="31.3808900" lon="34.6123100">
<ele>98.440002</ele>
<time>2023-01-18T15:57:50.237Z</time>
</trkpt>
<trkpt lat="31.3803800" lon="34.6126400">
<ele>104.009995</ele>
<time>2023-01-18T15:57:50.237Z</time>
</trkpt>
<trkpt lat="31.3801200" lon="34.6130900">
<ele>103.260002</ele>
<time>2023-01-18T15:57:50.237Z</time>
</trkpt>
<trkpt lat="31.3800900" lon="34.6132300">
<ele>102.529999</ele>
<time>2023-01-18T15:57:50.237Z</time>
</trkpt>
<trkpt lat="31.3802900" lon="34.6132900">
<ele>106.739998</ele>
<time>2023-01-18T15:57:50.237Z</time>
</trkpt>
<trkpt lat="31.3809400" lon="34.6134500">
<ele>102.210007</ele>
<time>2023-01-18T15:57:50.237Z</time>
</trkpt>
<trkpt lat="31.3811300" lon="34.6136900">
<ele>104.070000</ele>
<time>2023-01-18T15:57:50.237Z</time>
</trkpt>
<trkpt lat="31.3809200" lon="34.6139600">
<ele>103.130005</ele>
<time>2023-01-18T15:57:50.237Z</time>
</trkpt>
<trkpt lat="31.3808500" lon="34.6141900">
<ele>99.699997</ele>
<time>2023-01-18T15:57:50.237Z</time>
</trkpt>
<trkpt lat="31.3808000" lon="34.6145500">
<ele>95.709999</ele>
<time>2023-01-18T15:57:50.237Z</time>
</trkpt>
<trkpt lat="31.3808000" lon="34.6148700">
<ele>93.400002</ele>
<time>2023-01-18T15:57:50.237Z</time>
</trkpt>
<trkpt lat="31.3808000" lon="34.6150100">
<ele>92.839996</ele>
<time>2023-01-18T15:57:50.237Z</time>
</trkpt>
<trkpt lat="31.3808000" lon="34.6151500">
<ele>92.280006</ele>
<time>2023-01-18T15:57:50.237Z</time>
</trkpt>
<trkpt lat="31.3808000" lon="34.6153100">
<ele>91.670006</ele>
<time>2023-01-18T15:57:50.237Z</time>
</trkpt>
<trkpt lat="31.3808000" lon="34.6153100">
<ele>91.670006</ele>
<time>2023-01-18T15:57:50.237Z</time>
</trkpt>
<trkpt lat="31.3808000" lon="34.6153100">
<ele>91.670006</ele>
<time>2023-01-18T15:57:50.237Z</time>
</trkpt>
<trkpt lat="31.3807900" lon="34.6154200">
<ele>91.339996</ele>
<time>2023-01-18T15:57:50.237Z</time>
</trkpt>
<trkpt lat="31.3803600" lon="34.6156600">
<ele>88.559998</ele>
<time>2023-01-18T15:57:50.237Z</time>
</trkpt>
<trkpt lat="31.3801100" lon="34.6157900">
<ele>86.640007</ele>
<time>2023-01-18T15:57:50.237Z</time>
</trkpt>
<trkpt lat="31.3801100" lon="34.6157900">
<ele>86.640007</ele>
<time>2023-01-18T15:57:50.237Z</time>
</trkpt>
<trkpt lat="31.3800900" lon="34.6158000">
<ele>86.529999</ele>
<time>2023-01-18T15:57:50.237Z</time>
</trkpt>
<trkpt lat="31.3803200" lon="34.6164300">
<ele>86.970001</ele>
<time>2023-01-18T15:57:50.237Z</time>
</trkpt>
<trkpt lat="31.3805700" lon="34.6166900">
<ele>93.709999</ele>
<time>2023-01-18T15:57:50.237Z</time>
</trkpt>
<trkpt lat="31.3807400" lon="34.6166100">
<ele>93.389999</ele>
<time>2023-01-18T15:57:50.237Z</time>
</trkpt>
<trkpt lat="31.3809700" lon="34.6168900">
<ele>100.299995</ele>
<time>2023-01-18T15:57:50.237Z</time>
</trkpt>
<trkpt lat="31.3809900" lon="34.6168800">
<ele>100.309998</ele>
<time>2023-01-18T15:57:50.237Z</time>
</trkpt>
<trkpt lat="31.3809900" lon="34.6168800">
<ele>100.309998</ele>
<time>2023-01-18T15:57:50.237Z</time>
</trkpt>
<trkpt lat="31.3810000" lon="34.6168700">
<ele>100.129997</ele>
<time>2023-01-18T15:57:50.237Z</time>
</trkpt>
<trkpt lat="31.3812000" lon="34.6167800">
<ele>99.409996</ele>
<time>2023-01-18T15:57:50.237Z</time>
</trkpt>
<trkpt lat="31.3814100" lon="34.6164100">
<ele>93.909996</ele>
<time>2023-01-18T15:57:50.237Z</time>
</trkpt>
<trkpt lat="31.3816300" lon="34.6163200">
<ele>94.829994</ele>
<time>2023-01-18T15:57:50.237Z</time>
</trkpt>
<trkpt lat="31.3820300" lon="34.6164600">
<ele>99.739998</ele>
<time>2023-01-18T15:57:50.237Z</time>
</trkpt>
<trkpt lat="31.3822600" lon="34.6167500">
<ele>106.010002</ele>
<time>2023-01-18T15:57:50.237Z</time>
</trkpt>
<trkpt lat="31.3824200" lon="34.6166800">
<ele>106.680000</ele>
<time>2023-01-18T15:57:50.237Z</time>
</trkpt>
<trkpt lat="31.3825400" lon="34.6165300">
<ele>104.149994</ele>
<time>2023-01-18T15:57:50.237Z</time>
</trkpt>
<trkpt lat="31.3827900" lon="34.6166200">
<ele>110.529999</ele>
<time>2023-01-18T15:57:50.237Z</time>
</trkpt>
<trkpt lat="31.3830200" lon="34.6165200">
<ele>108.119995</ele>
<time>2023-01-18T15:57:50.237Z</time>
</trkpt>
<trkpt lat="31.3830000" lon="34.6163000">
<ele>103.539993</ele>
<time>2023-01-18T15:57:50.237Z</time>
</trkpt>
<trkpt lat="31.3831500" lon="34.6160900">
<ele>106.839996</ele>
<time>2023-01-18T15:57:50.237Z</time>
</trkpt>
<trkpt lat="31.3834600" lon="34.6159200">
<ele>108.680000</ele>
<time>2023-01-18T15:57:50.237Z</time>
</trkpt>
<trkpt lat="31.3838900" lon="34.6159900">
<ele>111.810005</ele>
<time>2023-01-18T15:57:50.237Z</time>
</trkpt>
<trkpt lat="31.3841600" lon="34.6158700">
<ele>108.559998</ele>
<time>2023-01-18T15:57:50.237Z</time>
</trkpt>
<trkpt lat="31.3844200" lon="34.6158600">
<ele>107.120003</ele>
<time>2023-01-18T15:57:50.237Z</time>
</trkpt>
<trkpt lat="31.3844200" lon="34.6158600">
<ele>107.120003</ele>
<time>2023-01-18T15:57:50.237Z</time>
</trkpt>
<trkpt lat="31.3844200" lon="34.6158600">
<ele>107.120003</ele>
<time>2023-01-18T15:57:50.237Z</time>
</trkpt>
<trkpt lat="31.3845500" lon="34.6158500">
<ele>106.639999</ele>
<time>2023-01-18T15:57:50.237Z</time>
</trkpt>
<trkpt lat="31.3849300" lon="34.6155300">
<ele>103.580002</ele>
<time>2023-01-18T15:57:50.237Z</time>
</trkpt>
<trkpt lat="31.3852100" lon="34.6154600">
<ele>97.780006</ele>
<time>2023-01-18T15:57:50.237Z</time>
</trkpt>
<trkpt lat="31.3855000" lon="34.6155700">
<ele>103.430000</ele>
<time>2023-01-18T15:57:50.237Z</time>
</trkpt>
<trkpt lat="31.3856500" lon="34.6157300">
<ele>105.710007</ele>
<time>2023-01-18T15:57:50.237Z</time>
</trkpt>
<trkpt lat="31.3859400" lon="34.6162500">
<ele>109.879997</ele>
<time>2023-01-18T15:57:50.237Z</time>
</trkpt>
<trkpt lat="31.3860200" lon="34.6165700">
<ele>108.250000</ele>
<time>2023-01-18T15:57:50.237Z</time>
</trkpt>
<trkpt lat="31.3861000" lon="34.6168800">
<ele>107.189995</ele>
<time>2023-01-18T15:57:50.237Z</time>
</trkpt>
<trkpt lat="31.3861700" lon="34.6173100">
<ele>105.070000</ele>
<time>2023-01-18T15:57:50.237Z</time>
</trkpt>
<trkpt lat="31.3861700" lon="34.6173100">
<ele>105.070000</ele>
<time>2023-01-18T15:57:50.237Z</time>
</trkpt>
<trkpt lat="31.3861700" lon="34.6173100">
<ele>105.070000</ele>
<time>2023-01-18T15:57:50.237Z</time>
</trkpt>
<trkpt lat="31.3862100" lon="34.6175200">
<ele>105.400002</ele>
<time>2023-01-18T15:57:50.237Z</time>
</trkpt>
<trkpt lat="31.3861100" lon="34.6180600">
<ele>105.959999</ele>
<time>2023-01-18T15:57:50.237Z</time>
</trkpt>
<trkpt lat="31.3863000" lon="34.6185800">
<ele>100.639999</ele>
<time>2023-01-18T15:57:50.237Z</time>
</trkpt>
<trkpt lat="31.3863100" lon="34.6187900">
<ele>101.709999</ele>
<time>2023-01-18T15:57:50.237Z</time>
</trkpt>
<trkpt lat="31.3862700" lon="34.6190100">
<ele>103.889999</ele>
<time>2023-01-18T15:57:50.237Z</time>
</trkpt>
<trkpt lat="31.3862600" lon="34.6192200">
<ele>104.660004</ele>
<time>2023-01-18T15:57:50.237Z</time>
</trkpt>
<trkpt lat="31.3863800" lon="34.6194600">
<ele>103.959999</ele>
<time>2023-01-18T15:57:50.237Z</time>
</trkpt>
<trkpt lat="31.3865500" lon="34.6196700">
<ele>104.800003</ele>
<time>2023-01-18T15:57:50.237Z</time>
</trkpt>
<trkpt lat="31.3866800" lon="34.6199500">
<ele>105.809998</ele>
<time>2023-01-18T15:57:50.237Z</time>
</trkpt>
<trkpt lat="31.3865900" lon="34.6201300">
<ele>104.830002</ele>
<time>2023-01-18T15:57:50.237Z</time>
</trkpt>
<trkpt lat="31.3866200" lon="34.6202200">
<ele>104.840004</ele>
<time>2023-01-18T15:57:50.237Z</time>
</trkpt>
<trkpt lat="31.3869700" lon="34.6204400">
<ele>108.579994</ele>
<time>2023-01-18T15:57:50.237Z</time>
</trkpt>
<trkpt lat="31.3872100" lon="34.6203600">
<ele>108.300003</ele>
<time>2023-01-18T15:57:50.237Z</time>
</trkpt>
<trkpt lat="31.3873000" lon="34.6205300">
<ele>108.269997</ele>
<time>2023-01-18T15:57:50.237Z</time>
</trkpt>
<trkpt lat="31.3871900" lon="34.6206600">
<ele>109.750000</ele>
<time>2023-01-18T15:57:50.237Z</time>
</trkpt>
<trkpt lat="31.3872000" lon="34.6208500">
<ele>111.119995</ele>
<time>2023-01-18T15:57:50.237Z</time>
</trkpt>
<trkpt lat="31.3874100" lon="34.6209700">
<ele>110.979996</ele>
<time>2023-01-18T15:57:50.237Z</time>
</trkpt>
<trkpt lat="31.3875400" lon="34.6211900">
<ele>110.310005</ele>
<time>2023-01-18T15:57:50.237Z</time>
</trkpt>
<trkpt lat="31.3878400" lon="34.6215500">
<ele>101.519997</ele>
<time>2023-01-18T15:57:50.237Z</time>
</trkpt>
<trkpt lat="31.3880500" lon="34.6216800">
<ele>97.010002</ele>
<time>2023-01-18T15:57:50.237Z</time>
</trkpt>
<trkpt lat="31.3882000" lon="34.6216700">
<ele>98.550003</ele>
<time>2023-01-18T15:57:50.237Z</time>
</trkpt>
<trkpt lat="31.3884400" lon="34.6216100">
<ele>102.559998</ele>
<time>2023-01-18T15:57:50.237Z</time>
</trkpt>
<trkpt lat="31.3886600" lon="34.6213100">
<ele>106.300003</ele>
<time>2023-01-18T15:57:50.237Z</time>
</trkpt>
<trkpt lat="31.3889700" lon="34.6212100">
<ele>107.560005</ele>
<time>2023-01-18T15:57:50.237Z</time>
</trkpt>
<trkpt lat="31.3891700" lon="34.6210700">
<ele>106.910004</ele>
<time>2023-01-18T15:57:50.237Z</time>
</trkpt>
<trkpt lat="31.3892500" lon="34.6209000">
<ele>107.279999</ele>
<time>2023-01-18T15:57:50.237Z</time>
</trkpt>
<trkpt lat="31.3892700" lon="34.6206500">
<ele>105.959999</ele>
<time>2023-01-18T15:57:50.237Z</time>
</trkpt>
<trkpt lat="31.3893500" lon="34.6204500">
<ele>104.279999</ele>
<time>2023-01-18T15:57:50.237Z</time>
</trkpt>
<trkpt lat="31.3893500" lon="34.6204500">
<ele>104.279999</ele>
<time>2023-01-18T15:57:50.237Z</time>
</trkpt>
<trkpt lat="31.3893500" lon="34.6204500">
<ele>104.279999</ele>
<time>2023-01-18T15:57:50.237Z</time>
</trkpt>
<trkpt lat="31.3894600" lon="34.6203500">
<ele>102.340004</ele>
<time>2023-01-18T15:57:50.237Z</time>
</trkpt>
<trkpt lat="31.3895500" lon="34.6203300">
<ele>102.250000</ele>
<time>2023-01-18T15:57:50.237Z</time>
</trkpt>
<trkpt lat="31.3896800" lon="34.6202800">
<ele>101.880005</ele>
<time>2023-01-18T15:57:50.237Z</time>
</trkpt>
<trkpt lat="31.3900100" lon="34.6195700">
<ele>102.389999</ele>
<time>2023-01-18T15:57:50.237Z</time>
</trkpt>
<trkpt lat="31.3901600" lon="34.6193400">
<ele>99.000000</ele>
<time>2023-01-18T15:57:50.237Z</time>
</trkpt>
<trkpt lat="31.3902400" lon="34.6191000">
<ele>95.759995</ele>
<time>2023-01-18T15:57:50.237Z</time>
</trkpt>
<trkpt lat="31.3904100" lon="34.6189500">
<ele>98.110001</ele>
<time>2023-01-18T15:57:50.237Z</time>
</trkpt>
<trkpt lat="31.3906300" lon="34.6186900">
<ele>102.449997</ele>
<time>2023-01-18T15:57:50.237Z</time>
</trkpt>
<trkpt lat="31.3907500" lon="34.6185000">
<ele>102.080002</ele>
<time>2023-01-18T15:57:50.237Z</time>
</trkpt>
<trkpt lat="31.3909000" lon="34.6183800">
<ele>101.140007</ele>
<time>2023-01-18T15:57:50.237Z</time>
</trkpt>
<trkpt lat="31.3910000" lon="34.6182400">
<ele>100.129997</ele>
<time>2023-01-18T15:57:50.237Z</time>
</trkpt>
<trkpt lat="31.3911100" lon="34.6180100">
<ele>99.500000</ele>
<time>2023-01-18T15:57:50.237Z</time>
</trkpt>
<trkpt lat="31.3913000" lon="34.6178300">
<ele>100.029999</ele>
<time>2023-01-18T15:57:50.237Z</time>
</trkpt>
<trkpt lat="31.3914200" lon="34.6176900">
<ele>99.259995</ele>
<time>2023-01-18T15:57:50.237Z</time>
</trkpt>
<trkpt lat="31.3917800" lon="34.6175500">
<ele>101.859993</ele>
<time>2023-01-18T15:57:50.237Z</time>
</trkpt>
<trkpt lat="31.3920400" lon="34.6175600">
<ele>108.579994</ele>
<time>2023-01-18T15:57:50.237Z</time>
</trkpt>
<trkpt lat="31.3922400" lon="34.6175900">
<ele>110.339996</ele>
<time>2023-01-18T15:57:50.237Z</time>
</trkpt>
<trkpt lat="31.3923800" lon="34.6176900">
<ele>107.799995</ele>
<time>2023-01-18T15:57:50.237Z</time>
</trkpt>
<trkpt lat="31.3929300" lon="34.6172900">
<ele>100.980003</ele>
<time>2023-01-18T15:57:50.237Z</time>
</trkpt>
<trkpt lat="31.3937500" lon="34.6172600">
<ele>99.199997</ele>
<time>2023-01-18T15:57:50.237Z</time>
</trkpt>
<trkpt lat="31.3944000" lon="34.6171300">
<ele>116.720001</ele>
<time>2023-01-18T15:57:50.237Z</time>
</trkpt>
<trkpt lat="31.3946100" lon="34.6171400">
<ele>116.129997</ele>
<time>2023-01-18T15:57:50.237Z</time>
</trkpt>
<trkpt lat="31.3946900" lon="34.6172500">
<ele>115.360001</ele>
<time>2023-01-18T15:57:50.237Z</time>
</trkpt>
<trkpt lat="31.3947000" lon="34.6173800">
<ele>112.250008</ele>
<time>2023-01-18T15:57:50.237Z</time>
</trkpt>
<trkpt lat="31.3945400" lon="34.6175800">
<ele>111.430000</ele>
<time>2023-01-18T15:57:50.237Z</time>
</trkpt>
<trkpt lat="31.3943100" lon="34.6176700">
<ele>107.659996</ele>
<time>2023-01-18T15:57:50.237Z</time>
</trkpt>
<trkpt lat="31.3938900" lon="34.6176800">
<ele>98.019997</ele>
<time>2023-01-18T15:57:50.237Z</time>
</trkpt>
<trkpt lat="31.3935900" lon="34.6178000">
<ele>100.760002</ele>
<time>2023-01-18T15:57:50.237Z</time>
</trkpt>
<trkpt lat="31.3933800" lon="34.6177600">
<ele>103.659996</ele>
<time>2023-01-18T15:57:50.237Z</time>
</trkpt>
<trkpt lat="31.3924700" lon="34.6179300">
<ele>106.620003</ele>
<time>2023-01-18T15:57:50.237Z</time>
</trkpt>
<trkpt lat="31.3923400" lon="34.6181100">
<ele>106.630005</ele>
<time>2023-01-18T15:57:50.237Z</time>
</trkpt>
<trkpt lat="31.3922000" lon="34.6182200">
<ele>106.449997</ele>
<time>2023-01-18T15:57:50.237Z</time>
</trkpt>
<trkpt lat="31.3919300" lon="34.6182800">
<ele>105.219994</ele>
<time>2023-01-18T15:57:50.237Z</time>
</trkpt>
<trkpt lat="31.3917900" lon="34.6184800">
<ele>104.950005</ele>
<time>2023-01-18T15:57:50.237Z</time>
</trkpt>
<trkpt lat="31.3916300" lon="34.6185800">
<ele>105.599998</ele>
<time>2023-01-18T15:57:50.237Z</time>
</trkpt>
<trkpt lat="31.3914200" lon="34.6189300">
<ele>106.879997</ele>
<time>2023-01-18T15:57:50.237Z</time>
</trkpt>
<trkpt lat="31.3912300" lon="34.6192100">
<ele>108.320000</ele>
<time>2023-01-18T15:57:50.237Z</time>
</trkpt>
<trkpt lat="31.3910500" lon="34.6193600">
<ele>108.650002</ele>
<time>2023-01-18T15:57:50.237Z</time>
</trkpt>
<trkpt lat="31.3907700" lon="34.6195800">
<ele>109.720001</ele>
<time>2023-01-18T15:57:50.237Z</time>
</trkpt>
<trkpt lat="31.3907300" lon="34.6197400">
<ele>111.800003</ele>
<time>2023-01-18T15:57:50.237Z</time>
</trkpt>
<trkpt lat="31.3908700" lon="34.6199700">
<ele>113.899994</ele>
<time>2023-01-18T15:57:50.237Z</time>
</trkpt>
<trkpt lat="31.3910200" lon="34.6201500">
<ele>115.930000</ele>
<time>2023-01-18T15:57:50.237Z</time>
</trkpt>
<trkpt lat="31.3910900" lon="34.6204000">
<ele>117.879997</ele>
<time>2023-01-18T15:57:50.237Z</time>
</trkpt>
<trkpt lat="31.3910700" lon="34.6209500">
<ele>118.309998</ele>
<time>2023-01-18T15:57:50.237Z</time>
</trkpt>
<trkpt lat="31.3912900" lon="34.6211600">
<ele>117.409996</ele>
<time>2023-01-18T15:57:50.237Z</time>
</trkpt>
<trkpt lat="31.3911500" lon="34.6214000">
<ele>112.010002</ele>
<time>2023-01-18T15:57:50.237Z</time>
</trkpt>
<trkpt lat="31.3908800" lon="34.6214200">
<ele>107.610001</ele>
<time>2023-01-18T15:57:50.237Z</time>
</trkpt>
<trkpt lat="31.3906000" lon="34.6213800">
<ele>106.559998</ele>
<time>2023-01-18T15:57:50.237Z</time>
</trkpt>
<trkpt lat="31.3903800" lon="34.6216300">
<ele>100.070000</ele>
<time>2023-01-18T15:57:50.237Z</time>
</trkpt>
<trkpt lat="31.3902300" lon="34.6217400">
<ele>101.070000</ele>
<time>2023-01-18T15:57:50.237Z</time>
</trkpt>
<trkpt lat="31.3896600" lon="34.6218700">
<ele>108.070000</ele>
<time>2023-01-18T15:57:50.237Z</time>
</trkpt>
<trkpt lat="31.3889900" lon="34.6224400">
<ele>105.860001</ele>
<time>2023-01-18T15:57:50.237Z</time>
</trkpt>
<trkpt lat="31.3890500" lon="34.6227500">
<ele>110.430000</ele>
<time>2023-01-18T15:57:50.237Z</time>
</trkpt>
<trkpt lat="31.3889500" lon="34.6229700">
<ele>112.560005</ele>
<time>2023-01-18T15:57:50.237Z</time>
</trkpt>
<trkpt lat="31.3888700" lon="34.6232800">
<ele>112.389999</ele>
<time>2023-01-18T15:57:50.237Z</time>
</trkpt>
<trkpt lat="31.3889300" lon="34.6234100">
<ele>113.059998</ele>
<time>2023-01-18T15:57:50.237Z</time>
</trkpt>
<trkpt lat="31.3889300" lon="34.6234100">
<ele>113.059998</ele>
<time>2023-01-18T15:57:50.237Z</time>
</trkpt>
<trkpt lat="31.3889300" lon="34.6234100">
<ele>113.059998</ele>
<time>2023-01-18T15:57:50.237Z</time>
</trkpt>
<trkpt lat="31.3891000" lon="34.6237900">
<ele>114.590004</ele>
<time>2023-01-18T15:57:50.237Z</time>
</trkpt>
<trkpt lat="31.3891100" lon="34.6241300">
<ele>115.129997</ele>
<time>2023-01-18T15:57:50.237Z</time>
</trkpt>
<trkpt lat="31.3895500" lon="34.6247400">
<ele>116.329994</ele>
<time>2023-01-18T15:57:50.237Z</time>
</trkpt>
<trkpt lat="31.3895700" lon="34.6249200">
<ele>114.669998</ele>
<time>2023-01-18T15:57:50.237Z</time>
</trkpt>
<trkpt lat="31.3895100" lon="34.6251400">
<ele>112.320000</ele>
<time>2023-01-18T15:57:50.237Z</time>
</trkpt>
<trkpt lat="31.3895600" lon="34.6253100">
<ele>111.870003</ele>
<time>2023-01-18T15:57:50.237Z</time>
</trkpt>
<trkpt lat="31.3896800" lon="34.6253400">
<ele>112.529999</ele>
<time>2023-01-18T15:57:50.237Z</time>
</trkpt>
<trkpt lat="31.3898900" lon="34.6252800">
<ele>113.950005</ele>
<time>2023-01-18T15:57:50.237Z</time>
</trkpt>
<trkpt lat="31.3901400" lon="34.6255400">
<ele>106.889999</ele>
<time>2023-01-18T15:57:50.237Z</time>
</trkpt>
<trkpt lat="31.3903500" lon="34.6256800">
<ele>105.180000</ele>
<time>2023-01-18T15:57:50.237Z</time>
</trkpt>
<trkpt lat="31.3905600" lon="34.6257500">
<ele>105.880005</ele>
<time>2023-01-18T15:57:50.237Z</time>
</trkpt>
<trkpt lat="31.3907500" lon="34.6256900">
<ele>105.489998</ele>
<time>2023-01-18T15:57:50.237Z</time>
</trkpt>
<trkpt lat="31.3908700" lon="34.6255900">
<ele>105.360001</ele>
<time>2023-01-18T15:57:50.237Z</time>
</trkpt>
<trkpt lat="31.3911000" lon="34.6255200">
<ele>103.379997</ele>
<time>2023-01-18T15:57:50.237Z</time>
</trkpt>
<trkpt lat="31.3912400" lon="34.6254500">
<ele>103.300003</ele>
<time>2023-01-18T15:57:50.237Z</time>
</trkpt>
<trkpt lat="31.3914300" lon="34.6254200">
<ele>103.049995</ele>
<time>2023-01-18T15:57:50.237Z</time>
</trkpt>
<trkpt lat="31.3917200" lon="34.6250600">
<ele>104.170006</ele>
<time>2023-01-18T15:57:50.237Z</time>
</trkpt>
<trkpt lat="31.3918200" lon="34.6249300">
<ele>103.999992</ele>
<time>2023-01-18T15:57:50.237Z</time>
</trkpt>
<trkpt lat="31.3919000" lon="34.6246400">
<ele>103.910004</ele>
<time>2023-01-18T15:57:50.237Z</time>
</trkpt>
<trkpt lat="31.3920900" lon="34.6245000">
<ele>104.520004</ele>
<time>2023-01-18T15:57:50.237Z</time>
</trkpt>
<trkpt lat="31.3922300" lon="34.6244600">
<ele>105.059998</ele>
<time>2023-01-18T15:57:50.237Z</time>
</trkpt>
<trkpt lat="31.3923100" lon="34.6244000">
<ele>106.010002</ele>
<time>2023-01-18T15:57:50.237Z</time>
</trkpt>
<trkpt lat="31.3923700" lon="34.6242200">
<ele>107.629997</ele>
<time>2023-01-18T15:57:50.237Z</time>
</trkpt>
<trkpt lat="31.3924000" lon="34.6239600">
<ele>109.220001</ele>
<time>2023-01-18T15:57:50.237Z</time>
</trkpt>
<trkpt lat="31.3923300" lon="34.6236600">
<ele>108.750008</ele>
<time>2023-01-18T15:57:50.237Z</time>
</trkpt>
<trkpt lat="31.3923500" lon="34.6234100">
<ele>106.370003</ele>
<time>2023-01-18T15:57:50.237Z</time>
</trkpt>
<trkpt lat="31.3925100" lon="34.6233400">
<ele>105.040001</ele>
<time>2023-01-18T15:57:50.237Z</time>
</trkpt>
<trkpt lat="31.3929800" lon="34.6232300">
<ele>107.619995</ele>
<time>2023-01-18T15:57:50.237Z</time>
</trkpt>
<trkpt lat="31.3931700" lon="34.6231100">
<ele>109.139999</ele>
<time>2023-01-18T15:57:50.237Z</time>
</trkpt>
<trkpt lat="31.3933500" lon="34.6225900">
<ele>108.470001</ele>
<time>2023-01-18T15:57:50.237Z</time>
</trkpt>
<trkpt lat="31.3933300" lon="34.6223500">
<ele>107.449997</ele>
<time>2023-01-18T15:57:50.237Z</time>
</trkpt>
<trkpt lat="31.3935400" lon="34.6221400">
<ele>108.250000</ele>
<time>2023-01-18T15:57:50.237Z</time>
</trkpt>
<trkpt lat="31.3936000" lon="34.6220000">
<ele>111.580002</ele>
<time>2023-01-18T15:57:50.237Z</time>
</trkpt>
<trkpt lat="31.3936500" lon="34.6219100">
<ele>112.880005</ele>
<time>2023-01-18T15:57:50.237Z</time>
</trkpt>
<trkpt lat="31.3938300" lon="34.6217700">
<ele>112.369995</ele>
<time>2023-01-18T15:57:50.237Z</time>
</trkpt>
<trkpt lat="31.3940900" lon="34.6216300">
<ele>107.090004</ele>
<time>2023-01-18T15:57:50.237Z</time>
</trkpt>
<trkpt lat="31.3942700" lon="34.6216700">
<ele>106.150002</ele>
<time>2023-01-18T15:57:50.237Z</time>
</trkpt>
<trkpt lat="31.3944100" lon="34.6215600">
<ele>107.720001</ele>
<time>2023-01-18T15:57:50.237Z</time>
</trkpt>
<trkpt lat="31.3944900" lon="34.6213500">
<ele>108.119995</ele>
<time>2023-01-18T15:57:50.237Z</time>
</trkpt>
<trkpt lat="31.3946900" lon="34.6211100">
<ele>108.109993</ele>
<time>2023-01-18T15:57:50.237Z</time>
</trkpt>
<trkpt lat="31.3949400" lon="34.6211300">
<ele>110.300003</ele>
<time>2023-01-18T15:57:50.237Z</time>
</trkpt>
<trkpt lat="31.3952500" lon="34.6209400">
<ele>113.639999</ele>
<time>2023-01-18T15:57:50.237Z</time>
</trkpt>
<trkpt lat="31.3953300" lon="34.6209800">
<ele>114.760002</ele>
<time>2023-01-18T15:57:50.237Z</time>
</trkpt>
<trkpt lat="31.3953300" lon="34.6209800">
<ele>114.760002</ele>
<time>2023-01-18T15:57:50.237Z</time>
</trkpt>
<trkpt lat="31.3953300" lon="34.6209800">
<ele>114.760002</ele>
<time>2023-01-18T15:57:50.237Z</time>
</trkpt>
<trkpt lat="31.3954000" lon="34.6210200">
<ele>115.910004</ele>
<time>2023-01-18T15:57:50.237Z</time>
</trkpt>
<trkpt lat="31.3958600" lon="34.6207700">
<ele>119.669998</ele>
<time>2023-01-18T15:57:50.237Z</time>
</trkpt>
<trkpt lat="31.3968600" lon="34.6200300">
<ele>116.400002</ele>
<time>2023-01-18T15:57:50.237Z</time>
</trkpt>
<trkpt lat="31.3972500" lon="34.6203400">
<ele>115.930000</ele>
<time>2023-01-18T15:57:50.237Z</time>
</trkpt>
<trkpt lat="31.3971400" lon="34.6206800">
<ele>113.920006</ele>
<time>2023-01-18T15:57:50.237Z</time>
</trkpt>
<trkpt lat="31.3965600" lon="34.6209200">
<ele>116.360008</ele>
<time>2023-01-18T15:57:50.237Z</time>
</trkpt>
<trkpt lat="31.3962100" lon="34.6212700">
<ele>117.610001</ele>
<time>2023-01-18T15:57:50.237Z</time>
</trkpt>
<trkpt lat="31.3959600" lon="34.6213600">
<ele>120.660004</ele>
<time>2023-01-18T15:57:50.237Z</time>
</trkpt>
<trkpt lat="31.3956000" lon="34.6217900">
<ele>118.040001</ele>
<time>2023-01-18T15:57:50.237Z</time>
</trkpt>
<trkpt lat="31.3956400" lon="34.6219700">
<ele>118.070000</ele>
<time>2023-01-18T15:57:50.237Z</time>
</trkpt>
<trkpt lat="31.3958200" lon="34.6222600">
<ele>121.199997</ele>
<time>2023-01-18T15:57:50.237Z</time>
</trkpt>
<trkpt lat="31.3957800" lon="34.6225100">
<ele>123.260002</ele>
<time>2023-01-18T15:57:50.237Z</time>
</trkpt>
<trkpt lat="31.3953800" lon="34.6221800">
<ele>119.330002</ele>
<time>2023-01-18T15:57:50.237Z</time>
</trkpt>
<trkpt lat="31.3951400" lon="34.6221100">
<ele>118.200005</ele>
<time>2023-01-18T15:57:50.237Z</time>
</trkpt>
<trkpt lat="31.3950100" lon="34.6222700">
<ele>117.590004</ele>
<time>2023-01-18T15:57:50.237Z</time>
</trkpt>
<trkpt lat="31.3946800" lon="34.6225900">
<ele>112.300003</ele>
<time>2023-01-18T15:57:50.237Z</time>
</trkpt>
<trkpt lat="31.3945500" lon="34.6228400">
<ele>111.230003</ele>
<time>2023-01-18T15:57:50.237Z</time>
</trkpt>
<trkpt lat="31.3942900" lon="34.6229200">
<ele>111.239998</ele>
<time>2023-01-18T15:57:50.237Z</time>
</trkpt>
<trkpt lat="31.3937900" lon="34.6233000">
<ele>109.799995</ele>
<time>2023-01-18T15:57:50.237Z</time>
</trkpt>
<trkpt lat="31.3938000" lon="34.6233800">
<ele>110.389999</ele>
<time>2023-01-18T15:57:50.237Z</time>
</trkpt>
<trkpt lat="31.3938000" lon="34.6233800">
<ele>110.389999</ele>
<time>2023-01-18T15:57:50.237Z</time>
</trkpt>
<trkpt lat="31.3938000" lon="34.6233800">
<ele>110.389999</ele>
<time>2023-01-18T15:57:50.237Z</time>
</trkpt>
<trkpt lat="31.3938200" lon="34.6237400">
<ele>112.369995</ele>
<time>2023-01-18T15:57:50.237Z</time>
</trkpt>
<trkpt lat="31.3936100" lon="34.6243600">
<ele>114.080002</ele>
<time>2023-01-18T15:57:50.237Z</time>
</trkpt>
<trkpt lat="31.3936500" lon="34.6247900">
<ele>117.280006</ele>
<time>2023-01-18T15:57:50.237Z</time>
</trkpt>
<trkpt lat="31.3936500" lon="34.6252500">
<ele>116.260002</ele>
<time>2023-01-18T15:57:50.237Z</time>
</trkpt>
<trkpt lat="31.3938300" lon="34.6254600">
<ele>112.720001</ele>
<time>2023-01-18T15:57:50.237Z</time>
</trkpt>
<trkpt lat="31.3938300" lon="34.6256200">
<ele>110.070000</ele>
<time>2023-01-18T15:57:50.237Z</time>
</trkpt>
<trkpt lat="31.3935900" lon="34.6258600">
<ele>106.950005</ele>
<time>2023-01-18T15:57:50.237Z</time>
</trkpt>
<trkpt lat="31.3934100" lon="34.6261800">
<ele>106.899994</ele>
<time>2023-01-18T15:57:50.237Z</time>
</trkpt>
<trkpt lat="31.3930800" lon="34.6260800">
<ele>108.059998</ele>
<time>2023-01-18T15:57:50.237Z</time>
</trkpt>
<trkpt lat="31.3923900" lon="34.6264500">
<ele>109.279999</ele>
<time>2023-01-18T15:57:50.237Z</time>
</trkpt>
<trkpt lat="31.3923100" lon="34.6269200">
<ele>108.879997</ele>
<time>2023-01-18T15:57:50.237Z</time>
</trkpt>
<trkpt lat="31.3928900" lon="34.6273600">
<ele>113.389999</ele>
<time>2023-01-18T15:57:50.237Z</time>
</trkpt>
<trkpt lat="31.3929800" lon="34.6276700">
<ele>113.559998</ele>
<time>2023-01-18T15:57:50.237Z</time>
</trkpt>
<trkpt lat="31.3934600" lon="34.6278400">
<ele>110.349998</ele>
<time>2023-01-18T15:57:50.237Z</time>
</trkpt>
<trkpt lat="31.3938700" lon="34.6275600">
<ele>106.230003</ele>
<time>2023-01-18T15:57:50.237Z</time>
</trkpt>
<trkpt lat="31.3940200" lon="34.6277000">
<ele>109.849998</ele>
<time>2023-01-18T15:57:50.237Z</time>
</trkpt>
<trkpt lat="31.3939800" lon="34.6281500">
<ele>114.230003</ele>
<time>2023-01-18T15:57:50.237Z</time>
</trkpt>
<trkpt lat="31.3940400" lon="34.6284800">
<ele>116.670006</ele>
<time>2023-01-18T15:57:50.237Z</time>
</trkpt>
<trkpt lat="31.3949400" lon="34.6291400">
<ele>111.609993</ele>
<time>2023-01-18T15:57:50.237Z</time>
</trkpt>
<trkpt lat="31.3952100" lon="34.6291600">
<ele>112.040001</ele>
<time>2023-01-18T15:57:50.237Z</time>
</trkpt>
<trkpt lat="31.3954800" lon="34.6295500">
<ele>113.480003</ele>
<time>2023-01-18T15:57:50.237Z</time>
</trkpt>
<trkpt lat="31.3956200" lon="34.6296500">
<ele>114.209999</ele>
<time>2023-01-18T15:57:50.237Z</time>
</trkpt>
<trkpt lat="31.3957100" lon="34.6296100">
<ele>112.829994</ele>
<time>2023-01-18T15:57:50.237Z</time>
</trkpt>
<trkpt lat="31.3961000" lon="34.6294100">
<ele>104.640007</ele>
<time>2023-01-18T15:57:50.237Z</time>
</trkpt>
<trkpt lat="31.3964000" lon="34.6291100">
<ele>108.379997</ele>
<time>2023-01-18T15:57:50.237Z</time>
</trkpt>
<trkpt lat="31.3967300" lon="34.6289300">
<ele>107.809998</ele>
<time>2023-01-18T15:57:50.237Z</time>
</trkpt>
<trkpt lat="31.3967100" lon="34.6287300">
<ele>106.470001</ele>
<time>2023-01-18T15:57:50.237Z</time>
</trkpt>
<trkpt lat="31.3967900" lon="34.6285300">
<ele>105.700005</ele>
<time>2023-01-18T15:57:50.237Z</time>
</trkpt>
<trkpt lat="31.3971000" lon="34.6283500">
<ele>107.949997</ele>
<time>2023-01-18T15:57:50.237Z</time>
</trkpt>
<trkpt lat="31.3972900" lon="34.6279000">
<ele>108.399994</ele>
<time>2023-01-18T15:57:50.237Z</time>
</trkpt>
<trkpt lat="31.3973900" lon="34.6276000">
<ele>108.180000</ele>
<time>2023-01-18T15:57:50.237Z</time>
</trkpt>
<trkpt lat="31.3974900" lon="34.6272700">
<ele>109.629997</ele>
<time>2023-01-18T15:57:50.237Z</time>
</trkpt>
<trkpt lat="31.3975500" lon="34.6268900">
<ele>112.139999</ele>
<time>2023-01-18T15:57:50.237Z</time>
</trkpt>
<trkpt lat="31.3975500" lon="34.6266000">
<ele>113.110001</ele>
<time>2023-01-18T15:57:50.237Z</time>
</trkpt>
<trkpt lat="31.3976500" lon="34.6262600">
<ele>111.319992</ele>
<time>2023-01-18T15:57:50.237Z</time>
</trkpt>
<trkpt lat="31.3977700" lon="34.6258600">
<ele>109.189995</ele>
<time>2023-01-18T15:57:50.237Z</time>
</trkpt>
<trkpt lat="31.3979200" lon="34.6255300">
<ele>109.960007</ele>
<time>2023-01-18T15:57:50.237Z</time>
</trkpt>
<trkpt lat="31.3983500" lon="34.6250700">
<ele>116.750000</ele>
<time>2023-01-18T15:57:50.237Z</time>
</trkpt>
<trkpt lat="31.3986200" lon="34.6249400">
<ele>120.220001</ele>
<time>2023-01-18T15:57:50.237Z</time>
</trkpt>
<trkpt lat="31.3987700" lon="34.6250700">
<ele>115.899994</ele>
<time>2023-01-18T15:57:50.237Z</time>
</trkpt>
<trkpt lat="31.3985700" lon="34.6254400">
<ele>116.430000</ele>
<time>2023-01-18T15:57:50.237Z</time>
</trkpt>
<trkpt lat="31.3986200" lon="34.6257500">
<ele>113.720001</ele>
<time>2023-01-18T15:57:50.237Z</time>
</trkpt>
<trkpt lat="31.3984600" lon="34.6260700">
<ele>111.380005</ele>
<time>2023-01-18T15:57:50.237Z</time>
</trkpt>
<trkpt lat="31.3984400" lon="34.6264700">
<ele>112.000000</ele>
<time>2023-01-18T15:57:50.237Z</time>
</trkpt>
<trkpt lat="31.3982800" lon="34.6267900">
<ele>111.149994</ele>
<time>2023-01-18T15:57:50.237Z</time>
</trkpt>
<trkpt lat="31.3982800" lon="34.6270200">
<ele>110.369995</ele>
<time>2023-01-18T15:57:50.237Z</time>
</trkpt>
<trkpt lat="31.3981600" lon="34.6274000">
<ele>107.939995</ele>
<time>2023-01-18T15:57:50.237Z</time>
</trkpt>
<trkpt lat="31.3980700" lon="34.6275900">
<ele>107.000000</ele>
<time>2023-01-18T15:57:50.237Z</time>
</trkpt>
<trkpt lat="31.3980700" lon="34.6275900">
<ele>107.000000</ele>
<time>2023-01-18T15:57:50.237Z</time>
</trkpt>
<trkpt lat="31.3980700" lon="34.6275900">
<ele>107.000000</ele>
<time>2023-01-18T15:57:50.237Z</time>
</trkpt>
<trkpt lat="31.3980200" lon="34.6276900">
<ele>107.000000</ele>
<time>2023-01-18T15:57:50.237Z</time>
</trkpt>
<trkpt lat="31.3981800" lon="34.6279100">
<ele>104.030006</ele>
<time>2023-01-18T15:57:50.237Z</time>
</trkpt>
<trkpt lat="31.3984900" lon="34.6280300">
<ele>100.009995</ele>
<time>2023-01-18T15:57:50.237Z</time>
</trkpt>
<trkpt lat="31.3985500" lon="34.6281600">
<ele>100.309998</ele>
<time>2023-01-18T15:57:50.237Z</time>
</trkpt>
<trkpt lat="31.3984600" lon="34.6282800">
<ele>100.530006</ele>
<time>2023-01-18T15:57:50.237Z</time>
</trkpt>
<trkpt lat="31.3980500" lon="34.6284000">
<ele>104.009995</ele>
<time>2023-01-18T15:57:50.237Z</time>
</trkpt>
<trkpt lat="31.3974400" lon="34.6286900">
<ele>107.949997</ele>
<time>2023-01-18T15:57:50.237Z</time>
</trkpt>
<trkpt lat="31.3974300" lon="34.6288300">
<ele>109.220001</ele>
<time>2023-01-18T15:57:50.237Z</time>
</trkpt>
<trkpt lat="31.3973500" lon="34.6292700">
<ele>110.489998</ele>
<time>2023-01-18T15:57:50.237Z</time>
</trkpt>
<trkpt lat="31.3972200" lon="34.6300200">
<ele>111.009995</ele>
<time>2023-01-18T15:57:50.237Z</time>
</trkpt>
<trkpt lat="31.3973300" lon="34.6304800">
<ele>112.750000</ele>
<time>2023-01-18T15:57:50.237Z</time>
</trkpt>
<trkpt lat="31.3975500" lon="34.6307500">
<ele>114.489998</ele>
<time>2023-01-18T15:57:50.237Z</time>
</trkpt>
<trkpt lat="31.3979000" lon="34.6308400">
<ele>112.720001</ele>
<time>2023-01-18T15:57:50.237Z</time>
</trkpt>
<trkpt lat="31.3987100" lon="34.6308200">
<ele>107.500000</ele>
<time>2023-01-18T15:57:50.237Z</time>
</trkpt>
<trkpt lat="31.3989500" lon="34.6306800">
<ele>105.470001</ele>
<time>2023-01-18T15:57:50.237Z</time>
</trkpt>
<trkpt lat="31.3992100" lon="34.6307500">
<ele>102.370003</ele>
<time>2023-01-18T15:57:50.237Z</time>
</trkpt>
<trkpt lat="31.3996400" lon="34.6306000">
<ele>105.910004</ele>
<time>2023-01-18T15:57:50.237Z</time>
</trkpt>
<trkpt lat="31.3998900" lon="34.6303700">
<ele>106.470001</ele>
<time>2023-01-18T15:57:50.237Z</time>
</trkpt>
<trkpt lat="31.4002800" lon="34.6302000">
<ele>111.830002</ele>
<time>2023-01-18T15:57:50.237Z</time>
</trkpt>
<trkpt lat="31.4004200" lon="34.6302400">
<ele>110.760002</ele>
<time>2023-01-18T15:57:50.237Z</time>
</trkpt>
<trkpt lat="31.4004100" lon="34.6305400">
<ele>113.220001</ele>
<time>2023-01-18T15:57:50.237Z</time>
</trkpt>
<trkpt lat="31.4004700" lon="34.6306700">
<ele>115.540001</ele>
<time>2023-01-18T15:57:50.237Z</time>
</trkpt>
<trkpt lat="31.4005000" lon="34.6308800">
<ele>117.430008</ele>
<time>2023-01-18T15:57:50.237Z</time>
</trkpt>
<trkpt lat="31.4004600" lon="34.6310700">
<ele>117.259995</ele>
<time>2023-01-18T15:57:50.237Z</time>
</trkpt>
<trkpt lat="31.4005800" lon="34.6311400">
<ele>117.630005</ele>
<time>2023-01-18T15:57:50.237Z</time>
</trkpt>
<trkpt lat="31.4006500" lon="34.6313800">
<ele>115.709999</ele>
<time>2023-01-18T15:57:50.237Z</time>
</trkpt>
<trkpt lat="31.4004600" lon="34.6315300">
<ele>116.670006</ele>
<time>2023-01-18T15:57:50.237Z</time>
</trkpt>
<trkpt lat="31.4003200" lon="34.6315100">
<ele>116.129997</ele>
<time>2023-01-18T15:57:50.237Z</time>
</trkpt>
<trkpt lat="31.4000300" lon="34.6312900">
<ele>115.360001</ele>
<time>2023-01-18T15:57:50.237Z</time>
</trkpt>
<trkpt lat="31.3996400" lon="34.6311200">
<ele>114.049995</ele>
<time>2023-01-18T15:57:50.237Z</time>
</trkpt>
<trkpt lat="31.3993500" lon="34.6310900">
<ele>112.000000</ele>
<time>2023-01-18T15:57:50.237Z</time>
</trkpt>
<trkpt lat="31.3990200" lon="34.6312300">
<ele>114.919998</ele>
<time>2023-01-18T15:57:50.237Z</time>
</trkpt>
<trkpt lat="31.3988900" lon="34.6314400">
<ele>115.650002</ele>
<time>2023-01-18T15:57:50.237Z</time>
</trkpt>
<trkpt lat="31.3988800" lon="34.6315900">
<ele>114.479996</ele>
<time>2023-01-18T15:57:50.237Z</time>
</trkpt>
<trkpt lat="31.3985500" lon="34.6318100">
<ele>112.769997</ele>
<time>2023-01-18T15:57:50.237Z</time>
</trkpt>
<trkpt lat="31.3984500" lon="34.6317700">
<ele>113.959999</ele>
<time>2023-01-18T15:57:50.237Z</time>
</trkpt>
<trkpt lat="31.3983500" lon="34.6316000">
<ele>114.159996</ele>
<time>2023-01-18T15:57:50.237Z</time>
</trkpt>
<trkpt lat="31.3982300" lon="34.6317600">
<ele>117.320000</ele>
<time>2023-01-18T15:57:50.237Z</time>
</trkpt>
<trkpt lat="31.3981000" lon="34.6316300">
<ele>118.139999</ele>
<time>2023-01-18T15:57:50.237Z</time>
</trkpt>
<trkpt lat="31.3980000" lon="34.6313800">
<ele>112.029999</ele>
<time>2023-01-18T15:57:50.237Z</time>
</trkpt>
<trkpt lat="31.3979200" lon="34.6313400">
<ele>113.529999</ele>
<time>2023-01-18T15:57:50.237Z</time>
</trkpt>
<trkpt lat="31.3979200" lon="34.6313400">
<ele>113.529999</ele>
<time>2023-01-18T15:57:50.237Z</time>
</trkpt>
<trkpt lat="31.3979200" lon="34.6313400">
<ele>113.529999</ele>
<time>2023-01-18T15:57:50.237Z</time>
</trkpt>
<trkpt lat="31.3976700" lon="34.6312000">
<ele>115.470001</ele>
<time>2023-01-18T15:57:50.237Z</time>
</trkpt>
<trkpt lat="31.3973000" lon="34.6311200">
<ele>112.650002</ele>
<time>2023-01-18T15:57:50.237Z</time>
</trkpt>
<trkpt lat="31.3971100" lon="34.6309000">
<ele>114.570000</ele>
<time>2023-01-18T15:57:50.237Z</time>
</trkpt>
<trkpt lat="31.3967800" lon="34.6307200">
<ele>114.979996</ele>
<time>2023-01-18T15:57:50.237Z</time>
</trkpt>
<trkpt lat="31.3964600" lon="34.6308300">
<ele>115.470001</ele>
<time>2023-01-18T15:57:50.237Z</time>
</trkpt>
<trkpt lat="31.3962800" lon="34.6308800">
<ele>114.349998</ele>
<time>2023-01-18T15:57:50.237Z</time>
</trkpt>
<trkpt lat="31.3960600" lon="34.6310100">
<ele>112.360001</ele>
<time>2023-01-18T15:57:50.237Z</time>
</trkpt>
<trkpt lat="31.3960400" lon="34.6312200">
<ele>112.290001</ele>
<time>2023-01-18T15:57:50.237Z</time>
</trkpt>
<trkpt lat="31.3963500" lon="34.6317200">
<ele>113.529999</ele>
<time>2023-01-18T15:57:50.237Z</time>
</trkpt>
<trkpt lat="31.3967600" lon="34.6319200">
<ele>112.880005</ele>
<time>2023-01-18T15:57:50.237Z</time>
</trkpt>
<trkpt lat="31.3970100" lon="34.6317700">
<ele>115.020004</ele>
<time>2023-01-18T15:57:50.237Z</time>
</trkpt>
<trkpt lat="31.3973500" lon="34.6321000">
<ele>116.430000</ele>
<time>2023-01-18T15:57:50.237Z</time>
</trkpt>
<trkpt lat="31.3975700" lon="34.6325500">
<ele>117.519997</ele>
<time>2023-01-18T15:57:50.237Z</time>
</trkpt>
<trkpt lat="31.3979800" lon="34.6327700">
<ele>120.009995</ele>
<time>2023-01-18T15:57:50.237Z</time>
</trkpt>
<trkpt lat="31.3980100" lon="34.6330100">
<ele>116.380005</ele>
<time>2023-01-18T15:57:50.237Z</time>
</trkpt>
<trkpt lat="31.3981200" lon="34.6331400">
<ele>115.790001</ele>
<time>2023-01-18T15:57:50.237Z</time>
</trkpt>
<trkpt lat="31.3983100" lon="34.6330400">
<ele>116.690002</ele>
<time>2023-01-18T15:57:50.237Z</time>
</trkpt>
<trkpt lat="31.3984400" lon="34.6330700">
<ele>113.529999</ele>
<time>2023-01-18T15:57:50.237Z</time>
</trkpt>
<trkpt lat="31.3985600" lon="34.6332800">
<ele>111.849998</ele>
<time>2023-01-18T15:57:50.237Z</time>
</trkpt>
<trkpt lat="31.3985100" lon="34.6334300">
<ele>112.849998</ele>
<time>2023-01-18T15:57:50.237Z</time>
</trkpt>
<trkpt lat="31.3983700" lon="34.6335100">
<ele>114.290001</ele>
<time>2023-01-18T15:57:50.237Z</time>
</trkpt>
<trkpt lat="31.3983600" lon="34.6336400">
<ele>114.820000</ele>
<time>2023-01-18T15:57:50.237Z</time>
</trkpt>
<trkpt lat="31.3984200" lon="34.6338900">
<ele>115.070000</ele>
<time>2023-01-18T15:57:50.237Z</time>
</trkpt>
<trkpt lat="31.3983600" lon="34.6340500">
<ele>115.879997</ele>
<time>2023-01-18T15:57:50.237Z</time>
</trkpt>
<trkpt lat="31.3983600" lon="34.6340500">
<ele>115.879997</ele>
<time>2023-01-18T15:57:50.237Z</time>
</trkpt>
<trkpt lat="31.3983600" lon="34.6340500">
<ele>115.879997</ele>
<time>2023-01-18T15:57:50.237Z</time>
</trkpt>
<trkpt lat="31.3983200" lon="34.6341700">
<ele>115.830002</ele>
<time>2023-01-18T15:57:50.237Z</time>
</trkpt>
<trkpt lat="31.3983600" lon="34.6344000">
<ele>114.479996</ele>
<time>2023-01-18T15:57:50.237Z</time>
</trkpt>
<trkpt lat="31.3984800" lon="34.6346500">
<ele>114.709999</ele>
<time>2023-01-18T15:57:50.237Z</time>
</trkpt>
<trkpt lat="31.3987200" lon="34.6346400">
<ele>116.120003</ele>
<time>2023-01-18T15:57:50.237Z</time>
</trkpt>
<trkpt lat="31.3989300" lon="34.6347000">
<ele>115.519997</ele>
<time>2023-01-18T15:57:50.237Z</time>
</trkpt>
<trkpt lat="31.3988900" lon="34.6347700">
<ele>115.639999</ele>
<time>2023-01-18T15:57:50.237Z</time>
</trkpt>
<trkpt lat="31.3986500" lon="34.6348200">
<ele>116.199997</ele>
<time>2023-01-18T15:57:50.237Z</time>
</trkpt>
<trkpt lat="31.3985600" lon="34.6350000">
<ele>116.820007</ele>
<time>2023-01-18T15:57:50.237Z</time>
</trkpt>
<trkpt lat="31.3986800" lon="34.6352400">
<ele>116.909996</ele>
<time>2023-01-18T15:57:50.237Z</time>
</trkpt>
<trkpt lat="31.3989300" lon="34.6353800">
<ele>112.560005</ele>
<time>2023-01-18T15:57:50.237Z</time>
</trkpt>
<trkpt lat="31.3992100" lon="34.6355600">
<ele>110.669998</ele>
<time>2023-01-18T15:57:50.237Z</time>
</trkpt>
<trkpt lat="31.3992600" lon="34.6357600">
<ele>113.059998</ele>
<time>2023-01-18T15:57:50.237Z</time>
</trkpt>
<trkpt lat="31.3994600" lon="34.6357600">
<ele>114.949997</ele>
<time>2023-01-18T15:57:50.237Z</time>
</trkpt>
<trkpt lat="31.3996000" lon="34.6355300">
<ele>115.439995</ele>
<time>2023-01-18T15:57:50.237Z</time>
</trkpt>
<trkpt lat="31.3997200" lon="34.6354700">
<ele>116.049995</ele>
<time>2023-01-18T15:57:50.237Z</time>
</trkpt>
<trkpt lat="31.3997600" lon="34.6355600">
<ele>117.569992</ele>
<time>2023-01-18T15:57:50.237Z</time>
</trkpt>
<trkpt lat="31.3997100" lon="34.6357300">
<ele>118.099998</ele>
<time>2023-01-18T15:57:50.237Z</time>
</trkpt>
<trkpt lat="31.3996200" lon="34.6358700">
<ele>117.050003</ele>
<time>2023-01-18T15:57:50.237Z</time>
</trkpt>
<trkpt lat="31.3996800" lon="34.6361100">
<ele>114.560005</ele>
<time>2023-01-18T15:57:50.237Z</time>
</trkpt>
<trkpt lat="31.3998200" lon="34.6363100">
<ele>117.750000</ele>
<time>2023-01-18T15:57:50.237Z</time>
</trkpt>
<trkpt lat="31.3997500" lon="34.6366500">
<ele>114.240005</ele>
<time>2023-01-18T15:57:50.237Z</time>
</trkpt>
<trkpt lat="31.3997900" lon="34.6367200">
<ele>114.189995</ele>
<time>2023-01-18T15:57:50.237Z</time>
</trkpt>
<trkpt lat="31.3997900" lon="34.6367200">
<ele>114.189995</ele>
<time>2023-01-18T15:57:50.237Z</time>
</trkpt>
<trkpt lat="31.3997900" lon="34.6367200">
<ele>114.189995</ele>
<time>2023-01-18T15:57:50.237Z</time>
</trkpt>
<trkpt lat="31.4000200" lon="34.6370600">
<ele>114.840004</ele>
<time>2023-01-18T15:57:50.237Z</time>
</trkpt>
<trkpt lat="31.4004300" lon="34.6372000">
<ele>110.859993</ele>
<time>2023-01-18T15:57:50.237Z</time>
</trkpt>
<trkpt lat="31.4011900" lon="34.6372600">
<ele>122.020004</ele>
<time>2023-01-18T15:57:50.237Z</time>
</trkpt>
<trkpt lat="31.4017200" lon="34.6375200">
<ele>123.709999</ele>
<time>2023-01-18T15:57:50.237Z</time>
</trkpt>
<trkpt lat="31.4021100" lon="34.6379400">
<ele>116.110001</ele>
<time>2023-01-18T15:57:50.237Z</time>
</trkpt>
<trkpt lat="31.4022600" lon="34.6381300">
<ele>113.340004</ele>
<time>2023-01-18T15:57:50.237Z</time>
</trkpt>
<trkpt lat="31.4025900" lon="34.6380900">
<ele>114.300003</ele>
<time>2023-01-18T15:57:50.237Z</time>
</trkpt>
<trkpt lat="31.4028700" lon="34.6379800">
<ele>115.669998</ele>
<time>2023-01-18T15:57:50.237Z</time>
</trkpt>
<trkpt lat="31.4030200" lon="34.6380200">
<ele>115.129997</ele>
<time>2023-01-18T15:57:50.237Z</time>
</trkpt>
<trkpt lat="31.4030700" lon="34.6381400">
<ele>115.370003</ele>
<time>2023-01-18T15:57:50.237Z</time>
</trkpt>
<trkpt lat="31.4030700" lon="34.6381400">
<ele>115.370003</ele>
<time>2023-01-18T15:57:50.237Z</time>
</trkpt>
<trkpt lat="31.4030700" lon="34.6381400">
<ele>115.370003</ele>
<time>2023-01-18T15:57:50.237Z</time>
</trkpt>
<trkpt lat="31.4031200" lon="34.6382500">
<ele>116.090004</ele>
<time>2023-01-18T15:57:50.237Z</time>
</trkpt>
<trkpt lat="31.4030700" lon="34.6384700">
<ele>118.510002</ele>
<time>2023-01-18T15:57:50.237Z</time>
</trkpt>
<trkpt lat="31.4029300" lon="34.6386400">
<ele>122.470001</ele>
<time>2023-01-18T15:57:50.237Z</time>
</trkpt>
<trkpt lat="31.4026200" lon="34.6388100">
<ele>129.860001</ele>
<time>2023-01-18T15:57:50.237Z</time>
</trkpt>
<trkpt lat="31.4023400" lon="34.6388800">
<ele>126.270004</ele>
<time>2023-01-18T15:57:50.237Z</time>
</trkpt>
<trkpt lat="31.4020900" lon="34.6389300">
<ele>122.780006</ele>
<time>2023-01-18T15:57:50.237Z</time>
</trkpt>
<trkpt lat="31.4018700" lon="34.6389000">
<ele>122.139999</ele>
<time>2023-01-18T15:57:50.237Z</time>
</trkpt>
<trkpt lat="31.4016600" lon="34.6388000">
<ele>118.589996</ele>
<time>2023-01-18T15:57:50.237Z</time>
</trkpt>
<trkpt lat="31.4015000" lon="34.6388600">
<ele>115.699997</ele>
<time>2023-01-18T15:57:50.237Z</time>
</trkpt>
<trkpt lat="31.4014000" lon="34.6389000">
<ele>113.320007</ele>
<time>2023-01-18T15:57:50.237Z</time>
</trkpt>
<trkpt lat="31.4013700" lon="34.6387200">
<ele>113.699997</ele>
<time>2023-01-18T15:57:50.237Z</time>
</trkpt>
<trkpt lat="31.4014700" lon="34.6385100">
<ele>114.580002</ele>
<time>2023-01-18T15:57:50.237Z</time>
</trkpt>
<trkpt lat="31.4013700" lon="34.6381200">
<ele>117.580002</ele>
<time>2023-01-18T15:57:50.237Z</time>
</trkpt>
<trkpt lat="31.4011500" lon="34.6379800">
<ele>115.360001</ele>
<time>2023-01-18T15:57:50.237Z</time>
</trkpt>
<trkpt lat="31.4010700" lon="34.6379700">
<ele>113.879997</ele>
<time>2023-01-18T15:57:50.237Z</time>
</trkpt>
<trkpt lat="31.4009100" lon="34.6379400">
<ele>111.209999</ele>
<time>2023-01-18T15:57:50.237Z</time>
</trkpt>
<trkpt lat="31.4006500" lon="34.6381200">
<ele>110.549995</ele>
<time>2023-01-18T15:57:50.237Z</time>
</trkpt>
<trkpt lat="31.4004300" lon="34.6381200">
<ele>108.830002</ele>
<time>2023-01-18T15:57:50.237Z</time>
</trkpt>
<trkpt lat="31.4002000" lon="34.6382000">
<ele>108.480003</ele>
<time>2023-01-18T15:57:50.237Z</time>
</trkpt>
<trkpt lat="31.4001500" lon="34.6399300">
<ele>121.710007</ele>
<time>2023-01-18T15:57:50.237Z</time>
</trkpt>
<trkpt lat="31.3995700" lon="34.6413600">
<ele>121.360001</ele>
<time>2023-01-18T15:57:50.237Z</time>
</trkpt>
<trkpt lat="31.3991600" lon="34.6426900">
<ele>127.040001</ele>
<time>2023-01-18T15:57:50.237Z</time>
</trkpt>
<trkpt lat="31.3988700" lon="34.6431400">
<ele>130.570007</ele>
<time>2023-01-18T15:57:50.237Z</time>
</trkpt>
<trkpt lat="31.3986100" lon="34.6432300">
<ele>132.509995</ele>
<time>2023-01-18T15:57:50.237Z</time>
</trkpt>
<trkpt lat="31.3986100" lon="34.6432300">
<ele>132.509995</ele>
<time>2023-01-18T15:57:50.237Z</time>
</trkpt>
<trkpt lat="31.3980500" lon="34.6432700">
<ele>135.740005</ele>
<time>2023-01-18T15:57:50.237Z</time>
</trkpt>
<trkpt lat="31.3980500" lon="34.6432700">
<ele>135.740005</ele>
<time>2023-01-18T15:57:50.237Z</time>
</trkpt>
<trkpt lat="31.3977500" lon="34.6438300">
<ele>134.440002</ele>
<time>2023-01-18T15:57:50.237Z</time>
</trkpt>
<trkpt lat="31.3977500" lon="34.6438300">
<ele>134.440002</ele>
<time>2023-01-18T15:57:50.237Z</time>
</trkpt>
<trkpt lat="31.3977200" lon="34.6443200">
<ele>133.139999</ele>
<time>2023-01-18T15:57:50.237Z</time>
</trkpt>
<trkpt lat="31.3977100" lon="34.6463000">
<ele>127.000000</ele>
<time>2023-01-18T15:57:50.237Z</time>
</trkpt>
<trkpt lat="31.3976800" lon="34.6467500">
<ele>124.740005</ele>
<time>2023-01-18T15:57:50.237Z</time>
</trkpt>
<trkpt lat="31.3976800" lon="34.6470300">
<ele>123.400002</ele>
<time>2023-01-18T15:57:50.237Z</time>
</trkpt>
<trkpt lat="31.3977100" lon="34.6475400">
<ele>124.579994</ele>
<time>2023-01-18T15:57:50.237Z</time>
</trkpt>
<trkpt lat="31.3977000" lon="34.6477300">
<ele>124.900002</ele>
<time>2023-01-18T15:57:50.237Z</time>
</trkpt>
<trkpt lat="31.3975900" lon="34.6487700">
<ele>132.899994</ele>
<time>2023-01-18T15:57:50.237Z</time>
</trkpt>
<trkpt lat="31.3975900" lon="34.6488600">
<ele>133.220001</ele>
<time>2023-01-18T15:57:50.237Z</time>
</trkpt>
<trkpt lat="31.3976300" lon="34.6489300">
<ele>133.690002</ele>
<time>2023-01-18T15:57:50.237Z</time>
</trkpt>
<trkpt lat="31.3976900" lon="34.6489600">
<ele>134.119995</ele>
<time>2023-01-18T15:57:50.237Z</time>
</trkpt>
<trkpt lat="31.3976900" lon="34.6489600">
<ele>134.119995</ele>
<time>2023-01-18T15:57:50.237Z</time>
</trkpt>
<trkpt lat="31.3976900" lon="34.6489600">
<ele>134.119995</ele>
<time>2023-01-18T15:57:50.237Z</time>
</trkpt>
<trkpt lat="31.3976700" lon="34.6495100">
<ele>131.479996</ele>
<time>2023-01-18T15:57:50.237Z</time>
</trkpt>
<trkpt lat="31.3976400" lon="34.6500600">
<ele>131.360001</ele>
<time>2023-01-18T15:57:50.237Z</time>
</trkpt>
<trkpt lat="31.3976200" lon="34.6506200">
<ele>128.460007</ele>
<time>2023-01-18T15:57:50.237Z</time>
</trkpt>
<trkpt lat="31.3976000" lon="34.6511700">
<ele>131.940002</ele>
<time>2023-01-18T15:57:50.237Z</time>
</trkpt>
<trkpt lat="31.3975700" lon="34.6517200">
<ele>136.510010</ele>
<time>2023-01-18T15:57:50.237Z</time>
</trkpt>
<trkpt lat="31.3975500" lon="34.6522700">
<ele>136.089996</ele>
<time>2023-01-18T15:57:50.237Z</time>
</trkpt>
<trkpt lat="31.3975500" lon="34.6522700">
<ele>136.089996</ele>
<time>2023-01-18T15:57:50.237Z</time>
</trkpt>
<trkpt lat="31.3975800" lon="34.6530300">
<ele>139.680008</ele>
<time>2023-01-18T15:57:50.237Z</time>
</trkpt>
<trkpt lat="31.3976100" lon="34.6537900">
<ele>138.750000</ele>
<time>2023-01-18T15:57:50.237Z</time>
</trkpt>
<trkpt lat="31.3976100" lon="34.6537900">
<ele>138.750000</ele>
<time>2023-01-18T15:57:50.237Z</time>
</trkpt>
<trkpt lat="31.3977800" lon="34.6541900">
<ele>135.839996</ele>
<time>2023-01-18T15:57:50.237Z</time>
</trkpt>
<trkpt lat="31.3977800" lon="34.6541900">
<ele>135.839996</ele>
<time>2023-01-18T15:57:50.237Z</time>
</trkpt>
<trkpt lat="31.3977600" lon="34.6546100">
<ele>131.750000</ele>
<time>2023-01-18T15:57:50.237Z</time>
</trkpt>
<trkpt lat="31.3977600" lon="34.6546100">
<ele>131.750000</ele>
<time>2023-01-18T15:57:50.237Z</time>
</trkpt>
<trkpt lat="31.3972400" lon="34.6548000">
<ele>123.180000</ele>
<time>2023-01-18T15:57:50.237Z</time>
</trkpt>
<trkpt lat="31.3967200" lon="34.6549800">
<ele>130.309998</ele>
<time>2023-01-18T15:57:50.237Z</time>
</trkpt>
<trkpt lat="31.3967200" lon="34.6549800">
<ele>130.309998</ele>
<time>2023-01-18T15:57:50.237Z</time>
</trkpt>
<trkpt lat="31.3962700" lon="34.6552400">
<ele>125.750000</ele>
<time>2023-01-18T15:57:50.237Z</time>
</trkpt>
<trkpt lat="31.3958100" lon="34.6555000">
<ele>129.750000</ele>
<time>2023-01-18T15:57:50.237Z</time>
</trkpt>
<trkpt lat="31.3953600" lon="34.6557600">
<ele>130.449997</ele>
<time>2023-01-18T15:57:50.237Z</time>
</trkpt>
<trkpt lat="31.3953600" lon="34.6557600">
<ele>130.449997</ele>
<time>2023-01-18T15:57:50.237Z</time>
</trkpt>
<trkpt lat="31.3951800" lon="34.6562100">
<ele>125.320000</ele>
<time>2023-01-18T15:57:50.237Z</time>
</trkpt>
<trkpt lat="31.3951800" lon="34.6562100">
<ele>125.320000</ele>
<time>2023-01-18T15:57:50.237Z</time>
</trkpt>
<trkpt lat="31.3951800" lon="34.6567800">
<ele>126.249992</ele>
<time>2023-01-18T15:57:50.237Z</time>
</trkpt>
<trkpt lat="31.3951800" lon="34.6573500">
<ele>130.919998</ele>
<time>2023-01-18T15:57:50.237Z</time>
</trkpt>
<trkpt lat="31.3951800" lon="34.6579200">
<ele>128.649994</ele>
<time>2023-01-18T15:57:50.237Z</time>
</trkpt>
<trkpt lat="31.3951800" lon="34.6579200">
<ele>128.649994</ele>
<time>2023-01-18T15:57:50.237Z</time>
</trkpt>
<trkpt lat="31.3951600" lon="34.6589300">
<ele>137.419998</ele>
<time>2023-01-18T15:57:50.237Z</time>
</trkpt>
<trkpt lat="31.3951600" lon="34.6589300">
<ele>137.419998</ele>
<time>2023-01-18T15:57:50.237Z</time>
</trkpt>
<trkpt lat="31.3951300" lon="34.6595700">
<ele>137.959991</ele>
<time>2023-01-18T15:57:50.237Z</time>
</trkpt>
<trkpt lat="31.3951300" lon="34.6595700">
<ele>137.959991</ele>
<time>2023-01-18T15:57:50.237Z</time>
</trkpt>
<trkpt lat="31.3955000" lon="34.6603500">
<ele>141.009995</ele>
<time>2023-01-18T15:57:50.237Z</time>
</trkpt>
<trkpt lat="31.3955000" lon="34.6603500">
<ele>141.009995</ele>
<time>2023-01-18T15:57:50.237Z</time>
</trkpt>
<trkpt lat="31.3956500" lon="34.6607100">
<ele>141.089996</ele>
<time>2023-01-18T15:57:50.237Z</time>
</trkpt>
<trkpt lat="31.3956500" lon="34.6607100">
<ele>141.089996</ele>
<time>2023-01-18T15:57:50.237Z</time>
</trkpt>
<trkpt lat="31.3957500" lon="34.6612200">
<ele>137.369995</ele>
<time>2023-01-18T15:57:50.237Z</time>
</trkpt>
<trkpt lat="31.3957500" lon="34.6612200">
<ele>137.369995</ele>
<time>2023-01-18T15:57:50.237Z</time>
</trkpt>
<trkpt lat="31.3960400" lon="34.6621300">
<ele>139.710007</ele>
<time>2023-01-18T15:57:50.237Z</time>
</trkpt>
<trkpt lat="31.3960400" lon="34.6621300">
<ele>139.710007</ele>
<time>2023-01-18T15:57:50.237Z</time>
</trkpt>
<trkpt lat="31.3963800" lon="34.6630800">
<ele>143.490005</ele>
<time>2023-01-18T15:57:50.237Z</time>
</trkpt>
<trkpt lat="31.3963800" lon="34.6630800">
<ele>143.490005</ele>
<time>2023-01-18T15:57:50.237Z</time>
</trkpt>
<trkpt lat="31.3965700" lon="34.6636900">
<ele>135.830002</ele>
<time>2023-01-18T15:57:50.237Z</time>
</trkpt>
<trkpt lat="31.3965700" lon="34.6636900">
<ele>135.830002</ele>
<time>2023-01-18T15:57:50.237Z</time>
</trkpt>
<trkpt lat="31.3966200" lon="34.6640700">
<ele>130.589996</ele>
<time>2023-01-18T15:57:50.237Z</time>
</trkpt>
<trkpt lat="31.3966200" lon="34.6640700">
<ele>130.589996</ele>
<time>2023-01-18T15:57:50.237Z</time>
</trkpt>
<trkpt lat="31.3965700" lon="34.6646200">
<ele>123.449997</ele>
<time>2023-01-18T15:57:50.237Z</time>
</trkpt>
<trkpt lat="31.3965700" lon="34.6646200">
<ele>123.449997</ele>
<time>2023-01-18T15:57:50.237Z</time>
</trkpt>
<trkpt lat="31.3965600" lon="34.6649600">
<ele>120.870003</ele>
<time>2023-01-18T15:57:50.237Z</time>
</trkpt>
<trkpt lat="31.3965600" lon="34.6649600">
<ele>120.870003</ele>
<time>2023-01-18T15:57:50.237Z</time>
</trkpt>
<trkpt lat="31.3965200" lon="34.6652000">
<ele>120.430000</ele>
<time>2023-01-18T15:57:50.237Z</time>
</trkpt>
<trkpt lat="31.3965200" lon="34.6652000">
<ele>120.430000</ele>
<time>2023-01-18T15:57:50.237Z</time>
</trkpt>
<trkpt lat="31.3965200" lon="34.6652200">
<ele>120.309998</ele>
<time>2023-01-18T15:57:50.237Z</time>
</trkpt>
<trkpt lat="31.3960700" lon="34.6652900">
<ele>117.569992</ele>
<time>2023-01-18T15:57:50.237Z</time>
</trkpt>
<trkpt lat="31.3953600" lon="34.6655200">
<ele>118.169998</ele>
<time>2023-01-18T15:57:50.237Z</time>
</trkpt>
<trkpt lat="31.3946600" lon="34.6658700">
<ele>129.569992</ele>
<time>2023-01-18T15:57:50.237Z</time>
</trkpt>
<trkpt lat="31.3946600" lon="34.6658700">
<ele>129.569992</ele>
<time>2023-01-18T15:57:50.237Z</time>
</trkpt>
<trkpt lat="31.3945400" lon="34.6662400">
<ele>127.299995</ele>
<time>2023-01-18T15:57:50.237Z</time>
</trkpt>
<trkpt lat="31.3945400" lon="34.6662400">
<ele>127.299995</ele>
<time>2023-01-18T15:57:50.237Z</time>
</trkpt>
<trkpt lat="31.3944600" lon="34.6665800">
<ele>126.859993</ele>
<time>2023-01-18T15:57:50.237Z</time>
</trkpt>
<trkpt lat="31.3944600" lon="34.6665800">
<ele>126.859993</ele>
<time>2023-01-18T15:57:50.237Z</time>
</trkpt>
<trkpt lat="31.3944400" lon="34.6667700">
<ele>127.800003</ele>
<time>2023-01-18T15:57:50.237Z</time>
</trkpt>
<trkpt lat="31.3944400" lon="34.6667700">
<ele>127.800003</ele>
<time>2023-01-18T15:57:50.237Z</time>
</trkpt>
<trkpt lat="31.3944400" lon="34.6671400">
<ele>126.770004</ele>
<time>2023-01-18T15:57:50.237Z</time>
</trkpt>
<trkpt lat="31.3944400" lon="34.6671400">
<ele>126.770004</ele>
<time>2023-01-18T15:57:50.237Z</time>
</trkpt>
<trkpt lat="31.3944300" lon="34.6675000">
<ele>125.000000</ele>
<time>2023-01-18T15:57:50.237Z</time>
</trkpt>
<trkpt lat="31.3944300" lon="34.6675000">
<ele>125.000000</ele>
<time>2023-01-18T15:57:50.237Z</time>
</trkpt>
<trkpt lat="31.3944100" lon="34.6680100">
<ele>124.570000</ele>
<time>2023-01-18T15:57:50.237Z</time>
</trkpt>
<trkpt lat="31.3944100" lon="34.6680100">
<ele>124.570000</ele>
<time>2023-01-18T15:57:50.237Z</time>
</trkpt>
<trkpt lat="31.3944000" lon="34.6685700">
<ele>125.060005</ele>
<time>2023-01-18T15:57:50.237Z</time>
</trkpt>
<trkpt lat="31.3944000" lon="34.6685700">
<ele>125.060005</ele>
<time>2023-01-18T15:57:50.237Z</time>
</trkpt>
<trkpt lat="31.3944300" lon="34.6691900">
<ele>126.059998</ele>
<time>2023-01-18T15:57:50.237Z</time>
</trkpt>
<trkpt lat="31.3944300" lon="34.6691900">
<ele>126.059998</ele>
<time>2023-01-18T15:57:50.237Z</time>
</trkpt>
<trkpt lat="31.3944600" lon="34.6699000">
<ele>128.239990</ele>
<time>2023-01-18T15:57:50.237Z</time>
</trkpt>
<trkpt lat="31.3944600" lon="34.6699000">
<ele>128.239990</ele>
<time>2023-01-18T15:57:50.237Z</time>
</trkpt>
<trkpt lat="31.3945100" lon="34.6708300">
<ele>126.259995</ele>
<time>2023-01-18T15:57:50.237Z</time>
</trkpt>
<trkpt lat="31.3945100" lon="34.6708300">
<ele>126.259995</ele>
<time>2023-01-18T15:57:50.237Z</time>
</trkpt>
<trkpt lat="31.3945600" lon="34.6718000">
<ele>127.540001</ele>
<time>2023-01-18T15:57:50.237Z</time>
</trkpt>
<trkpt lat="31.3945600" lon="34.6718000">
<ele>127.540001</ele>
<time>2023-01-18T15:57:50.237Z</time>
</trkpt>
<trkpt lat="31.3945600" lon="34.6723400">
<ele>131.309998</ele>
<time>2023-01-18T15:57:50.237Z</time>
</trkpt>
<trkpt lat="31.3945600" lon="34.6728700">
<ele>128.500000</ele>
<time>2023-01-18T15:57:50.237Z</time>
</trkpt>
<trkpt lat="31.3945600" lon="34.6728700">
<ele>128.500000</ele>
<time>2023-01-18T15:57:50.237Z</time>
</trkpt>
<trkpt lat="31.3946000" lon="34.6734400">
<ele>129.940002</ele>
<time>2023-01-18T15:57:50.237Z</time>
</trkpt>
<trkpt lat="31.3946400" lon="34.6740100">
<ele>133.150009</ele>
<time>2023-01-18T15:57:50.237Z</time>
</trkpt>
<trkpt lat="31.3946400" lon="34.6740100">
<ele>133.150009</ele>
<time>2023-01-18T15:57:50.237Z</time>
</trkpt>
<trkpt lat="31.3946700" lon="34.6748200">
<ele>133.750000</ele>
<time>2023-01-18T15:57:50.237Z</time>
</trkpt>
<trkpt lat="31.3946700" lon="34.6748200">
<ele>133.750000</ele>
<time>2023-01-18T15:57:50.237Z</time>
</trkpt>
<trkpt lat="31.3947000" lon="34.6753800">
<ele>130.789993</ele>
<time>2023-01-18T15:57:50.237Z</time>
</trkpt>
<trkpt lat="31.3947000" lon="34.6753800">
<ele>130.789993</ele>
<time>2023-01-18T15:57:50.237Z</time>
</trkpt>
<trkpt lat="31.3947600" lon="34.6759400">
<ele>133.940002</ele>
<time>2023-01-18T15:57:50.237Z</time>
</trkpt>
<trkpt lat="31.3947600" lon="34.6759400">
<ele>133.940002</ele>
<time>2023-01-18T15:57:50.237Z</time>
</trkpt>
<trkpt lat="31.3948000" lon="34.6764000">
<ele>134.459991</ele>
<time>2023-01-18T15:57:50.237Z</time>
</trkpt>
<trkpt lat="31.3948000" lon="34.6764000">
<ele>134.459991</ele>
<time>2023-01-18T15:57:50.237Z</time>
</trkpt>
<trkpt lat="31.3948000" lon="34.6770200">
<ele>136.800003</ele>
<time>2023-01-18T15:57:50.237Z</time>
</trkpt>
<trkpt lat="31.3948000" lon="34.6770200">
<ele>136.800003</ele>
<time>2023-01-18T15:57:50.237Z</time>
</trkpt>
<trkpt lat="31.3947800" lon="34.6773200">
<ele>138.250000</ele>
<time>2023-01-18T15:57:50.237Z</time>
</trkpt>
<trkpt lat="31.3947800" lon="34.6773200">
<ele>138.250000</ele>
<time>2023-01-18T15:57:50.237Z</time>
</trkpt>
<trkpt lat="31.3947400" lon="34.6774600">
<ele>141.149994</ele>
<time>2023-01-18T15:57:50.237Z</time>
</trkpt>
<trkpt lat="31.3947400" lon="34.6774600">
<ele>141.149994</ele>
<time>2023-01-18T15:57:50.237Z</time>
</trkpt>
<trkpt lat="31.3946700" lon="34.6775900">
<ele>139.479996</ele>
<time>2023-01-18T15:57:50.237Z</time>
</trkpt>
<trkpt lat="31.3946700" lon="34.6775900">
<ele>139.479996</ele>
<time>2023-01-18T15:57:50.237Z</time>
</trkpt>
<trkpt lat="31.3945700" lon="34.6777000">
<ele>134.440002</ele>
<time>2023-01-18T15:57:50.237Z</time>
</trkpt>
<trkpt lat="31.3945700" lon="34.6777000">
<ele>134.440002</ele>
<time>2023-01-18T15:57:50.237Z</time>
</trkpt>
<trkpt lat="31.3944900" lon="34.6777700">
<ele>130.089996</ele>
<time>2023-01-18T15:57:50.237Z</time>
</trkpt>
<trkpt lat="31.3944900" lon="34.6777700">
<ele>130.089996</ele>
<time>2023-01-18T15:57:50.237Z</time>
</trkpt>
<trkpt lat="31.3944900" lon="34.6777700">
<ele>130.089996</ele>
<time>2023-01-18T15:57:50.237Z</time>
</trkpt>
<trkpt lat="31.3932500" lon="34.6783000">
<ele>130.209991</ele>
<time>2023-01-18T15:57:50.237Z</time>
</trkpt>
<trkpt lat="31.3930000" lon="34.6783300">
<ele>127.670006</ele>
<time>2023-01-18T15:57:50.237Z</time>
</trkpt>
<trkpt lat="31.3928500" lon="34.6783100">
<ele>132.529999</ele>
<time>2023-01-18T15:57:50.237Z</time>
</trkpt>
<trkpt lat="31.3929400" lon="34.6784600">
<ele>131.419998</ele>
<time>2023-01-18T15:57:50.237Z</time>
</trkpt>
<trkpt lat="31.3929500" lon="34.6786800">
<ele>134.489990</ele>
<time>2023-01-18T15:57:50.237Z</time>
</trkpt>
<trkpt lat="31.3928300" lon="34.6790000">
<ele>137.800003</ele>
<time>2023-01-18T15:57:50.237Z</time>
</trkpt>
<trkpt lat="31.3927300" lon="34.6793300">
<ele>140.250000</ele>
<time>2023-01-18T15:57:50.237Z</time>
</trkpt>
<trkpt lat="31.3926600" lon="34.6795900">
<ele>142.869995</ele>
<time>2023-01-18T15:57:50.237Z</time>
</trkpt>
<trkpt lat="31.3926400" lon="34.6797700">
<ele>145.110001</ele>
<time>2023-01-18T15:57:50.237Z</time>
</trkpt>
<trkpt lat="31.3926400" lon="34.6797700">
<ele>145.110001</ele>
<time>2023-01-18T15:57:50.237Z</time>
</trkpt>
<trkpt lat="31.3925900" lon="34.6804300">
<ele>152.720001</ele>
<time>2023-01-18T15:57:50.237Z</time>
</trkpt>
<trkpt lat="31.3925900" lon="34.6804300">
<ele>152.720001</ele>
<time>2023-01-18T15:57:50.237Z</time>
</trkpt>
<trkpt lat="31.3921600" lon="34.6804600">
<ele>149.760010</ele>
<time>2023-01-18T15:57:50.237Z</time>
</trkpt>
<trkpt lat="31.3921600" lon="34.6804600">
<ele>149.760010</ele>
<time>2023-01-18T15:57:50.237Z</time>
</trkpt>
<trkpt lat="31.3919400" lon="34.6802900">
<ele>150.169998</ele>
<time>2023-01-18T15:57:50.237Z</time>
</trkpt>
<trkpt lat="31.3919400" lon="34.6802900">
<ele>150.169998</ele>
<time>2023-01-18T15:57:50.237Z</time>
</trkpt>
<trkpt lat="31.3918100" lon="34.6803200">
<ele>152.650009</ele>
<time>2023-01-18T15:57:50.237Z</time>
</trkpt>
<trkpt lat="31.3918100" lon="34.6803200">
<ele>152.650009</ele>
<time>2023-01-18T15:57:50.237Z</time>
</trkpt>
<trkpt lat="31.3916200" lon="34.6801800">
<ele>154.800003</ele>
<time>2023-01-18T15:57:50.237Z</time>
</trkpt>
<trkpt lat="31.3916200" lon="34.6801800">
<ele>154.800003</ele>
<time>2023-01-18T15:57:50.237Z</time>
</trkpt>
<trkpt lat="31.3914100" lon="34.6802100">
<ele>157.279999</ele>
<time>2023-01-18T15:57:50.237Z</time>
</trkpt>
<trkpt lat="31.3914100" lon="34.6802100">
<ele>157.279999</ele>
<time>2023-01-18T15:57:50.237Z</time>
</trkpt>
<trkpt lat="31.3912100" lon="34.6803500">
<ele>159.979996</ele>
<time>2023-01-18T15:57:50.237Z</time>
</trkpt>
<trkpt lat="31.3912100" lon="34.6803500">
<ele>159.979996</ele>
<time>2023-01-18T15:57:50.237Z</time>
</trkpt>
<trkpt lat="31.3910500" lon="34.6804800">
<ele>161.800003</ele>
<time>2023-01-18T15:57:50.237Z</time>
</trkpt>
<trkpt lat="31.3910500" lon="34.6804800">
<ele>161.800003</ele>
<time>2023-01-18T15:57:50.237Z</time>
</trkpt>
<trkpt lat="31.3909500" lon="34.6804900">
<ele>161.270004</ele>
<time>2023-01-18T15:57:50.237Z</time>
</trkpt>
<trkpt lat="31.3909500" lon="34.6804900">
<ele>161.270004</ele>
<time>2023-01-18T15:57:50.237Z</time>
</trkpt>
<trkpt lat="31.3909100" lon="34.6803100">
<ele>159.539993</ele>
<time>2023-01-18T15:57:50.237Z</time>
</trkpt>
<trkpt lat="31.3909100" lon="34.6803100">
<ele>159.539993</ele>
<time>2023-01-18T15:57:50.237Z</time>
</trkpt>
<trkpt lat="31.3911800" lon="34.6802500">
<ele>159.300003</ele>
<time>2023-01-18T15:57:50.237Z</time>
</trkpt>
<trkpt lat="31.3911800" lon="34.6802500">
<ele>159.300003</ele>
<time>2023-01-18T15:57:50.237Z</time>
</trkpt>
<trkpt lat="31.3911700" lon="34.6798200">
<ele>156.649994</ele>
<time>2023-01-18T15:57:50.237Z</time>
</trkpt>
<trkpt lat="31.3911700" lon="34.6798200">
<ele>156.649994</ele>
<time>2023-01-18T15:57:50.237Z</time>
</trkpt>
<trkpt lat="31.3907000" lon="34.6794400">
<ele>162.060013</ele>
<time>2023-01-18T15:57:50.237Z</time>
</trkpt>
<trkpt lat="31.3907000" lon="34.6794400">
<ele>162.060013</ele>
<time>2023-01-18T15:57:50.237Z</time>
</trkpt>
<trkpt lat="31.3904600" lon="34.6792800">
<ele>154.190002</ele>
<time>2023-01-18T15:57:50.237Z</time>
</trkpt>
<trkpt lat="31.3904600" lon="34.6792800">
<ele>154.190002</ele>
<time>2023-01-18T15:57:50.237Z</time>
</trkpt>
<trkpt lat="31.3904500" lon="34.6788500">
<ele>143.550003</ele>
<time>2023-01-18T15:57:50.237Z</time>
</trkpt>
<trkpt lat="31.3904500" lon="34.6788500">
<ele>143.550003</ele>
<time>2023-01-18T15:57:50.237Z</time>
</trkpt>
<trkpt lat="31.3903800" lon="34.6784300">
<ele>137.929993</ele>
<time>2023-01-18T15:57:50.237Z</time>
</trkpt>
<trkpt lat="31.3903800" lon="34.6784300">
<ele>137.929993</ele>
<time>2023-01-18T15:57:50.237Z</time>
</trkpt>
<trkpt lat="31.3901500" lon="34.6781100">
<ele>140.869995</ele>
<time>2023-01-18T15:57:50.237Z</time>
</trkpt>
<trkpt lat="31.3901500" lon="34.6781100">
<ele>140.869995</ele>
<time>2023-01-18T15:57:50.237Z</time>
</trkpt>
<trkpt lat="31.3899100" lon="34.6778000">
<ele>145.729996</ele>
<time>2023-01-18T15:57:50.237Z</time>
</trkpt>
<trkpt lat="31.3899100" lon="34.6778000">
<ele>145.729996</ele>
<time>2023-01-18T15:57:50.237Z</time>
</trkpt>
<trkpt lat="31.3898200" lon="34.6775800">
<ele>145.790009</ele>
<time>2023-01-18T15:57:50.237Z</time>
</trkpt>
<trkpt lat="31.3898200" lon="34.6775800">
<ele>145.790009</ele>
<time>2023-01-18T15:57:50.237Z</time>
</trkpt>
<trkpt lat="31.3897800" lon="34.6773800">
<ele>144.209991</ele>
<time>2023-01-18T15:57:50.237Z</time>
</trkpt>
<trkpt lat="31.3897800" lon="34.6773800">
<ele>144.209991</ele>
<time>2023-01-18T15:57:50.237Z</time>
</trkpt>
<trkpt lat="31.3896800" lon="34.6771900">
<ele>141.009995</ele>
<time>2023-01-18T15:57:50.237Z</time>
</trkpt>
<trkpt lat="31.3896800" lon="34.6771900">
<ele>141.009995</ele>
<time>2023-01-18T15:57:50.237Z</time>
</trkpt>
<trkpt lat="31.3896500" lon="34.6768500">
<ele>136.259995</ele>
<time>2023-01-18T15:57:50.237Z</time>
</trkpt>
<trkpt lat="31.3896500" lon="34.6768500">
<ele>136.259995</ele>
<time>2023-01-18T15:57:50.237Z</time>
</trkpt>
<trkpt lat="31.3897400" lon="34.6766000">
<ele>134.789993</ele>
<time>2023-01-18T15:57:50.237Z</time>
</trkpt>
<trkpt lat="31.3897400" lon="34.6766000">
<ele>134.789993</ele>
<time>2023-01-18T15:57:50.237Z</time>
</trkpt>
<trkpt lat="31.3898900" lon="34.6764600">
<ele>135.179993</ele>
<time>2023-01-18T15:57:50.237Z</time>
</trkpt>
<trkpt lat="31.3898900" lon="34.6764600">
<ele>135.179993</ele>
<time>2023-01-18T15:57:50.237Z</time>
</trkpt>
<trkpt lat="31.3900600" lon="34.6763400">
<ele>134.330002</ele>
<time>2023-01-18T15:57:50.237Z</time>
</trkpt>
<trkpt lat="31.3900600" lon="34.6763400">
<ele>134.330002</ele>
<time>2023-01-18T15:57:50.237Z</time>
</trkpt>
<trkpt lat="31.3901700" lon="34.6763300">
<ele>134.009995</ele>
<time>2023-01-18T15:57:50.237Z</time>
</trkpt>
<trkpt lat="31.3901700" lon="34.6763300">
<ele>134.009995</ele>
<time>2023-01-18T15:57:50.237Z</time>
</trkpt>
<trkpt lat="31.3903000" lon="34.6762800">
<ele>133.790009</ele>
<time>2023-01-18T15:57:50.237Z</time>
</trkpt>
<trkpt lat="31.3903000" lon="34.6762800">
<ele>133.790009</ele>
<time>2023-01-18T15:57:50.237Z</time>
</trkpt>
<trkpt lat="31.3903700" lon="34.6764900">
<ele>136.820007</ele>
<time>2023-01-18T15:57:50.237Z</time>
</trkpt>
<trkpt lat="31.3903700" lon="34.6764900">
<ele>136.820007</ele>
<time>2023-01-18T15:57:50.237Z</time>
</trkpt>
<trkpt lat="31.3904400" lon="34.6767000">
<ele>141.429993</ele>
<time>2023-01-18T15:57:50.237Z</time>
</trkpt>
<trkpt lat="31.3904400" lon="34.6767000">
<ele>141.429993</ele>
<time>2023-01-18T15:57:50.237Z</time>
</trkpt>
<trkpt lat="31.3904600" lon="34.6769400">
<ele>146.260010</ele>
<time>2023-01-18T15:57:50.237Z</time>
</trkpt>
<trkpt lat="31.3904600" lon="34.6769400">
<ele>146.260010</ele>
<time>2023-01-18T15:57:50.237Z</time>
</trkpt>
<trkpt lat="31.3905900" lon="34.6770100">
<ele>146.699997</ele>
<time>2023-01-18T15:57:50.237Z</time>
</trkpt>
<trkpt lat="31.3905900" lon="34.6770100">
<ele>146.699997</ele>
<time>2023-01-18T15:57:50.237Z</time>
</trkpt>
<trkpt lat="31.3907800" lon="34.6769900">
<ele>145.320007</ele>
<time>2023-01-18T15:57:50.237Z</time>
</trkpt>
<trkpt lat="31.3907800" lon="34.6769900">
<ele>145.320007</ele>
<time>2023-01-18T15:57:50.237Z</time>
</trkpt>
<trkpt lat="31.3909800" lon="34.6770300">
<ele>145.000000</ele>
<time>2023-01-18T15:57:50.237Z</time>
</trkpt>
<trkpt lat="31.3909800" lon="34.6770300">
<ele>145.000000</ele>
<time>2023-01-18T15:57:50.237Z</time>
</trkpt>
<trkpt lat="31.3912200" lon="34.6770400">
<ele>146.179993</ele>
<time>2023-01-18T15:57:50.237Z</time>
</trkpt>
<trkpt lat="31.3912200" lon="34.6770400">
<ele>146.179993</ele>
<time>2023-01-18T15:57:50.237Z</time>
</trkpt>
<trkpt lat="31.3913900" lon="34.6770300">
<ele>148.000000</ele>
<time>2023-01-18T15:57:50.237Z</time>
</trkpt>
<trkpt lat="31.3913900" lon="34.6770300">
<ele>148.000000</ele>
<time>2023-01-18T15:57:50.237Z</time>
</trkpt>
<trkpt lat="31.3915000" lon="34.6769200">
<ele>148.380005</ele>
<time>2023-01-18T15:57:50.237Z</time>
</trkpt>
<trkpt lat="31.3915000" lon="34.6769200">
<ele>148.380005</ele>
<time>2023-01-18T15:57:50.237Z</time>
</trkpt>
<trkpt lat="31.3915600" lon="34.6762400">
<ele>147.029999</ele>
<time>2023-01-18T15:57:50.237Z</time>
</trkpt>
<trkpt lat="31.3915600" lon="34.6762400">
<ele>147.029999</ele>
<time>2023-01-18T15:57:50.237Z</time>
</trkpt>
<trkpt lat="31.3915400" lon="34.6758000">
<ele>147.630005</ele>
<time>2023-01-18T15:57:50.237Z</time>
</trkpt>
<trkpt lat="31.3915400" lon="34.6758000">
<ele>147.630005</ele>
<time>2023-01-18T15:57:50.237Z</time>
</trkpt>
<trkpt lat="31.3918200" lon="34.6751800">
<ele>149.160004</ele>
<time>2023-01-18T15:57:50.237Z</time>
</trkpt>
<trkpt lat="31.3918200" lon="34.6751800">
<ele>149.160004</ele>
<time>2023-01-18T15:57:50.237Z</time>
</trkpt>
<trkpt lat="31.3917400" lon="34.6749400">
<ele>149.509995</ele>
<time>2023-01-18T15:57:50.237Z</time>
</trkpt>
<trkpt lat="31.3917400" lon="34.6749400">
<ele>149.509995</ele>
<time>2023-01-18T15:57:50.237Z</time>
</trkpt>
<trkpt lat="31.3914800" lon="34.6742000">
<ele>154.270004</ele>
<time>2023-01-18T15:57:50.237Z</time>
</trkpt>
<trkpt lat="31.3913900" lon="34.6740500">
<ele>154.149994</ele>
<time>2023-01-18T15:57:50.237Z</time>
</trkpt>
<trkpt lat="31.3911200" lon="34.6737500">
<ele>151.949997</ele>
<time>2023-01-18T15:57:50.237Z</time>
</trkpt>
<trkpt lat="31.3910400" lon="34.6735900">
<ele>150.699997</ele>
<time>2023-01-18T15:57:50.237Z</time>
</trkpt>
<trkpt lat="31.3910000" lon="34.6734500">
<ele>149.029999</ele>
<time>2023-01-18T15:57:50.237Z</time>
</trkpt>
<trkpt lat="31.3909100" lon="34.6727700">
<ele>142.279999</ele>
<time>2023-01-18T15:57:50.237Z</time>
</trkpt>
<trkpt lat="31.3908900" lon="34.6723400">
<ele>139.270004</ele>
<time>2023-01-18T15:57:50.237Z</time>
</trkpt>
<trkpt lat="31.3909200" lon="34.6721100">
<ele>138.500000</ele>
<time>2023-01-18T15:57:50.237Z</time>
</trkpt>
<trkpt lat="31.3910000" lon="34.6718000">
<ele>137.880005</ele>
<time>2023-01-18T15:57:50.237Z</time>
</trkpt>
<trkpt lat="31.3910100" lon="34.6717100">
<ele>137.519989</ele>
<time>2023-01-18T15:57:50.237Z</time>
</trkpt>
<trkpt lat="31.3909700" lon="34.6715700">
<ele>137.160004</ele>
<time>2023-01-18T15:57:50.237Z</time>
</trkpt>
<trkpt lat="31.3908000" lon="34.6710500">
<ele>138.669998</ele>
<time>2023-01-18T15:57:50.237Z</time>
</trkpt>
<trkpt lat="31.3907400" lon="34.6708200">
<ele>138.330002</ele>
<time>2023-01-18T15:57:50.237Z</time>
</trkpt>
<trkpt lat="31.3907000" lon="34.6703600">
<ele>136.940002</ele>
<time>2023-01-18T15:57:50.237Z</time>
</trkpt>
<trkpt lat="31.3907000" lon="34.6702100">
<ele>136.110001</ele>
<time>2023-01-18T15:57:50.237Z</time>
</trkpt>
<trkpt lat="31.3907400" lon="34.6698200">
<ele>133.809998</ele>
<time>2023-01-18T15:57:50.237Z</time>
</trkpt>
<trkpt lat="31.3910100" lon="34.6692200">
<ele>133.460007</ele>
<time>2023-01-18T15:57:50.237Z</time>
</trkpt>
<trkpt lat="31.3910600" lon="34.6690100">
<ele>132.360001</ele>
<time>2023-01-18T15:57:50.237Z</time>
</trkpt>
<trkpt lat="31.3910600" lon="34.6687700">
<ele>131.180008</ele>
<time>2023-01-18T15:57:50.237Z</time>
</trkpt>
<trkpt lat="31.3910500" lon="34.6686400">
<ele>131.139999</ele>
<time>2023-01-18T15:57:50.237Z</time>
</trkpt>
<trkpt lat="31.3910100" lon="34.6685200">
<ele>132.479996</ele>
<time>2023-01-18T15:57:50.237Z</time>
</trkpt>
<trkpt lat="31.3909400" lon="34.6684100">
<ele>134.529999</ele>
<time>2023-01-18T15:57:50.237Z</time>
</trkpt>
<trkpt lat="31.3907600" lon="34.6682600">
<ele>135.940002</ele>
<time>2023-01-18T15:57:50.237Z</time>
</trkpt>
<trkpt lat="31.3906700" lon="34.6681500">
<ele>134.580002</ele>
<time>2023-01-18T15:57:50.237Z</time>
</trkpt>
<trkpt lat="31.3906400" lon="34.6680700">
<ele>133.960007</ele>
<time>2023-01-18T15:57:50.237Z</time>
</trkpt>
<trkpt lat="31.3906100" lon="34.6679700">
<ele>133.470001</ele>
<time>2023-01-18T15:57:50.237Z</time>
</trkpt>
<trkpt lat="31.3906300" lon="34.6675400">
<ele>133.669998</ele>
<time>2023-01-18T15:57:50.237Z</time>
</trkpt>
<trkpt lat="31.3906200" lon="34.6673600">
<ele>135.160004</ele>
<time>2023-01-18T15:57:50.237Z</time>
</trkpt>
<trkpt lat="31.3905800" lon="34.6672500">
<ele>136.529999</ele>
<time>2023-01-18T15:57:50.237Z</time>
</trkpt>
<trkpt lat="31.3905100" lon="34.6671300">
<ele>137.279999</ele>
<time>2023-01-18T15:57:50.237Z</time>
</trkpt>
<trkpt lat="31.3902700" lon="34.6668100">
<ele>139.949997</ele>
<time>2023-01-18T15:57:50.237Z</time>
</trkpt>
<trkpt lat="31.3902700" lon="34.6668100">
<ele>139.949997</ele>
<time>2023-01-18T15:57:50.237Z</time>
</trkpt>
<trkpt lat="31.3902700" lon="34.6668200">
<ele>139.949997</ele>
<time>2023-01-18T15:57:50.237Z</time>
</trkpt>
<trkpt lat="31.3900700" lon="34.6666000">
<ele>140.960007</ele>
<time>2023-01-18T15:57:50.237Z</time>
</trkpt>
<trkpt lat="31.3899400" lon="34.6664900">
<ele>141.000000</ele>
<time>2023-01-18T15:57:50.237Z</time>
</trkpt>
<trkpt lat="31.3896700" lon="34.6663400">
<ele>142.120010</ele>
<time>2023-01-18T15:57:50.237Z</time>
</trkpt>
<trkpt lat="31.3893100" lon="34.6661800">
<ele>143.160004</ele>
<time>2023-01-18T15:57:50.237Z</time>
</trkpt>
<trkpt lat="31.3891500" lon="34.6660900">
<ele>141.789993</ele>
<time>2023-01-18T15:57:50.237Z</time>
</trkpt>
<trkpt lat="31.3890800" lon="34.6660300">
<ele>140.910004</ele>
<time>2023-01-18T15:57:50.237Z</time>
</trkpt>
<trkpt lat="31.3889700" lon="34.6658700">
<ele>136.259995</ele>
<time>2023-01-18T15:57:50.237Z</time>
</trkpt>
<trkpt lat="31.3887800" lon="34.6655300">
<ele>125.589996</ele>
<time>2023-01-18T15:57:50.237Z</time>
</trkpt>
<trkpt lat="31.3885000" lon="34.6654500">
<ele>126.139999</ele>
<time>2023-01-18T15:57:50.237Z</time>
</trkpt>
<trkpt lat="31.3881500" lon="34.6654100">
<ele>127.680000</ele>
<time>2023-01-18T15:57:50.237Z</time>
</trkpt>
<trkpt lat="31.3879000" lon="34.6653700">
<ele>125.240005</ele>
<time>2023-01-18T15:57:50.237Z</time>
</trkpt>
<trkpt lat="31.3876200" lon="34.6652400">
<ele>123.390007</ele>
<time>2023-01-18T15:57:50.237Z</time>
</trkpt>
<trkpt lat="31.3874600" lon="34.6651800">
<ele>123.909996</ele>
<time>2023-01-18T15:57:50.237Z</time>
</trkpt>
<trkpt lat="31.3874900" lon="34.6650700">
<ele>123.990005</ele>
<time>2023-01-18T15:57:50.237Z</time>
</trkpt>
<trkpt lat="31.3875400" lon="34.6641000">
<ele>122.790001</ele>
<time>2023-01-18T15:57:50.237Z</time>
</trkpt>
<trkpt lat="31.3875800" lon="34.6637200">
<ele>122.289993</ele>
<time>2023-01-18T15:57:50.237Z</time>
</trkpt>
<trkpt lat="31.3876100" lon="34.6632200">
<ele>122.259995</ele>
<time>2023-01-18T15:57:50.237Z</time>
</trkpt>
<trkpt lat="31.3876200" lon="34.6628000">
<ele>123.930000</ele>
<time>2023-01-18T15:57:50.237Z</time>
</trkpt>
<trkpt lat="31.3876400" lon="34.6625500">
<ele>124.409996</ele>
<time>2023-01-18T15:57:50.237Z</time>
</trkpt>
<trkpt lat="31.3876700" lon="34.6624300">
<ele>124.610001</ele>
<time>2023-01-18T15:57:50.237Z</time>
</trkpt>
<trkpt lat="31.3876800" lon="34.6623000">
<ele>124.650002</ele>
<time>2023-01-18T15:57:50.237Z</time>
</trkpt>
<trkpt lat="31.3876800" lon="34.6622200">
<ele>124.660004</ele>
<time>2023-01-18T15:57:50.237Z</time>
</trkpt>
<trkpt lat="31.3875500" lon="34.6617400">
<ele>125.649994</ele>
<time>2023-01-18T15:57:50.237Z</time>
</trkpt>
<trkpt lat="31.3875000" lon="34.6614500">
<ele>124.440002</ele>
<time>2023-01-18T15:57:50.237Z</time>
</trkpt>
<trkpt lat="31.3874800" lon="34.6611200">
<ele>122.059998</ele>
<time>2023-01-18T15:57:50.237Z</time>
</trkpt>
<trkpt lat="31.3875300" lon="34.6609100">
<ele>120.690002</ele>
<time>2023-01-18T15:57:50.237Z</time>
</trkpt>
<trkpt lat="31.3875400" lon="34.6605800">
<ele>118.970001</ele>
<time>2023-01-18T15:57:50.237Z</time>
</trkpt>
<trkpt lat="31.3876200" lon="34.6602300">
<ele>116.789993</ele>
<time>2023-01-18T15:57:50.237Z</time>
</trkpt>
<trkpt lat="31.3876200" lon="34.6602300">
<ele>116.789993</ele>
<time>2023-01-18T15:57:50.237Z</time>
</trkpt>
<trkpt lat="31.3876200" lon="34.6602300">
<ele>116.789993</ele>
<time>2023-01-18T15:57:50.237Z</time>
</trkpt>
<trkpt lat="31.3876600" lon="34.6600500">
<ele>115.209999</ele>
<time>2023-01-18T15:57:50.237Z</time>
</trkpt>
<trkpt lat="31.3877700" lon="34.6596600">
<ele>114.290001</ele>
<time>2023-01-18T15:57:50.237Z</time>
</trkpt>
<trkpt lat="31.3877800" lon="34.6594000">
<ele>114.979996</ele>
<time>2023-01-18T15:57:50.237Z</time>
</trkpt>
<trkpt lat="31.3878300" lon="34.6592000">
<ele>114.620003</ele>
<time>2023-01-18T15:57:50.237Z</time>
</trkpt>
<trkpt lat="31.3878600" lon="34.6586500">
<ele>115.660004</ele>
<time>2023-01-18T15:57:50.237Z</time>
</trkpt>
<trkpt lat="31.3879000" lon="34.6583200">
<ele>114.949997</ele>
<time>2023-01-18T15:57:50.237Z</time>
</trkpt>
<trkpt lat="31.3879100" lon="34.6579400">
<ele>113.970001</ele>
<time>2023-01-18T15:57:50.237Z</time>
</trkpt>
<trkpt lat="31.3879500" lon="34.6577400">
<ele>114.270004</ele>
<time>2023-01-18T15:57:50.237Z</time>
</trkpt>
<trkpt lat="31.3879800" lon="34.6574400">
<ele>116.120003</ele>
<time>2023-01-18T15:57:50.237Z</time>
</trkpt>
<trkpt lat="31.3879800" lon="34.6570600">
<ele>117.130005</ele>
<time>2023-01-18T15:57:50.237Z</time>
</trkpt>
<trkpt lat="31.3880500" lon="34.6563100">
<ele>118.029999</ele>
<time>2023-01-18T15:57:50.237Z</time>
</trkpt>
<trkpt lat="31.3880800" lon="34.6558900">
<ele>117.879997</ele>
<time>2023-01-18T15:57:50.237Z</time>
</trkpt>
<trkpt lat="31.3880700" lon="34.6557200">
<ele>118.709999</ele>
<time>2023-01-18T15:57:50.237Z</time>
</trkpt>
<trkpt lat="31.3881000" lon="34.6555100">
<ele>119.760002</ele>
<time>2023-01-18T15:57:50.237Z</time>
</trkpt>
<trkpt lat="31.3881500" lon="34.6547200">
<ele>120.340004</ele>
<time>2023-01-18T15:57:50.237Z</time>
</trkpt>
<trkpt lat="31.3881700" lon="34.6545500">
<ele>120.669998</ele>
<time>2023-01-18T15:57:50.237Z</time>
</trkpt>
<trkpt lat="31.3881700" lon="34.6543800">
<ele>120.690002</ele>
<time>2023-01-18T15:57:50.237Z</time>
</trkpt>
<trkpt lat="31.3882000" lon="34.6542600">
<ele>120.720001</ele>
<time>2023-01-18T15:57:50.237Z</time>
</trkpt>
<trkpt lat="31.3882000" lon="34.6537500">
<ele>119.799995</ele>
<time>2023-01-18T15:57:50.237Z</time>
</trkpt>
<trkpt lat="31.3882200" lon="34.6533700">
<ele>118.830002</ele>
<time>2023-01-18T15:57:50.237Z</time>
</trkpt>
<trkpt lat="31.3882700" lon="34.6530800">
<ele>118.820000</ele>
<time>2023-01-18T15:57:50.237Z</time>
</trkpt>
<trkpt lat="31.3882800" lon="34.6520700">
<ele>120.370003</ele>
<time>2023-01-18T15:57:50.237Z</time>
</trkpt>
<trkpt lat="31.3882100" lon="34.6517500">
<ele>119.529999</ele>
<time>2023-01-18T15:57:50.237Z</time>
</trkpt>
<trkpt lat="31.3881900" lon="34.6515400">
<ele>118.639992</ele>
<time>2023-01-18T15:57:50.237Z</time>
</trkpt>
<trkpt lat="31.3881900" lon="34.6513700">
<ele>117.450005</ele>
<time>2023-01-18T15:57:50.237Z</time>
</trkpt>
<trkpt lat="31.3881400" lon="34.6510000">
<ele>116.659996</ele>
<time>2023-01-18T15:57:50.237Z</time>
</trkpt>
<trkpt lat="31.3881100" lon="34.6507000">
<ele>117.020004</ele>
<time>2023-01-18T15:57:50.237Z</time>
</trkpt>
<trkpt lat="31.3880600" lon="34.6504600">
<ele>117.930000</ele>
<time>2023-01-18T15:57:50.237Z</time>
</trkpt>
<trkpt lat="31.3880500" lon="34.6502900">
<ele>118.080002</ele>
<time>2023-01-18T15:57:50.237Z</time>
</trkpt>
<trkpt lat="31.3880500" lon="34.6499100">
<ele>120.340004</ele>
<time>2023-01-18T15:57:50.237Z</time>
</trkpt>
<trkpt lat="31.3881200" lon="34.6494600">
<ele>117.199997</ele>
<time>2023-01-18T15:57:50.237Z</time>
</trkpt>
<trkpt lat="31.3881300" lon="34.6485300">
<ele>118.060005</ele>
<time>2023-01-18T15:57:50.237Z</time>
</trkpt>
<trkpt lat="31.3881800" lon="34.6481500">
<ele>116.959999</ele>
<time>2023-01-18T15:57:50.237Z</time>
</trkpt>
<trkpt lat="31.3881900" lon="34.6479400">
<ele>115.920006</ele>
<time>2023-01-18T15:57:50.237Z</time>
</trkpt>
<trkpt lat="31.3882400" lon="34.6477900">
<ele>114.730003</ele>
<time>2023-01-18T15:57:50.237Z</time>
</trkpt>
<trkpt lat="31.3884200" lon="34.6474700">
<ele>115.930000</ele>
<time>2023-01-18T15:57:50.237Z</time>
</trkpt>
<trkpt lat="31.3884600" lon="34.6473500">
<ele>116.210007</ele>
<time>2023-01-18T15:57:50.237Z</time>
</trkpt>
<trkpt lat="31.3885200" lon="34.6468100">
<ele>115.330002</ele>
<time>2023-01-18T15:57:50.237Z</time>
</trkpt>
<trkpt lat="31.3885500" lon="34.6466900">
<ele>114.730003</ele>
<time>2023-01-18T15:57:50.237Z</time>
</trkpt>
<trkpt lat="31.3887100" lon="34.6464100">
<ele>112.539993</ele>
<time>2023-01-18T15:57:50.237Z</time>
</trkpt>
<trkpt lat="31.3888200" lon="34.6463000">
<ele>112.029999</ele>
<time>2023-01-18T15:57:50.237Z</time>
</trkpt>
<trkpt lat="31.3889300" lon="34.6462800">
<ele>112.360001</ele>
<time>2023-01-18T15:57:50.237Z</time>
</trkpt>
<trkpt lat="31.3889800" lon="34.6462300">
<ele>112.180000</ele>
<time>2023-01-18T15:57:50.237Z</time>
</trkpt>
<trkpt lat="31.3890500" lon="34.6462100">
<ele>112.290001</ele>
<time>2023-01-18T15:57:50.237Z</time>
</trkpt>
<trkpt lat="31.3891700" lon="34.6462800">
<ele>113.200005</ele>
<time>2023-01-18T15:57:50.237Z</time>
</trkpt>
<trkpt lat="31.3893900" lon="34.6463000">
<ele>111.980003</ele>
<time>2023-01-18T15:57:50.237Z</time>
</trkpt>
<trkpt lat="31.3895500" lon="34.6463700">
<ele>110.730003</ele>
<time>2023-01-18T15:57:50.237Z</time>
</trkpt>
<trkpt lat="31.3900200" lon="34.6463700">
<ele>113.790001</ele>
<time>2023-01-18T15:57:50.237Z</time>
</trkpt>
<trkpt lat="31.3901600" lon="34.6462400">
<ele>113.160004</ele>
<time>2023-01-18T15:57:50.237Z</time>
</trkpt>
<trkpt lat="31.3903000" lon="34.6460500">
<ele>113.170006</ele>
<time>2023-01-18T15:57:50.237Z</time>
</trkpt>
<trkpt lat="31.3905900" lon="34.6457900">
<ele>113.520004</ele>
<time>2023-01-18T15:57:50.237Z</time>
</trkpt>
<trkpt lat="31.3910500" lon="34.6457600">
<ele>114.380005</ele>
<time>2023-01-18T15:57:50.237Z</time>
</trkpt>
<trkpt lat="31.3911500" lon="34.6457100">
<ele>113.540001</ele>
<time>2023-01-18T15:57:50.237Z</time>
</trkpt>
<trkpt lat="31.3912200" lon="34.6456900">
<ele>113.500000</ele>
<time>2023-01-18T15:57:50.237Z</time>
</trkpt>
<trkpt lat="31.3917200" lon="34.6456800">
<ele>115.059998</ele>
<time>2023-01-18T15:57:50.237Z</time>
</trkpt>
<trkpt lat="31.3918100" lon="34.6456200">
<ele>113.840004</ele>
<time>2023-01-18T15:57:50.237Z</time>
</trkpt>
<trkpt lat="31.3919600" lon="34.6456000">
<ele>111.459999</ele>
<time>2023-01-18T15:57:50.237Z</time>
</trkpt>
<trkpt lat="31.3920300" lon="34.6455100">
<ele>111.169998</ele>
<time>2023-01-18T15:57:50.237Z</time>
</trkpt>
<trkpt lat="31.3921000" lon="34.6454100">
<ele>110.059998</ele>
<time>2023-01-18T15:57:50.237Z</time>
</trkpt>
<trkpt lat="31.3921400" lon="34.6453000">
<ele>109.019997</ele>
<time>2023-01-18T15:57:50.237Z</time>
</trkpt>
<trkpt lat="31.3921800" lon="34.6452400">
<ele>108.340004</ele>
<time>2023-01-18T15:57:50.237Z</time>
</trkpt>
<trkpt lat="31.3923600" lon="34.6446900">
<ele>107.550003</ele>
<time>2023-01-18T15:57:50.237Z</time>
</trkpt>
<trkpt lat="31.3924000" lon="34.6446200">
<ele>107.949997</ele>
<time>2023-01-18T15:57:50.237Z</time>
</trkpt>
<trkpt lat="31.3924500" lon="34.6443800">
<ele>107.659996</ele>
<time>2023-01-18T15:57:50.237Z</time>
</trkpt>
<trkpt lat="31.3924700" lon="34.6441200">
<ele>106.510002</ele>
<time>2023-01-18T15:57:50.237Z</time>
</trkpt>
<trkpt lat="31.3925000" lon="34.6439600">
<ele>106.739998</ele>
<time>2023-01-18T15:57:50.237Z</time>
</trkpt>
<trkpt lat="31.3924900" lon="34.6437500">
<ele>107.139999</ele>
<time>2023-01-18T15:57:50.237Z</time>
</trkpt>
<trkpt lat="31.3925100" lon="34.6434100">
<ele>107.199997</ele>
<time>2023-01-18T15:57:50.237Z</time>
</trkpt>
<trkpt lat="31.3925000" lon="34.6426100">
<ele>110.000000</ele>
<time>2023-01-18T15:57:50.237Z</time>
</trkpt>
<trkpt lat="31.3924600" lon="34.6424000">
<ele>110.000000</ele>
<time>2023-01-18T15:57:50.237Z</time>
</trkpt>
<trkpt lat="31.3922500" lon="34.6417300">
<ele>110.099998</ele>
<time>2023-01-18T15:57:50.237Z</time>
</trkpt>
<trkpt lat="31.3921000" lon="34.6411800">
<ele>112.829994</ele>
<time>2023-01-18T15:57:50.237Z</time>
</trkpt>
<trkpt lat="31.3920200" lon="34.6409900">
<ele>113.559998</ele>
<time>2023-01-18T15:57:50.237Z</time>
</trkpt>
<trkpt lat="31.3918900" lon="34.6408000">
<ele>113.950005</ele>
<time>2023-01-18T15:57:50.237Z</time>
</trkpt>
<trkpt lat="31.3918500" lon="34.6407800">
<ele>115.820000</ele>
<time>2023-01-18T15:57:50.237Z</time>
</trkpt>
<trkpt lat="31.3918100" lon="34.6407200">
<ele>118.210007</ele>
<time>2023-01-18T15:57:50.237Z</time>
</trkpt>
<trkpt lat="31.3917800" lon="34.6407000">
<ele>119.360001</ele>
<time>2023-01-18T15:57:50.237Z</time>
</trkpt>
<trkpt lat="31.3917400" lon="34.6406400">
<ele>121.079994</ele>
<time>2023-01-18T15:57:50.237Z</time>
</trkpt>
<trkpt lat="31.3915500" lon="34.6404600">
<ele>118.720001</ele>
<time>2023-01-18T15:57:50.237Z</time>
</trkpt>
<trkpt lat="31.3914800" lon="34.6404200">
<ele>117.010002</ele>
<time>2023-01-18T15:57:50.237Z</time>
</trkpt>
<trkpt lat="31.3913900" lon="34.6403000">
<ele>115.089996</ele>
<time>2023-01-18T15:57:50.237Z</time>
</trkpt>
<trkpt lat="31.3913200" lon="34.6402700">
<ele>114.570000</ele>
<time>2023-01-18T15:57:50.237Z</time>
</trkpt>
<trkpt lat="31.3912700" lon="34.6402200">
<ele>114.440002</ele>
<time>2023-01-18T15:57:50.237Z</time>
</trkpt>
<trkpt lat="31.3912400" lon="34.6402000">
<ele>114.150002</ele>
<time>2023-01-18T15:57:50.237Z</time>
</trkpt>
<trkpt lat="31.3910900" lon="34.6401800">
<ele>112.500000</ele>
<time>2023-01-18T15:57:50.237Z</time>
</trkpt>
<trkpt lat="31.3910900" lon="34.6401800">
<ele>112.500000</ele>
<time>2023-01-18T15:57:50.237Z</time>
</trkpt>
<trkpt lat="31.3910900" lon="34.6401800">
<ele>112.500000</ele>
<time>2023-01-18T15:57:50.237Z</time>
</trkpt>
<trkpt lat="31.3910000" lon="34.6401200">
<ele>113.119995</ele>
<time>2023-01-18T15:57:50.237Z</time>
</trkpt>
<trkpt lat="31.3909300" lon="34.6401100">
<ele>113.879997</ele>
<time>2023-01-18T15:57:50.237Z</time>
</trkpt>
<trkpt lat="31.3902400" lon="34.6401000">
<ele>115.099998</ele>
<time>2023-01-18T15:57:50.237Z</time>
</trkpt>
<trkpt lat="31.3901900" lon="34.6400400">
<ele>115.849998</ele>
<time>2023-01-18T15:57:50.237Z</time>
</trkpt>
<trkpt lat="31.3900900" lon="34.6399900">
<ele>117.020004</ele>
<time>2023-01-18T15:57:50.237Z</time>
</trkpt>
<trkpt lat="31.3899900" lon="34.6398700">
<ele>118.110001</ele>
<time>2023-01-18T15:57:50.237Z</time>
</trkpt>
<trkpt lat="31.3899300" lon="34.6398400">
<ele>118.720001</ele>
<time>2023-01-18T15:57:50.237Z</time>
</trkpt>
<trkpt lat="31.3898400" lon="34.6397100">
<ele>119.209999</ele>
<time>2023-01-18T15:57:50.237Z</time>
</trkpt>
<trkpt lat="31.3897700" lon="34.6396700">
<ele>119.750000</ele>
<time>2023-01-18T15:57:50.237Z</time>
</trkpt>
<trkpt lat="31.3897200" lon="34.6396100">
<ele>119.949997</ele>
<time>2023-01-18T15:57:50.237Z</time>
</trkpt>
<trkpt lat="31.3896500" lon="34.6395900">
<ele>118.299995</ele>
<time>2023-01-18T15:57:50.237Z</time>
</trkpt>
<trkpt lat="31.3893700" lon="34.6395900">
<ele>112.680000</ele>
<time>2023-01-18T15:57:50.237Z</time>
</trkpt>
<trkpt lat="31.3891900" lon="34.6396200">
<ele>110.859993</ele>
<time>2023-01-18T15:57:50.237Z</time>
</trkpt>
<trkpt lat="31.3891200" lon="34.6395900">
<ele>110.689995</ele>
<time>2023-01-18T15:57:50.237Z</time>
</trkpt>
<trkpt lat="31.3891000" lon="34.6395600">
<ele>110.659996</ele>
<time>2023-01-18T15:57:50.237Z</time>
</trkpt>
<trkpt lat="31.3890800" lon="34.6394800">
<ele>110.440002</ele>
<time>2023-01-18T15:57:50.237Z</time>
</trkpt>
<trkpt lat="31.3891000" lon="34.6391000">
<ele>109.779999</ele>
<time>2023-01-18T15:57:50.237Z</time>
</trkpt>
<trkpt lat="31.3890600" lon="34.6389000">
<ele>112.250008</ele>
<time>2023-01-18T15:57:50.237Z</time>
</trkpt>
<trkpt lat="31.3890200" lon="34.6388300">
<ele>112.189995</ele>
<time>2023-01-18T15:57:50.237Z</time>
</trkpt>
<trkpt lat="31.3889300" lon="34.6387500">
<ele>111.570000</ele>
<time>2023-01-18T15:57:50.237Z</time>
</trkpt>
<trkpt lat="31.3888300" lon="34.6387200">
<ele>112.239998</ele>
<time>2023-01-18T15:57:50.237Z</time>
</trkpt>
<trkpt lat="31.3887800" lon="34.6386600">
<ele>112.930000</ele>
<time>2023-01-18T15:57:50.237Z</time>
</trkpt>
<trkpt lat="31.3887100" lon="34.6386500">
<ele>114.479996</ele>
<time>2023-01-18T15:57:50.237Z</time>
</trkpt>
<trkpt lat="31.3883100" lon="34.6386400">
<ele>120.400002</ele>
<time>2023-01-18T15:57:50.237Z</time>
</trkpt>
<trkpt lat="31.3881500" lon="34.6385700">
<ele>118.510002</ele>
<time>2023-01-18T15:57:50.237Z</time>
</trkpt>
<trkpt lat="31.3875000" lon="34.6385600">
<ele>115.450005</ele>
<time>2023-01-18T15:57:50.237Z</time>
</trkpt>
<trkpt lat="31.3874300" lon="34.6385500">
<ele>114.380005</ele>
<time>2023-01-18T15:57:50.237Z</time>
</trkpt>
<trkpt lat="31.3873700" lon="34.6385000">
<ele>113.860001</ele>
<time>2023-01-18T15:57:50.237Z</time>
</trkpt>
<trkpt lat="31.3871900" lon="34.6384800">
<ele>113.080002</ele>
<time>2023-01-18T15:57:50.237Z</time>
</trkpt>
<trkpt lat="31.3865800" lon="34.6384700">
<ele>113.030006</ele>
<time>2023-01-18T15:57:50.237Z</time>
</trkpt>
<trkpt lat="31.3863900" lon="34.6383500">
<ele>111.129997</ele>
<time>2023-01-18T15:57:50.237Z</time>
</trkpt>
<trkpt lat="31.3863300" lon="34.6382500">
<ele>111.750000</ele>
<time>2023-01-18T15:57:50.237Z</time>
</trkpt>
<trkpt lat="31.3862700" lon="34.6382000">
<ele>112.180000</ele>
<time>2023-01-18T15:57:50.237Z</time>
</trkpt>
<trkpt lat="31.3862300" lon="34.6380400">
<ele>113.139999</ele>
<time>2023-01-18T15:57:50.237Z</time>
</trkpt>
<trkpt lat="31.3861900" lon="34.6377000">
<ele>115.920006</ele>
<time>2023-01-18T15:57:50.237Z</time>
</trkpt>
<trkpt lat="31.3862000" lon="34.6370700">
<ele>115.259995</ele>
<time>2023-01-18T15:57:50.237Z</time>
</trkpt>
<trkpt lat="31.3861700" lon="34.6368600">
<ele>113.790001</ele>
<time>2023-01-18T15:57:50.237Z</time>
</trkpt>
<trkpt lat="31.3861000" lon="34.6365400">
<ele>111.129997</ele>
<time>2023-01-18T15:57:50.237Z</time>
</trkpt>
<trkpt lat="31.3860600" lon="34.6364700">
<ele>110.770004</ele>
<time>2023-01-18T15:57:50.237Z</time>
</trkpt>
<trkpt lat="31.3860100" lon="34.6363100">
<ele>109.870003</ele>
<time>2023-01-18T15:57:50.237Z</time>
</trkpt>
<trkpt lat="31.3859900" lon="34.6361500">
<ele>108.830002</ele>
<time>2023-01-18T15:57:50.237Z</time>
</trkpt>
<trkpt lat="31.3859400" lon="34.6359700">
<ele>107.290001</ele>
<time>2023-01-18T15:57:50.237Z</time>
</trkpt>
<trkpt lat="31.3859200" lon="34.6359100">
<ele>106.910004</ele>
<time>2023-01-18T15:57:50.237Z</time>
</trkpt>
<trkpt lat="31.3858400" lon="34.6358000">
<ele>107.189995</ele>
<time>2023-01-18T15:57:50.237Z</time>
</trkpt>
<trkpt lat="31.3858200" lon="34.6356900">
<ele>107.939995</ele>
<time>2023-01-18T15:57:50.237Z</time>
</trkpt>
<trkpt lat="31.3857400" lon="34.6355900">
<ele>108.080002</ele>
<time>2023-01-18T15:57:50.237Z</time>
</trkpt>
<trkpt lat="31.3856500" lon="34.6353200">
<ele>109.939995</ele>
<time>2023-01-18T15:57:50.237Z</time>
</trkpt>
<trkpt lat="31.3855900" lon="34.6352800">
<ele>110.099998</ele>
<time>2023-01-18T15:57:50.237Z</time>
</trkpt>
<trkpt lat="31.3855500" lon="34.6352100">
<ele>109.469994</ele>
<time>2023-01-18T15:57:50.237Z</time>
</trkpt>
<trkpt lat="31.3855000" lon="34.6351900">
<ele>108.959999</ele>
<time>2023-01-18T15:57:50.237Z</time>
</trkpt>
<trkpt lat="31.3851600" lon="34.6351000">
<ele>107.489998</ele>
<time>2023-01-18T15:57:50.237Z</time>
</trkpt>
<trkpt lat="31.3851000" lon="34.6350700">
<ele>107.590004</ele>
<time>2023-01-18T15:57:50.237Z</time>
</trkpt>
<trkpt lat="31.3850400" lon="34.6350100">
<ele>107.930000</ele>
<time>2023-01-18T15:57:50.237Z</time>
</trkpt>
<trkpt lat="31.3850400" lon="34.6348900">
<ele>109.070000</ele>
<time>2023-01-18T15:57:50.237Z</time>
</trkpt>
<trkpt lat="31.3850600" lon="34.6348100">
<ele>109.759995</ele>
<time>2023-01-18T15:57:50.237Z</time>
</trkpt>
<trkpt lat="31.3851900" lon="34.6345600">
<ele>110.190002</ele>
<time>2023-01-18T15:57:50.237Z</time>
</trkpt>
<trkpt lat="31.3852500" lon="34.6343700">
<ele>109.179993</ele>
<time>2023-01-18T15:57:50.237Z</time>
</trkpt>
<trkpt lat="31.3852500" lon="34.6340600">
<ele>107.949997</ele>
<time>2023-01-18T15:57:50.237Z</time>
</trkpt>
<trkpt lat="31.3852100" lon="34.6339100">
<ele>108.029999</ele>
<time>2023-01-18T15:57:50.237Z</time>
</trkpt>
<trkpt lat="31.3851000" lon="34.6337600">
<ele>108.800003</ele>
<time>2023-01-18T15:57:50.237Z</time>
</trkpt>
<trkpt lat="31.3850100" lon="34.6336600">
<ele>109.240005</ele>
<time>2023-01-18T15:57:50.237Z</time>
</trkpt>
<trkpt lat="31.3845200" lon="34.6332500">
<ele>111.000000</ele>
<time>2023-01-18T15:57:50.237Z</time>
</trkpt>
<trkpt lat="31.3844700" lon="34.6331700">
<ele>109.250000</ele>
<time>2023-01-18T15:57:50.237Z</time>
</trkpt>
<trkpt lat="31.3844400" lon="34.6330600">
<ele>106.129997</ele>
<time>2023-01-18T15:57:50.237Z</time>
</trkpt>
<trkpt lat="31.3844500" lon="34.6329700">
<ele>105.410004</ele>
<time>2023-01-18T15:57:50.237Z</time>
</trkpt>
<trkpt lat="31.3845200" lon="34.6328500">
<ele>104.459999</ele>
<time>2023-01-18T15:57:50.237Z</time>
</trkpt>
<trkpt lat="31.3845200" lon="34.6328500">
<ele>104.459999</ele>
<time>2023-01-18T15:57:50.237Z</time>
</trkpt>
<trkpt lat="31.3845200" lon="34.6328500">
<ele>104.459999</ele>
<time>2023-01-18T15:57:50.237Z</time>
</trkpt>
<trkpt lat="31.3847500" lon="34.6325700">
<ele>98.339996</ele>
<time>2023-01-18T15:57:50.237Z</time>
</trkpt>
<trkpt lat="31.3849100" lon="34.6324100">
<ele>98.720001</ele>
<time>2023-01-18T15:57:50.237Z</time>
</trkpt>
<trkpt lat="31.3850100" lon="34.6323400">
<ele>101.220001</ele>
<time>2023-01-18T15:57:50.237Z</time>
</trkpt>
<trkpt lat="31.3852800" lon="34.6322000">
<ele>103.410004</ele>
<time>2023-01-18T15:57:50.237Z</time>
</trkpt>
<trkpt lat="31.3853900" lon="34.6321200">
<ele>104.899994</ele>
<time>2023-01-18T15:57:50.237Z</time>
</trkpt>
<trkpt lat="31.3854500" lon="34.6320600">
<ele>105.349998</ele>
<time>2023-01-18T15:57:50.237Z</time>
</trkpt>
<trkpt lat="31.3855400" lon="34.6318900">
<ele>105.390007</ele>
<time>2023-01-18T15:57:50.237Z</time>
</trkpt>
<trkpt lat="31.3855900" lon="34.6317600">
<ele>105.169998</ele>
<time>2023-01-18T15:57:50.237Z</time>
</trkpt>
<trkpt lat="31.3856100" lon="34.6313100">
<ele>104.040001</ele>
<time>2023-01-18T15:57:50.237Z</time>
</trkpt>
<trkpt lat="31.3856600" lon="34.6311400">
<ele>103.270004</ele>
<time>2023-01-18T15:57:50.237Z</time>
</trkpt>
<trkpt lat="31.3858500" lon="34.6308500">
<ele>102.639992</ele>
<time>2023-01-18T15:57:50.237Z</time>
</trkpt>
<trkpt lat="31.3859100" lon="34.6307900">
<ele>102.299995</ele>
<time>2023-01-18T15:57:50.237Z</time>
</trkpt>
<trkpt lat="31.3860000" lon="34.6307500">
<ele>101.800003</ele>
<time>2023-01-18T15:57:50.237Z</time>
</trkpt>
<trkpt lat="31.3860600" lon="34.6307500">
<ele>101.040001</ele>
<time>2023-01-18T15:57:50.237Z</time>
</trkpt>
<trkpt lat="31.3863000" lon="34.6308700">
<ele>98.320000</ele>
<time>2023-01-18T15:57:50.237Z</time>
</trkpt>
<trkpt lat="31.3863800" lon="34.6308900">
<ele>98.180000</ele>
<time>2023-01-18T15:57:50.237Z</time>
</trkpt>
<trkpt lat="31.3864800" lon="34.6308900">
<ele>98.180000</ele>
<time>2023-01-18T15:57:50.237Z</time>
</trkpt>
<trkpt lat="31.3866400" lon="34.6308100">
<ele>99.340004</ele>
<time>2023-01-18T15:57:50.237Z</time>
</trkpt>
<trkpt lat="31.3867400" lon="34.6307100">
<ele>100.009995</ele>
<time>2023-01-18T15:57:50.237Z</time>
</trkpt>
<trkpt lat="31.3869800" lon="34.6304300">
<ele>99.450005</ele>
<time>2023-01-18T15:57:50.237Z</time>
</trkpt>
<trkpt lat="31.3870500" lon="34.6303800">
<ele>98.979996</ele>
<time>2023-01-18T15:57:50.237Z</time>
</trkpt>
<trkpt lat="31.3870500" lon="34.6303800">
<ele>98.979996</ele>
<time>2023-01-18T15:57:50.237Z</time>
</trkpt>
<trkpt lat="31.3876800" lon="34.6304200">
<ele>95.769997</ele>
<time>2023-01-18T15:57:50.237Z</time>
</trkpt>
<trkpt lat="31.3876800" lon="34.6304200">
<ele>95.769997</ele>
<time>2023-01-18T15:57:50.237Z</time>
</trkpt>
<trkpt lat="31.3882000" lon="34.6306200">
<ele>96.150002</ele>
<time>2023-01-18T15:57:50.237Z</time>
</trkpt>
<trkpt lat="31.3882000" lon="34.6306200">
<ele>96.150002</ele>
<time>2023-01-18T15:57:50.237Z</time>
</trkpt>
<trkpt lat="31.3885700" lon="34.6314600">
<ele>100.980003</ele>
<time>2023-01-18T15:57:50.237Z</time>
</trkpt>
<trkpt lat="31.3885700" lon="34.6314600">
<ele>100.980003</ele>
<time>2023-01-18T15:57:50.237Z</time>
</trkpt>
<trkpt lat="31.3888800" lon="34.6318700">
<ele>102.929993</ele>
<time>2023-01-18T15:57:50.237Z</time>
</trkpt>
<trkpt lat="31.3888800" lon="34.6318700">
<ele>102.929993</ele>
<time>2023-01-18T15:57:50.237Z</time>
</trkpt>
<trkpt lat="31.3893100" lon="34.6318500">
<ele>107.840004</ele>
<time>2023-01-18T15:57:50.237Z</time>
</trkpt>
<trkpt lat="31.3893100" lon="34.6318500">
<ele>107.840004</ele>
<time>2023-01-18T15:57:50.237Z</time>
</trkpt>
<trkpt lat="31.3897700" lon="34.6316600">
<ele>111.330002</ele>
<time>2023-01-18T15:57:50.237Z</time>
</trkpt>
<trkpt lat="31.3897700" lon="34.6316600">
<ele>111.330002</ele>
<time>2023-01-18T15:57:50.237Z</time>
</trkpt>
<trkpt lat="31.3902200" lon="34.6316900">
<ele>113.830002</ele>
<time>2023-01-18T15:57:50.237Z</time>
</trkpt>
<trkpt lat="31.3902200" lon="34.6316900">
<ele>113.830002</ele>
<time>2023-01-18T15:57:50.237Z</time>
</trkpt>
<trkpt lat="31.3907500" lon="34.6324500">
<ele>117.770004</ele>
<time>2023-01-18T15:57:50.237Z</time>
</trkpt>
<trkpt lat="31.3907500" lon="34.6324500">
<ele>117.770004</ele>
<time>2023-01-18T15:57:50.237Z</time>
</trkpt>
<trkpt lat="31.3910600" lon="34.6328500">
<ele>117.920006</ele>
<time>2023-01-18T15:57:50.237Z</time>
</trkpt>
<trkpt lat="31.3913700" lon="34.6332500">
<ele>117.089996</ele>
<time>2023-01-18T15:57:50.237Z</time>
</trkpt>
<trkpt lat="31.3916700" lon="34.6336500">
<ele>123.580002</ele>
<time>2023-01-18T15:57:50.237Z</time>
</trkpt>
<trkpt lat="31.3919800" lon="34.6340500">
<ele>124.150002</ele>
<time>2023-01-18T15:57:50.237Z</time>
</trkpt>
<trkpt lat="31.3922900" lon="34.6344500">
<ele>126.459999</ele>
<time>2023-01-18T15:57:50.237Z</time>
</trkpt>
<trkpt lat="31.3922900" lon="34.6344500">
<ele>126.459999</ele>
<time>2023-01-18T15:57:50.237Z</time>
</trkpt>
<trkpt lat="31.3926000" lon="34.6348800">
<ele>122.540001</ele>
<time>2023-01-18T15:57:50.237Z</time>
</trkpt>
<trkpt lat="31.3929100" lon="34.6353200">
<ele>122.050003</ele>
<time>2023-01-18T15:57:50.237Z</time>
</trkpt>
<trkpt lat="31.3929100" lon="34.6353200">
<ele>122.050003</ele>
<time>2023-01-18T15:57:50.237Z</time>
</trkpt>
<trkpt lat="31.3931400" lon="34.6358300">
<ele>129.639999</ele>
<time>2023-01-18T15:57:50.237Z</time>
</trkpt>
<trkpt lat="31.3933800" lon="34.6363500">
<ele>124.399994</ele>
<time>2023-01-18T15:57:50.237Z</time>
</trkpt>
<trkpt lat="31.3936100" lon="34.6368600">
<ele>118.680000</ele>
<time>2023-01-18T15:57:50.237Z</time>
</trkpt>
<trkpt lat="31.3936100" lon="34.6368600">
<ele>118.680000</ele>
<time>2023-01-18T15:57:50.237Z</time>
</trkpt>
<trkpt lat="31.3937400" lon="34.6377200">
<ele>118.029999</ele>
<time>2023-01-18T15:57:50.237Z</time>
</trkpt>
<trkpt lat="31.3937400" lon="34.6377200">
<ele>118.029999</ele>
<time>2023-01-18T15:57:50.237Z</time>
</trkpt>
<trkpt lat="31.3940400" lon="34.6383500">
<ele>128.949997</ele>
<time>2023-01-18T15:57:50.237Z</time>
</trkpt>
<trkpt lat="31.3940400" lon="34.6383500">
<ele>128.949997</ele>
<time>2023-01-18T15:57:50.237Z</time>
</trkpt>
<trkpt lat="31.3943700" lon="34.6388700">
<ele>139.130005</ele>
<time>2023-01-18T15:57:50.237Z</time>
</trkpt>
<trkpt lat="31.3943700" lon="34.6388700">
<ele>139.130005</ele>
<time>2023-01-18T15:57:50.237Z</time>
</trkpt>
<trkpt lat="31.3946000" lon="34.6394600">
<ele>141.389999</ele>
<time>2023-01-18T15:57:50.237Z</time>
</trkpt>
<trkpt lat="31.3946000" lon="34.6394600">
<ele>141.389999</ele>
<time>2023-01-18T15:57:50.237Z</time>
</trkpt>
<trkpt lat="31.3947700" lon="34.6399000">
<ele>150.040009</ele>
<time>2023-01-18T15:57:50.237Z</time>
</trkpt>
<trkpt lat="31.3947700" lon="34.6399000">
<ele>150.040009</ele>
<time>2023-01-18T15:57:50.237Z</time>
</trkpt>
<trkpt lat="31.3953500" lon="34.6405200">
<ele>140.979996</ele>
<time>2023-01-18T15:57:50.237Z</time>
</trkpt>
<trkpt lat="31.3953500" lon="34.6405200">
<ele>140.979996</ele>
<time>2023-01-18T15:57:50.237Z</time>
</trkpt>
<trkpt lat="31.3960300" lon="34.6410000">
<ele>133.350006</ele>
<time>2023-01-18T15:57:50.237Z</time>
</trkpt>
<trkpt lat="31.3960300" lon="34.6410000">
<ele>133.350006</ele>
<time>2023-01-18T15:57:50.237Z</time>
</trkpt>
<trkpt lat="31.3968500" lon="34.6412500">
<ele>135.350006</ele>
<time>2023-01-18T15:57:50.237Z</time>
</trkpt>
<trkpt lat="31.3968500" lon="34.6412500">
<ele>135.350006</ele>
<time>2023-01-18T15:57:50.237Z</time>
</trkpt>
<trkpt lat="31.3973900" lon="34.6414800">
<ele>131.869995</ele>
<time>2023-01-18T15:57:50.237Z</time>
</trkpt>
<trkpt lat="31.3973900" lon="34.6414800">
<ele>131.869995</ele>
<time>2023-01-18T15:57:50.237Z</time>
</trkpt>
<trkpt lat="31.3976500" lon="34.6415300">
<ele>132.809998</ele>
<time>2023-01-18T15:57:50.237Z</time>
</trkpt>
<trkpt lat="31.3976500" lon="34.6415300">
<ele>132.809998</ele>
<time>2023-01-18T15:57:50.237Z</time>
</trkpt>
<trkpt lat="31.3976400" lon="34.6415400">
<ele>132.779999</ele>
<time>2023-01-18T15:57:50.237Z</time>
</trkpt>
<trkpt lat="31.3976300" lon="34.6414600">
<ele>132.589996</ele>
<time>2023-01-18T15:57:50.237Z</time>
</trkpt>
<trkpt lat="31.3974800" lon="34.6406200">
<ele>124.610001</ele>
<time>2023-01-18T15:57:50.237Z</time>
</trkpt>
<trkpt lat="31.3975500" lon="34.6403700">
<ele>120.340004</ele>
<time>2023-01-18T15:57:50.237Z</time>
</trkpt>
<trkpt lat="31.3976600" lon="34.6401700">
<ele>116.700005</ele>
<time>2023-01-18T15:57:50.237Z</time>
</trkpt>
<trkpt lat="31.3982000" lon="34.6394400">
<ele>109.389999</ele>
<time>2023-01-18T15:57:50.237Z</time>
</trkpt>
<trkpt lat="31.3986700" lon="34.6392400">
<ele>112.010002</ele>
<time>2023-01-18T15:57:50.237Z</time>
</trkpt>
<trkpt lat="31.3987300" lon="34.6391200">
<ele>113.190002</ele>
<time>2023-01-18T15:57:50.237Z</time>
</trkpt>
<trkpt lat="31.3987300" lon="34.6391200">
<ele>113.190002</ele>
<time>2023-01-18T15:57:50.237Z</time>
</trkpt>
<trkpt lat="31.3988100" lon="34.6390800">
<ele>114.059998</ele>
<time>2023-01-18T15:57:50.237Z</time>
</trkpt>
<trkpt lat="31.3988100" lon="34.6390800">
<ele>114.059998</ele>
<time>2023-01-18T15:57:50.237Z</time>
</trkpt>
<trkpt lat="31.3989100" lon="34.6390900">
<ele>115.140007</ele>
<time>2023-01-18T15:57:50.237Z</time>
</trkpt>
<trkpt lat="31.3989100" lon="34.6390900">
<ele>115.140007</ele>
<time>2023-01-18T15:57:50.237Z</time>
</trkpt>
<trkpt lat="31.3990200" lon="34.6390500">
<ele>115.620003</ele>
<time>2023-01-18T15:57:50.237Z</time>
</trkpt>
<trkpt lat="31.3990200" lon="34.6390500">
<ele>115.620003</ele>
<time>2023-01-18T15:57:50.237Z</time>
</trkpt>
<trkpt lat="31.3990200" lon="34.6389400">
<ele>114.880005</ele>
<time>2023-01-18T15:57:50.237Z</time>
</trkpt>
<trkpt lat="31.3990200" lon="34.6389400">
<ele>114.880005</ele>
<time>2023-01-18T15:57:50.237Z</time>
</trkpt>
<trkpt lat="31.3990300" lon="34.6388500">
<ele>114.489998</ele>
<time>2023-01-18T15:57:50.237Z</time>
</trkpt>
<trkpt lat="31.3990300" lon="34.6388500">
<ele>114.489998</ele>
<time>2023-01-18T15:57:50.237Z</time>
</trkpt>
<trkpt lat="31.3990300" lon="34.6388000">
<ele>114.489998</ele>
<time>2023-01-18T15:57:50.237Z</time>
</trkpt>
<trkpt lat="31.3990300" lon="34.6388000">
<ele>114.489998</ele>
<time>2023-01-18T15:57:50.237Z</time>
</trkpt>
<trkpt lat="31.3990300" lon="34.6388000">
<ele>114.489998</ele>
<time>2023-01-18T15:57:50.237Z</time>
</trkpt>
<trkpt lat="31.3991000" lon="34.6385500">
<ele>114.349998</ele>
<time>2023-01-18T15:57:50.237Z</time>
</trkpt>
<trkpt lat="31.3991200" lon="34.6379700">
<ele>114.629997</ele>
<time>2023-01-18T15:57:50.237Z</time>
</trkpt>
<trkpt lat="31.3991200" lon="34.6379700">
<ele>114.629997</ele>
<time>2023-01-18T15:57:50.237Z</time>
</trkpt>
<trkpt lat="31.3991200" lon="34.6379700">
<ele>114.629997</ele>
<time>2023-01-18T15:57:50.237Z</time>
</trkpt>
<trkpt lat="31.3991400" lon="34.6376400">
<ele>114.139999</ele>
<time>2023-01-18T15:57:50.237Z</time>
</trkpt>
<trkpt lat="31.3991400" lon="34.6373800">
<ele>115.059998</ele>
<time>2023-01-18T15:57:50.237Z</time>
</trkpt>
<trkpt lat="31.3990500" lon="34.6371200">
<ele>117.580002</ele>
<time>2023-01-18T15:57:50.237Z</time>
</trkpt>
<trkpt lat="31.3990300" lon="34.6369400">
<ele>118.990005</ele>
<time>2023-01-18T15:57:50.237Z</time>
</trkpt>
<trkpt lat="31.3990700" lon="34.6367800">
<ele>119.260002</ele>
<time>2023-01-18T15:57:50.237Z</time>
</trkpt>
<trkpt lat="31.3991100" lon="34.6365100">
<ele>119.229996</ele>
<time>2023-01-18T15:57:50.237Z</time>
</trkpt>
<trkpt lat="31.3990000" lon="34.6364000">
<ele>118.439995</ele>
<time>2023-01-18T15:57:50.237Z</time>
</trkpt>
<trkpt lat="31.3988700" lon="34.6363900">
<ele>117.869995</ele>
<time>2023-01-18T15:57:50.237Z</time>
</trkpt>
<trkpt lat="31.3985100" lon="34.6358900">
<ele>120.230003</ele>
<time>2023-01-18T15:57:50.237Z</time>
</trkpt>
<trkpt lat="31.3983500" lon="34.6357600">
<ele>124.559998</ele>
<time>2023-01-18T15:57:50.237Z</time>
</trkpt>
<trkpt lat="31.3982200" lon="34.6357600">
<ele>122.360001</ele>
<time>2023-01-18T15:57:50.237Z</time>
</trkpt>
<trkpt lat="31.3982200" lon="34.6357600">
<ele>122.360001</ele>
<time>2023-01-18T15:57:50.237Z</time>
</trkpt>
<trkpt lat="31.3982200" lon="34.6357600">
<ele>122.360001</ele>
<time>2023-01-18T15:57:50.237Z</time>
</trkpt>
<trkpt lat="31.3981100" lon="34.6357600">
<ele>119.799995</ele>
<time>2023-01-18T15:57:50.237Z</time>
</trkpt>
<trkpt lat="31.3979000" lon="34.6356800">
<ele>114.260002</ele>
<time>2023-01-18T15:57:50.237Z</time>
</trkpt>
<trkpt lat="31.3979000" lon="34.6355700">
<ele>114.380005</ele>
<time>2023-01-18T15:57:50.237Z</time>
</trkpt>
<trkpt lat="31.3980100" lon="34.6354400">
<ele>118.350006</ele>
<time>2023-01-18T15:57:50.237Z</time>
</trkpt>
<trkpt lat="31.3979700" lon="34.6353200">
<ele>117.639999</ele>
<time>2023-01-18T15:57:50.237Z</time>
</trkpt>
<trkpt lat="31.3978200" lon="34.6351900">
<ele>115.899994</ele>
<time>2023-01-18T15:57:50.237Z</time>
</trkpt>
<trkpt lat="31.3977900" lon="34.6350100">
<ele>116.809998</ele>
<time>2023-01-18T15:57:50.237Z</time>
</trkpt>
<trkpt lat="31.3978300" lon="34.6347000">
<ele>113.820000</ele>
<time>2023-01-18T15:57:50.237Z</time>
</trkpt>
<trkpt lat="31.3977600" lon="34.6344200">
<ele>111.060005</ele>
<time>2023-01-18T15:57:50.237Z</time>
</trkpt>
<trkpt lat="31.3976700" lon="34.6342800">
<ele>111.870003</ele>
<time>2023-01-18T15:57:50.237Z</time>
</trkpt>
<trkpt lat="31.3975000" lon="34.6341100">
<ele>115.200005</ele>
<time>2023-01-18T15:57:50.237Z</time>
</trkpt>
<trkpt lat="31.3975000" lon="34.6341100">
<ele>115.200005</ele>
<time>2023-01-18T15:57:50.237Z</time>
</trkpt>
<trkpt lat="31.3975000" lon="34.6341100">
<ele>115.200005</ele>
<time>2023-01-18T15:57:50.237Z</time>
</trkpt>
<trkpt lat="31.3972600" lon="34.6338900">
<ele>116.860001</ele>
<time>2023-01-18T15:57:50.237Z</time>
</trkpt>
<trkpt lat="31.3970800" lon="34.6334300">
<ele>117.150002</ele>
<time>2023-01-18T15:57:50.237Z</time>
</trkpt>
<trkpt lat="31.3969700" lon="34.6328800">
<ele>116.090004</ele>
<time>2023-01-18T15:57:50.237Z</time>
</trkpt>
<trkpt lat="31.3967800" lon="34.6325800">
<ele>112.459999</ele>
<time>2023-01-18T15:57:50.237Z</time>
</trkpt>
<trkpt lat="31.3963400" lon="34.6320200">
<ele>116.499992</ele>
<time>2023-01-18T15:57:50.237Z</time>
</trkpt>
<trkpt lat="31.3961700" lon="34.6319300">
<ele>116.939995</ele>
<time>2023-01-18T15:57:50.237Z</time>
</trkpt>
<trkpt lat="31.3960900" lon="34.6319600">
<ele>116.720001</ele>
<time>2023-01-18T15:57:50.237Z</time>
</trkpt>
<trkpt lat="31.3960700" lon="34.6319900">
<ele>116.419998</ele>
<time>2023-01-18T15:57:50.237Z</time>
</trkpt>
<trkpt lat="31.3960700" lon="34.6319900">
<ele>116.419998</ele>
<time>2023-01-18T15:57:50.237Z</time>
</trkpt>
<trkpt lat="31.3960700" lon="34.6319900">
<ele>116.419998</ele>
<time>2023-01-18T15:57:50.237Z</time>
</trkpt>
<trkpt lat="31.3960400" lon="34.6320300">
<ele>116.000000</ele>
<time>2023-01-18T15:57:50.237Z</time>
</trkpt>
<trkpt lat="31.3960000" lon="34.6321100">
<ele>115.439995</ele>
<time>2023-01-18T15:57:50.237Z</time>
</trkpt>
<trkpt lat="31.3958200" lon="34.6322700">
<ele>113.529999</ele>
<time>2023-01-18T15:57:50.237Z</time>
</trkpt>
<trkpt lat="31.3955600" lon="34.6319100">
<ele>108.709999</ele>
<time>2023-01-18T15:57:50.237Z</time>
</trkpt>
<trkpt lat="31.3957500" lon="34.6317600">
<ele>111.439995</ele>
<time>2023-01-18T15:57:50.237Z</time>
</trkpt>
<trkpt lat="31.3957100" lon="34.6313600">
<ele>109.570000</ele>
<time>2023-01-18T15:57:50.237Z</time>
</trkpt>
<trkpt lat="31.3953500" lon="34.6308800">
<ele>111.400002</ele>
<time>2023-01-18T15:57:50.237Z</time>
</trkpt>
<trkpt lat="31.3947100" lon="34.6303800">
<ele>109.739998</ele>
<time>2023-01-18T15:57:50.237Z</time>
</trkpt>
<trkpt lat="31.3939600" lon="34.6298300">
<ele>109.230003</ele>
<time>2023-01-18T15:57:50.237Z</time>
</trkpt>
<trkpt lat="31.3938400" lon="34.6295700">
<ele>106.389999</ele>
<time>2023-01-18T15:57:50.237Z</time>
</trkpt>
<trkpt lat="31.3932900" lon="34.6290900">
<ele>107.860001</ele>
<time>2023-01-18T15:57:50.237Z</time>
</trkpt>
<trkpt lat="31.3932900" lon="34.6290900">
<ele>107.860001</ele>
<time>2023-01-18T15:57:50.237Z</time>
</trkpt>
<trkpt lat="31.3932900" lon="34.6290900">
<ele>107.860001</ele>
<time>2023-01-18T15:57:50.237Z</time>
</trkpt>
<trkpt lat="31.3928200" lon="34.6286700">
<ele>105.839996</ele>
<time>2023-01-18T15:57:50.237Z</time>
</trkpt>
<trkpt lat="31.3924200" lon="34.6280900">
<ele>105.049995</ele>
<time>2023-01-18T15:57:50.237Z</time>
</trkpt>
<trkpt lat="31.3920600" lon="34.6276000">
<ele>105.010002</ele>
<time>2023-01-18T15:57:50.237Z</time>
</trkpt>
<trkpt lat="31.3916800" lon="34.6272700">
<ele>102.820000</ele>
<time>2023-01-18T15:57:50.237Z</time>
</trkpt>
<trkpt lat="31.3913000" lon="34.6269300">
<ele>107.459999</ele>
<time>2023-01-18T15:57:50.237Z</time>
</trkpt>
<trkpt lat="31.3907100" lon="34.6267800">
<ele>105.360001</ele>
<time>2023-01-18T15:57:50.237Z</time>
</trkpt>
<trkpt lat="31.3901100" lon="34.6266200">
<ele>100.230003</ele>
<time>2023-01-18T15:57:50.237Z</time>
</trkpt>
<trkpt lat="31.3901100" lon="34.6266200">
<ele>100.230003</ele>
<time>2023-01-18T15:57:50.237Z</time>
</trkpt>
<trkpt lat="31.3901100" lon="34.6266200">
<ele>100.230003</ele>
<time>2023-01-18T15:57:50.237Z</time>
</trkpt>
<trkpt lat="31.3894100" lon="34.6264400">
<ele>102.690002</ele>
<time>2023-01-18T15:57:50.237Z</time>
</trkpt>
<trkpt lat="31.3892600" lon="34.6265900">
<ele>101.610001</ele>
<time>2023-01-18T15:57:50.237Z</time>
</trkpt>
<trkpt lat="31.3889500" lon="34.6265100">
<ele>103.999992</ele>
<time>2023-01-18T15:57:50.237Z</time>
</trkpt>
<trkpt lat="31.3888400" lon="34.6263100">
<ele>106.980003</ele>
<time>2023-01-18T15:57:50.237Z</time>
</trkpt>
<trkpt lat="31.3886500" lon="34.6260500">
<ele>108.779999</ele>
<time>2023-01-18T15:57:50.237Z</time>
</trkpt>
<trkpt lat="31.3885800" lon="34.6256300">
<ele>106.360001</ele>
<time>2023-01-18T15:57:50.237Z</time>
</trkpt>
<trkpt lat="31.3884200" lon="34.6251000">
<ele>104.309998</ele>
<time>2023-01-18T15:57:50.237Z</time>
</trkpt>
<trkpt lat="31.3882600" lon="34.6247400">
<ele>103.930000</ele>
<time>2023-01-18T15:57:50.237Z</time>
</trkpt>
<trkpt lat="31.3881900" lon="34.6241800">
<ele>102.029999</ele>
<time>2023-01-18T15:57:50.237Z</time>
</trkpt>
<trkpt lat="31.3882000" lon="34.6238600">
<ele>100.029999</ele>
<time>2023-01-18T15:57:50.237Z</time>
</trkpt>
<trkpt lat="31.3881700" lon="34.6236600">
<ele>100.110001</ele>
<time>2023-01-18T15:57:50.237Z</time>
</trkpt>
<trkpt lat="31.3880800" lon="34.6234700">
<ele>100.779999</ele>
<time>2023-01-18T15:57:50.237Z</time>
</trkpt>
<trkpt lat="31.3879800" lon="34.6233100">
<ele>101.089996</ele>
<time>2023-01-18T15:57:50.237Z</time>
</trkpt>
<trkpt lat="31.3877400" lon="34.6230900">
<ele>102.269997</ele>
<time>2023-01-18T15:57:50.237Z</time>
</trkpt>
<trkpt lat="31.3877400" lon="34.6227400">
<ele>98.709999</ele>
<time>2023-01-18T15:57:50.237Z</time>
</trkpt>
<trkpt lat="31.3876300" lon="34.6226100">
<ele>97.250000</ele>
<time>2023-01-18T15:57:50.237Z</time>
</trkpt>
<trkpt lat="31.3875200" lon="34.6226900">
<ele>99.910004</ele>
<time>2023-01-18T15:57:50.237Z</time>
</trkpt>
<trkpt lat="31.3872600" lon="34.6226100">
<ele>99.600006</ele>
<time>2023-01-18T15:57:50.237Z</time>
</trkpt>
<trkpt lat="31.3869100" lon="34.6226900">
<ele>103.760002</ele>
<time>2023-01-18T15:57:50.237Z</time>
</trkpt>
<trkpt lat="31.3868000" lon="34.6227700">
<ele>103.519997</ele>
<time>2023-01-18T15:57:50.237Z</time>
</trkpt>
<trkpt lat="31.3867700" lon="34.6228000">
<ele>103.399994</ele>
<time>2023-01-18T15:57:50.237Z</time>
</trkpt>
<trkpt lat="31.3867700" lon="34.6228000">
<ele>103.399994</ele>
<time>2023-01-18T15:57:50.237Z</time>
</trkpt>
<trkpt lat="31.3867700" lon="34.6228000">
<ele>103.399994</ele>
<time>2023-01-18T15:57:50.237Z</time>
</trkpt>
<trkpt lat="31.3866300" lon="34.6229500">
<ele>102.970001</ele>
<time>2023-01-18T15:57:50.237Z</time>
</trkpt>
<trkpt lat="31.3863400" lon="34.6233400">
<ele>102.840004</ele>
<time>2023-01-18T15:57:50.237Z</time>
</trkpt>
<trkpt lat="31.3861700" lon="34.6233600">
<ele>102.230003</ele>
<time>2023-01-18T15:57:50.237Z</time>
</trkpt>
<trkpt lat="31.3859700" lon="34.6229500">
<ele>104.099998</ele>
<time>2023-01-18T15:57:50.237Z</time>
</trkpt>
<trkpt lat="31.3859300" lon="34.6225500">
<ele>107.189995</ele>
<time>2023-01-18T15:57:50.237Z</time>
</trkpt>
<trkpt lat="31.3858800" lon="34.6221400">
<ele>103.410004</ele>
<time>2023-01-18T15:57:50.237Z</time>
</trkpt>
<trkpt lat="31.3857300" lon="34.6219600">
<ele>99.839996</ele>
<time>2023-01-18T15:57:50.237Z</time>
</trkpt>
<trkpt lat="31.3857900" lon="34.6216500">
<ele>101.130005</ele>
<time>2023-01-18T15:57:50.237Z</time>
</trkpt>
<trkpt lat="31.3856300" lon="34.6216100">
<ele>101.140007</ele>
<time>2023-01-18T15:57:50.237Z</time>
</trkpt>
<trkpt lat="31.3855100" lon="34.6216500">
<ele>100.060005</ele>
<time>2023-01-18T15:57:50.237Z</time>
</trkpt>
<trkpt lat="31.3852900" lon="34.6217100">
<ele>99.209999</ele>
<time>2023-01-18T15:57:50.237Z</time>
</trkpt>
<trkpt lat="31.3850400" lon="34.6214800">
<ele>101.199997</ele>
<time>2023-01-18T15:57:50.237Z</time>
</trkpt>
<trkpt lat="31.3848400" lon="34.6213100">
<ele>99.770004</ele>
<time>2023-01-18T15:57:50.237Z</time>
</trkpt>
<trkpt lat="31.3846900" lon="34.6210300">
<ele>101.949997</ele>
<time>2023-01-18T15:57:50.237Z</time>
</trkpt>
<trkpt lat="31.3845100" lon="34.6208700">
<ele>101.719994</ele>
<time>2023-01-18T15:57:50.237Z</time>
</trkpt>
<trkpt lat="31.3845600" lon="34.6207000">
<ele>103.139999</ele>
<time>2023-01-18T15:57:50.237Z</time>
</trkpt>
<trkpt lat="31.3845600" lon="34.6207000">
<ele>103.139999</ele>
<time>2023-01-18T15:57:50.237Z</time>
</trkpt>
<trkpt lat="31.3845800" lon="34.6206200">
<ele>103.720001</ele>
<time>2023-01-18T15:57:50.237Z</time>
</trkpt>
<trkpt lat="31.3848100" lon="34.6208000">
<ele>103.779999</ele>
<time>2023-01-18T15:57:50.237Z</time>
</trkpt>
<trkpt lat="31.3851200" lon="34.6209000">
<ele>99.059998</ele>
<time>2023-01-18T15:57:50.237Z</time>
</trkpt>
<trkpt lat="31.3852600" lon="34.6207900">
<ele>95.230003</ele>
<time>2023-01-18T15:57:50.237Z</time>
</trkpt>
<trkpt lat="31.3854200" lon="34.6205700">
<ele>94.029999</ele>
<time>2023-01-18T15:57:50.237Z</time>
</trkpt>
<trkpt lat="31.3854300" lon="34.6204800">
<ele>94.940002</ele>
<time>2023-01-18T15:57:50.237Z</time>
</trkpt>
<trkpt lat="31.3854400" lon="34.6203800">
<ele>96.160004</ele>
<time>2023-01-18T15:57:50.237Z</time>
</trkpt>
<trkpt lat="31.3851900" lon="34.6202300">
<ele>100.570000</ele>
<time>2023-01-18T15:57:50.237Z</time>
</trkpt>
<trkpt lat="31.3849800" lon="34.6201700">
<ele>104.579994</ele>
<time>2023-01-18T15:57:50.237Z</time>
</trkpt>
<trkpt lat="31.3849200" lon="34.6201000">
<ele>106.379997</ele>
<time>2023-01-18T15:57:50.237Z</time>
</trkpt>
<trkpt lat="31.3849200" lon="34.6201000">
<ele>106.379997</ele>
<time>2023-01-18T15:57:50.237Z</time>
</trkpt>
<trkpt lat="31.3849200" lon="34.6201000">
<ele>106.379997</ele>
<time>2023-01-18T15:57:50.237Z</time>
</trkpt>
<trkpt lat="31.3848300" lon="34.6200100">
<ele>108.409996</ele>
<time>2023-01-18T15:57:50.237Z</time>
</trkpt>
<trkpt lat="31.3846700" lon="34.6197800">
<ele>107.819992</ele>
<time>2023-01-18T15:57:50.237Z</time>
</trkpt>
<trkpt lat="31.3846200" lon="34.6194800">
<ele>104.080002</ele>
<time>2023-01-18T15:57:50.237Z</time>
</trkpt>
<trkpt lat="31.3847300" lon="34.6191800">
<ele>102.220001</ele>
<time>2023-01-18T15:57:50.237Z</time>
</trkpt>
<trkpt lat="31.3849100" lon="34.6188500">
<ele>99.800003</ele>
<time>2023-01-18T15:57:50.237Z</time>
</trkpt>
<trkpt lat="31.3849000" lon="34.6185800">
<ele>98.809998</ele>
<time>2023-01-18T15:57:50.237Z</time>
</trkpt>
<trkpt lat="31.3849000" lon="34.6185800">
<ele>98.809998</ele>
<time>2023-01-18T15:57:50.237Z</time>
</trkpt>
<trkpt lat="31.3846500" lon="34.6186500">
<ele>103.880005</ele>
<time>2023-01-18T15:57:50.237Z</time>
</trkpt>
<trkpt lat="31.3844000" lon="34.6188800">
<ele>105.219994</ele>
<time>2023-01-18T15:57:50.237Z</time>
</trkpt>
<trkpt lat="31.3841500" lon="34.6191600">
<ele>99.970001</ele>
<time>2023-01-18T15:57:50.237Z</time>
</trkpt>
<trkpt lat="31.3840800" lon="34.6190900">
<ele>100.139999</ele>
<time>2023-01-18T15:57:50.237Z</time>
</trkpt>
<trkpt lat="31.3840900" lon="34.6189200">
<ele>101.099998</ele>
<time>2023-01-18T15:57:50.237Z</time>
</trkpt>
<trkpt lat="31.3839800" lon="34.6187000">
<ele>102.559998</ele>
<time>2023-01-18T15:57:50.237Z</time>
</trkpt>
<trkpt lat="31.3842200" lon="34.6185100">
<ele>104.550003</ele>
<time>2023-01-18T15:57:50.237Z</time>
</trkpt>
<trkpt lat="31.3841300" lon="34.6182300">
<ele>104.529999</ele>
<time>2023-01-18T15:57:50.237Z</time>
</trkpt>
<trkpt lat="31.3839100" lon="34.6183000">
<ele>107.700005</ele>
<time>2023-01-18T15:57:50.237Z</time>
</trkpt>
<trkpt lat="31.3837000" lon="34.6182000">
<ele>107.919998</ele>
<time>2023-01-18T15:57:50.237Z</time>
</trkpt>
<trkpt lat="31.3836200" lon="34.6184000">
<ele>104.820000</ele>
<time>2023-01-18T15:57:50.237Z</time>
</trkpt>
<trkpt lat="31.3835100" lon="34.6185100">
<ele>104.360001</ele>
<time>2023-01-18T15:57:50.237Z</time>
</trkpt>
<trkpt lat="31.3833600" lon="34.6184100">
<ele>104.720001</ele>
<time>2023-01-18T15:57:50.237Z</time>
</trkpt>
<trkpt lat="31.3831900" lon="34.6185700">
<ele>102.520004</ele>
<time>2023-01-18T15:57:50.237Z</time>
</trkpt>
<trkpt lat="31.3831000" lon="34.6185900">
<ele>101.489998</ele>
<time>2023-01-18T15:57:50.237Z</time>
</trkpt>
<trkpt lat="31.3831000" lon="34.6185900">
<ele>101.489998</ele>
<time>2023-01-18T15:57:50.237Z</time>
</trkpt>
<trkpt lat="31.3831000" lon="34.6185900">
<ele>101.489998</ele>
<time>2023-01-18T15:57:50.237Z</time>
</trkpt>
<trkpt lat="31.3829000" lon="34.6186200">
<ele>100.870003</ele>
<time>2023-01-18T15:57:50.237Z</time>
</trkpt>
<trkpt lat="31.3820200" lon="34.6181200">
<ele>106.780006</ele>
<time>2023-01-18T15:57:50.237Z</time>
</trkpt>
<trkpt lat="31.3814100" lon="34.6174800">
<ele>100.169998</ele>
<time>2023-01-18T15:57:50.237Z</time>
</trkpt>
<trkpt lat="31.3809700" lon="34.6168900">
<ele>100.299995</ele>
<time>2023-01-18T15:57:50.237Z</time>
</trkpt>
<trkpt lat="31.3807400" lon="34.6166100">
<ele>93.389999</ele>
<time>2023-01-18T15:57:50.237Z</time>
</trkpt>
<trkpt lat="31.3805700" lon="34.6166900">
<ele>93.709999</ele>
<time>2023-01-18T15:57:50.237Z</time>
</trkpt>
<trkpt lat="31.3803200" lon="34.6164300">
<ele>86.970001</ele>
<time>2023-01-18T15:57:50.237Z</time>
</trkpt>
<trkpt lat="31.3800900" lon="34.6158000">
<ele>86.529999</ele>
<time>2023-01-18T15:57:50.237Z</time>
</trkpt>
<trkpt lat="31.3799700" lon="34.6158600">
<ele>86.269997</ele>
<time>2023-01-18T15:57:50.237Z</time>
</trkpt>
<trkpt lat="31.3792700" lon="34.6161900">
<ele>82.530006</ele>
<time>2023-01-18T15:57:50.237Z</time>
</trkpt>
<trkpt lat="31.3789400" lon="34.6163900">
<ele>92.529999</ele>
<time>2023-01-18T15:57:50.237Z</time>
</trkpt>
<trkpt lat="31.3787900" lon="34.6164000">
<ele>92.620003</ele>
<time>2023-01-18T15:57:50.237Z</time>
</trkpt>
<trkpt lat="31.3786400" lon="34.6162900">
<ele>89.260002</ele>
<time>2023-01-18T15:57:50.237Z</time>
</trkpt>
<trkpt lat="31.3785900" lon="34.6162800">
<ele>89.000000</ele>
<time>2023-01-18T15:57:50.237Z</time>
</trkpt>
<trkpt lat="31.3784800" lon="34.6162900">
<ele>87.799995</ele>
<time>2023-01-18T15:57:50.237Z</time>
</trkpt>
<trkpt lat="31.3784100" lon="34.6163200">
<ele>86.599998</ele>
<time>2023-01-18T15:57:50.237Z</time>
</trkpt>
<trkpt lat="31.3783700" lon="34.6163500">
<ele>85.480003</ele>
<time>2023-01-18T15:57:50.237Z</time>
</trkpt>
<trkpt lat="31.3783700" lon="34.6163500">
<ele>85.480003</ele>
<time>2023-01-18T15:57:50.237Z</time>
</trkpt>
<trkpt lat="31.3783700" lon="34.6163500">
<ele>85.480003</ele>
<time>2023-01-18T15:57:50.237Z</time>
</trkpt>
<trkpt lat="31.3781900" lon="34.6164500">
<ele>84.680000</ele>
<time>2023-01-18T15:57:50.237Z</time>
</trkpt>
<trkpt lat="31.3778300" lon="34.6166900">
<ele>79.769997</ele>
<time>2023-01-18T15:57:50.237Z</time>
</trkpt>
<trkpt lat="31.3777100" lon="34.6167600">
<ele>80.100006</ele>
<time>2023-01-18T15:57:50.237Z</time>
</trkpt>
<trkpt lat="31.3770500" lon="34.6162400">
<ele>97.520004</ele>
<time>2023-01-18T15:57:50.237Z</time>
</trkpt>
<trkpt lat="31.3767800" lon="34.6162300">
<ele>99.220001</ele>
<time>2023-01-18T15:57:50.237Z</time>
</trkpt>
<trkpt lat="31.3767000" lon="34.6162300">
<ele>99.470001</ele>
<time>2023-01-18T15:57:50.237Z</time>
</trkpt>
<trkpt lat="31.3767000" lon="34.6162300">
<ele>99.470001</ele>
<time>2023-01-18T15:57:50.237Z</time>
</trkpt>
<trkpt lat="31.3767000" lon="34.6162300">
<ele>99.470001</ele>
<time>2023-01-18T15:57:50.237Z</time>
</trkpt>
<trkpt lat="31.3765600" lon="34.6162400">
<ele>100.659996</ele>
<time>2023-01-18T15:57:50.237Z</time>
</trkpt>
<trkpt lat="31.3765300" lon="34.6161700">
<ele>100.980003</ele>
<time>2023-01-18T15:57:50.237Z</time>
</trkpt>
<trkpt lat="31.3765300" lon="34.6161700">
<ele>100.980003</ele>
<time>2023-01-18T15:57:50.237Z</time>
</trkpt>
<trkpt lat="31.3763600" lon="34.6163700">
<ele>102.939995</ele>
<time>2023-01-18T15:57:50.237Z</time>
</trkpt>
<trkpt lat="31.3763600" lon="34.6163700">
<ele>102.939995</ele>
<time>2023-01-18T15:57:50.237Z</time>
</trkpt>
<trkpt lat="31.3764400" lon="34.6165900">
<ele>99.900002</ele>
<time>2023-01-18T15:57:50.237Z</time>
</trkpt>
<trkpt lat="31.3764400" lon="34.6165900">
<ele>99.900002</ele>
<time>2023-01-18T15:57:50.237Z</time>
</trkpt>
<trkpt lat="31.3765200" lon="34.6165300">
<ele>100.039993</ele>
<time>2023-01-18T15:57:50.237Z</time>
</trkpt>
</trkseg>
</trk>
</gpx>
